<?xml version="1.0" encoding="UTF-8" standalone="no" ?>
<gpx xmlns="http://www.topografix.com/GPX/1/1" xmlns:xsi="http://www.w3.org/2001/XMLSchema-instance" xsi:schemaLocation="http://www.topografix.com/GPX/1/1 http://www.topografix.com/GPX/1/1/gpx.xsd" version="1.1" creator="VisuGPX - https://www.visugpx.com">
  <metadata>
    <name>La Chapelle-de-Guinchay VTT</name>
    <desc><![CDATA[Reconnaissance d'un tracé de contournement des deux roches.]]></desc>
  </metadata>
  <trk>
    <name><![CDATA[La Chapelle-de-Guinchay VTTAE]]></name>
    <trkseg>
      <trkpt lat="46.21443" lon="4.75497">
        <ele>196.80000305176</ele>
        <time>2020-05-26T12:22:32.000Z</time>
      </trkpt>
      <trkpt lat="46.21444" lon="4.75497">
        <ele>197</ele>
        <time>2020-05-26T12:22:33.000Z</time>
      </trkpt>
      <trkpt lat="46.21434" lon="4.75502">
        <ele>196.80000305176</ele>
        <time>2020-05-26T12:23:02.000Z</time>
      </trkpt>
      <trkpt lat="46.21431" lon="4.75498">
        <ele>196.60000610352</ele>
        <time>2020-05-26T12:24:36.000Z</time>
      </trkpt>
      <trkpt lat="46.21424" lon="4.75494">
        <ele>196.80000305176</ele>
        <time>2020-05-26T12:24:52.000Z</time>
      </trkpt>
      <trkpt lat="46.21423" lon="4.75494">
        <ele>197.39999389648</ele>
        <time>2020-05-26T12:25:12.000Z</time>
      </trkpt>
      <trkpt lat="46.21419" lon="4.75493">
        <ele>197.60000610352</ele>
        <time>2020-05-26T12:25:43.000Z</time>
      </trkpt>
      <trkpt lat="46.21405" lon="4.75513">
        <ele>197.39999389648</ele>
        <time>2020-05-26T12:25:49.000Z</time>
      </trkpt>
      <trkpt lat="46.21358" lon="4.756">
        <ele>196.60000610352</ele>
        <time>2020-05-26T12:26:03.000Z</time>
      </trkpt>
      <trkpt lat="46.21332" lon="4.75672">
        <ele>195.60000610352</ele>
        <time>2020-05-26T12:26:15.000Z</time>
      </trkpt>
      <trkpt lat="46.21344" lon="4.75692">
        <ele>195.60000610352</ele>
        <time>2020-05-26T12:26:20.000Z</time>
      </trkpt>
      <trkpt lat="46.21377" lon="4.7572">
        <ele>195.60000610352</ele>
        <time>2020-05-26T12:26:27.000Z</time>
      </trkpt>
      <trkpt lat="46.21384" lon="4.75755">
        <ele>195.80000305176</ele>
        <time>2020-05-26T12:26:32.000Z</time>
      </trkpt>
      <trkpt lat="46.21366" lon="4.75856">
        <ele>196</ele>
        <time>2020-05-26T12:26:43.000Z</time>
      </trkpt>
      <trkpt lat="46.21347" lon="4.75923">
        <ele>195.80000305176</ele>
        <time>2020-05-26T12:26:51.000Z</time>
      </trkpt>
      <trkpt lat="46.21348" lon="4.75953">
        <ele>195.39999389648</ele>
        <time>2020-05-26T12:26:55.000Z</time>
      </trkpt>
      <trkpt lat="46.21364" lon="4.75989">
        <ele>195.39999389648</ele>
        <time>2020-05-26T12:27:00.000Z</time>
      </trkpt>
      <trkpt lat="46.21393" lon="4.76107">
        <ele>195.19999694824</ele>
        <time>2020-05-26T12:27:14.000Z</time>
      </trkpt>
      <trkpt lat="46.21465" lon="4.76215">
        <ele>195.39999389648</ele>
        <time>2020-05-26T12:27:31.000Z</time>
      </trkpt>
      <trkpt lat="46.21548" lon="4.76298">
        <ele>197.39999389648</ele>
        <time>2020-05-26T12:27:48.000Z</time>
      </trkpt>
      <trkpt lat="46.21593" lon="4.76416">
        <ele>200.60000610352</ele>
        <time>2020-05-26T12:28:04.000Z</time>
      </trkpt>
      <trkpt lat="46.21621" lon="4.76493">
        <ele>203.60000610352</ele>
        <time>2020-05-26T12:28:14.000Z</time>
      </trkpt>
      <trkpt lat="46.21642" lon="4.76555">
        <ele>206.19999694824</ele>
        <time>2020-05-26T12:28:22.000Z</time>
      </trkpt>
      <trkpt lat="46.21678" lon="4.76665">
        <ele>208.80000305176</ele>
        <time>2020-05-26T12:28:37.000Z</time>
      </trkpt>
      <trkpt lat="46.21682" lon="4.76675">
        <ele>209</ele>
        <time>2020-05-26T12:28:39.000Z</time>
      </trkpt>
      <trkpt lat="46.21684" lon="4.76675">
        <ele>209</ele>
        <time>2020-05-26T12:28:40.000Z</time>
      </trkpt>
      <trkpt lat="46.21687" lon="4.76673">
        <ele>209.19999694824</ele>
        <time>2020-05-26T12:28:41.000Z</time>
      </trkpt>
      <trkpt lat="46.2169" lon="4.76669">
        <ele>209.39999389648</ele>
        <time>2020-05-26T12:28:42.000Z</time>
      </trkpt>
      <trkpt lat="46.21712" lon="4.76629">
        <ele>212.19999694824</ele>
        <time>2020-05-26T12:28:48.000Z</time>
      </trkpt>
      <trkpt lat="46.21714" lon="4.76618">
        <ele>213.80000305176</ele>
        <time>2020-05-26T12:28:57.000Z</time>
      </trkpt>
      <trkpt lat="46.21718" lon="4.76623">
        <ele>214.19999694824</ele>
        <time>2020-05-26T12:28:59.000Z</time>
      </trkpt>
      <trkpt lat="46.21782" lon="4.76707">
        <ele>213.60000610352</ele>
        <time>2020-05-26T12:29:14.000Z</time>
      </trkpt>
      <trkpt lat="46.21861" lon="4.76832">
        <ele>215</ele>
        <time>2020-05-26T12:29:34.000Z</time>
      </trkpt>
      <trkpt lat="46.21895" lon="4.76909">
        <ele>215.80000305176</ele>
        <time>2020-05-26T12:29:46.000Z</time>
      </trkpt>
      <trkpt lat="46.21918" lon="4.76932">
        <ele>215.19999694824</ele>
        <time>2020-05-26T12:29:53.000Z</time>
      </trkpt>
      <trkpt lat="46.21929" lon="4.76918">
        <ele>214.60000610352</ele>
        <time>2020-05-26T12:29:57.000Z</time>
      </trkpt>
      <trkpt lat="46.21955" lon="4.76853">
        <ele>214.39999389648</ele>
        <time>2020-05-26T12:30:06.000Z</time>
      </trkpt>
      <trkpt lat="46.21981" lon="4.76836">
        <ele>215.80000305176</ele>
        <time>2020-05-26T12:30:13.000Z</time>
      </trkpt>
      <trkpt lat="46.21988" lon="4.76822">
        <ele>216</ele>
        <time>2020-05-26T12:30:15.000Z</time>
      </trkpt>
      <trkpt lat="46.22007" lon="4.76762">
        <ele>216.60000610352</ele>
        <time>2020-05-26T12:30:23.000Z</time>
      </trkpt>
      <trkpt lat="46.2201" lon="4.76716">
        <ele>217.39999389648</ele>
        <time>2020-05-26T12:30:31.000Z</time>
      </trkpt>
      <trkpt lat="46.22017" lon="4.76693">
        <ele>218.80000305176</ele>
        <time>2020-05-26T12:30:35.000Z</time>
      </trkpt>
      <trkpt lat="46.22032" lon="4.76668">
        <ele>219.19999694824</ele>
        <time>2020-05-26T12:30:40.000Z</time>
      </trkpt>
      <trkpt lat="46.22037" lon="4.76657">
        <ele>219.39999389648</ele>
        <time>2020-05-26T12:30:42.000Z</time>
      </trkpt>
      <trkpt lat="46.22042" lon="4.7664">
        <ele>219.80000305176</ele>
        <time>2020-05-26T12:30:45.000Z</time>
      </trkpt>
      <trkpt lat="46.22056" lon="4.76636">
        <ele>219.80000305176</ele>
        <time>2020-05-26T12:30:49.000Z</time>
      </trkpt>
      <trkpt lat="46.22129" lon="4.76681">
        <ele>218</ele>
        <time>2020-05-26T12:31:03.000Z</time>
      </trkpt>
      <trkpt lat="46.22139" lon="4.76686">
        <ele>217.80000305176</ele>
        <time>2020-05-26T12:31:05.000Z</time>
      </trkpt>
      <trkpt lat="46.22153" lon="4.76694">
        <ele>217.80000305176</ele>
        <time>2020-05-26T12:31:09.000Z</time>
      </trkpt>
      <trkpt lat="46.22169" lon="4.76705">
        <ele>218</ele>
        <time>2020-05-26T12:31:13.000Z</time>
      </trkpt>
      <trkpt lat="46.2219" lon="4.76716">
        <ele>218.39999389648</ele>
        <time>2020-05-26T12:31:19.000Z</time>
      </trkpt>
      <trkpt lat="46.22193" lon="4.76715">
        <ele>218.60000610352</ele>
        <time>2020-05-26T12:31:21.000Z</time>
      </trkpt>
      <trkpt lat="46.22195" lon="4.76711">
        <ele>218.60000610352</ele>
        <time>2020-05-26T12:31:22.000Z</time>
      </trkpt>
      <trkpt lat="46.22196" lon="4.76707">
        <ele>218.80000305176</ele>
        <time>2020-05-26T12:31:23.000Z</time>
      </trkpt>
      <trkpt lat="46.22198" lon="4.76701">
        <ele>218.80000305176</ele>
        <time>2020-05-26T12:31:24.000Z</time>
      </trkpt>
      <trkpt lat="46.22233" lon="4.76574">
        <ele>220.60000610352</ele>
        <time>2020-05-26T12:31:40.000Z</time>
      </trkpt>
      <trkpt lat="46.22269" lon="4.76444">
        <ele>223.80000305176</ele>
        <time>2020-05-26T12:31:56.000Z</time>
      </trkpt>
      <trkpt lat="46.22298" lon="4.76342">
        <ele>227</ele>
        <time>2020-05-26T12:32:09.000Z</time>
      </trkpt>
      <trkpt lat="46.22314" lon="4.76287">
        <ele>230.39999389648</ele>
        <time>2020-05-26T12:32:16.000Z</time>
      </trkpt>
      <trkpt lat="46.22328" lon="4.76235">
        <ele>233.39999389648</ele>
        <time>2020-05-26T12:32:23.000Z</time>
      </trkpt>
      <trkpt lat="46.22333" lon="4.76219">
        <ele>234.19999694824</ele>
        <time>2020-05-26T12:32:25.000Z</time>
      </trkpt>
      <trkpt lat="46.22353" lon="4.76149">
        <ele>237.60000610352</ele>
        <time>2020-05-26T12:32:36.000Z</time>
      </trkpt>
      <trkpt lat="46.22354" lon="4.76146">
        <ele>238.19999694824</ele>
        <time>2020-05-26T12:32:37.000Z</time>
      </trkpt>
      <trkpt lat="46.22391" lon="4.76162">
        <ele>238.39999389648</ele>
        <time>2020-05-26T12:32:45.000Z</time>
      </trkpt>
      <trkpt lat="46.22453" lon="4.76199">
        <ele>238.19999694824</ele>
        <time>2020-05-26T12:32:56.000Z</time>
      </trkpt>
      <trkpt lat="46.2247" lon="4.76208">
        <ele>239.60000610352</ele>
        <time>2020-05-26T12:33:01.000Z</time>
      </trkpt>
      <trkpt lat="46.22472" lon="4.76214">
        <ele>240.39999389648</ele>
        <time>2020-05-26T12:33:03.000Z</time>
      </trkpt>
      <trkpt lat="46.22457" lon="4.76264">
        <ele>240.80000305176</ele>
        <time>2020-05-26T12:33:10.000Z</time>
      </trkpt>
      <trkpt lat="46.22462" lon="4.76289">
        <ele>240.60000610352</ele>
        <time>2020-05-26T12:33:15.000Z</time>
      </trkpt>
      <trkpt lat="46.22501" lon="4.76314">
        <ele>239.60000610352</ele>
        <time>2020-05-26T12:33:22.000Z</time>
      </trkpt>
      <trkpt lat="46.22521" lon="4.76311">
        <ele>237.19999694824</ele>
        <time>2020-05-26T12:33:26.000Z</time>
      </trkpt>
      <trkpt lat="46.22525" lon="4.76305">
        <ele>237.19999694824</ele>
        <time>2020-05-26T12:33:27.000Z</time>
      </trkpt>
      <trkpt lat="46.22548" lon="4.76276">
        <ele>237</ele>
        <time>2020-05-26T12:33:32.000Z</time>
      </trkpt>
      <trkpt lat="46.22575" lon="4.7627">
        <ele>237.39999389648</ele>
        <time>2020-05-26T12:33:37.000Z</time>
      </trkpt>
      <trkpt lat="46.22658" lon="4.76319">
        <ele>236</ele>
        <time>2020-05-26T12:33:50.000Z</time>
      </trkpt>
      <trkpt lat="46.22744" lon="4.76364">
        <ele>232.80000305176</ele>
        <time>2020-05-26T12:34:04.000Z</time>
      </trkpt>
      <trkpt lat="46.22758" lon="4.7637">
        <ele>232</ele>
        <time>2020-05-26T12:34:06.000Z</time>
      </trkpt>
      <trkpt lat="46.22771" lon="4.76379">
        <ele>231.19999694824</ele>
        <time>2020-05-26T12:34:08.000Z</time>
      </trkpt>
      <trkpt lat="46.22802" lon="4.76412">
        <ele>229</ele>
        <time>2020-05-26T12:34:14.000Z</time>
      </trkpt>
      <trkpt lat="46.22827" lon="4.76429">
        <ele>228.60000610352</ele>
        <time>2020-05-26T12:34:19.000Z</time>
      </trkpt>
      <trkpt lat="46.2284" lon="4.76433">
        <ele>228.60000610352</ele>
        <time>2020-05-26T12:34:23.000Z</time>
      </trkpt>
      <trkpt lat="46.22842" lon="4.76445">
        <ele>229.60000610352</ele>
        <time>2020-05-26T12:34:28.000Z</time>
      </trkpt>
      <trkpt lat="46.22842" lon="4.7645">
        <ele>232.39999389648</ele>
        <time>2020-05-26T12:34:34.000Z</time>
      </trkpt>
      <trkpt lat="46.22842" lon="4.7645">
        <ele>232.60000610352</ele>
        <time>2020-05-26T12:34:35.000Z</time>
      </trkpt>
      <trkpt lat="46.22842" lon="4.76457">
        <ele>232.60000610352</ele>
        <time>2020-05-26T12:35:10.000Z</time>
      </trkpt>
      <trkpt lat="46.22842" lon="4.76462">
        <ele>232.60000610352</ele>
        <time>2020-05-26T12:35:11.000Z</time>
      </trkpt>
      <trkpt lat="46.22843" lon="4.76485">
        <ele>231.80000305176</ele>
        <time>2020-05-26T12:35:22.000Z</time>
      </trkpt>
      <trkpt lat="46.22844" lon="4.76468">
        <ele>231.80000305176</ele>
        <time>2020-05-26T12:35:28.000Z</time>
      </trkpt>
      <trkpt lat="46.22842" lon="4.76449">
        <ele>231.80000305176</ele>
        <time>2020-05-26T12:35:31.000Z</time>
      </trkpt>
      <trkpt lat="46.22843" lon="4.76432">
        <ele>231.80000305176</ele>
        <time>2020-05-26T12:35:35.000Z</time>
      </trkpt>
      <trkpt lat="46.22849" lon="4.76427">
        <ele>231.80000305176</ele>
        <time>2020-05-26T12:35:37.000Z</time>
      </trkpt>
      <trkpt lat="46.22926" lon="4.76385">
        <ele>233</ele>
        <time>2020-05-26T12:35:51.000Z</time>
      </trkpt>
      <trkpt lat="46.22992" lon="4.76347">
        <ele>236</ele>
        <time>2020-05-26T12:36:03.000Z</time>
      </trkpt>
      <trkpt lat="46.22998" lon="4.76344">
        <ele>236.39999389648</ele>
        <time>2020-05-26T12:36:04.000Z</time>
      </trkpt>
      <trkpt lat="46.2307" lon="4.76305">
        <ele>238.80000305176</ele>
        <time>2020-05-26T12:36:17.000Z</time>
      </trkpt>
      <trkpt lat="46.23147" lon="4.76299">
        <ele>241.39999389648</ele>
        <time>2020-05-26T12:36:30.000Z</time>
      </trkpt>
      <trkpt lat="46.23237" lon="4.76299">
        <ele>244.39999389648</ele>
        <time>2020-05-26T12:36:45.000Z</time>
      </trkpt>
      <trkpt lat="46.23284" lon="4.76299">
        <ele>246.60000610352</ele>
        <time>2020-05-26T12:36:53.000Z</time>
      </trkpt>
      <trkpt lat="46.23334" lon="4.76298">
        <ele>249.80000305176</ele>
        <time>2020-05-26T12:37:04.000Z</time>
      </trkpt>
      <trkpt lat="46.23336" lon="4.76298">
        <ele>249.80000305176</ele>
        <time>2020-05-26T12:37:05.000Z</time>
      </trkpt>
      <trkpt lat="46.23338" lon="4.76298">
        <ele>252</ele>
        <time>2020-05-26T12:37:10.000Z</time>
      </trkpt>
      <trkpt lat="46.23338" lon="4.76298">
        <ele>252.39999389648</ele>
        <time>2020-05-26T12:37:11.000Z</time>
      </trkpt>
      <trkpt lat="46.23336" lon="4.76312">
        <ele>254</ele>
        <time>2020-05-26T12:37:20.000Z</time>
      </trkpt>
      <trkpt lat="46.23335" lon="4.76324">
        <ele>254</ele>
        <time>2020-05-26T12:37:22.000Z</time>
      </trkpt>
      <trkpt lat="46.23325" lon="4.76391">
        <ele>250.39999389648</ele>
        <time>2020-05-26T12:37:31.000Z</time>
      </trkpt>
      <trkpt lat="46.23324" lon="4.76398">
        <ele>249.80000305176</ele>
        <time>2020-05-26T12:37:32.000Z</time>
      </trkpt>
      <trkpt lat="46.23321" lon="4.7642">
        <ele>245.80000305176</ele>
        <time>2020-05-26T12:37:37.000Z</time>
      </trkpt>
      <trkpt lat="46.23329" lon="4.76426">
        <ele>243</ele>
        <time>2020-05-26T12:37:41.000Z</time>
      </trkpt>
      <trkpt lat="46.23407" lon="4.76427">
        <ele>239</ele>
        <time>2020-05-26T12:37:55.000Z</time>
      </trkpt>
      <trkpt lat="46.23512" lon="4.76431">
        <ele>238.60000610352</ele>
        <time>2020-05-26T12:38:12.000Z</time>
      </trkpt>
      <trkpt lat="46.23613" lon="4.76417">
        <ele>237.80000305176</ele>
        <time>2020-05-26T12:38:29.000Z</time>
      </trkpt>
      <trkpt lat="46.23657" lon="4.76405">
        <ele>237.19999694824</ele>
        <time>2020-05-26T12:38:37.000Z</time>
      </trkpt>
      <trkpt lat="46.23673" lon="4.76394">
        <ele>236.80000305176</ele>
        <time>2020-05-26T12:38:41.000Z</time>
      </trkpt>
      <trkpt lat="46.23688" lon="4.76384">
        <ele>236.80000305176</ele>
        <time>2020-05-26T12:38:45.000Z</time>
      </trkpt>
      <trkpt lat="46.23704" lon="4.76374">
        <ele>237</ele>
        <time>2020-05-26T12:38:48.000Z</time>
      </trkpt>
      <trkpt lat="46.2376" lon="4.76348">
        <ele>237</ele>
        <time>2020-05-26T12:38:58.000Z</time>
      </trkpt>
      <trkpt lat="46.23847" lon="4.76306">
        <ele>236.19999694824</ele>
        <time>2020-05-26T12:39:13.000Z</time>
      </trkpt>
      <trkpt lat="46.23917" lon="4.76272">
        <ele>236.60000610352</ele>
        <time>2020-05-26T12:39:27.000Z</time>
      </trkpt>
      <trkpt lat="46.23952" lon="4.76318">
        <ele>236.60000610352</ele>
        <time>2020-05-26T12:39:35.000Z</time>
      </trkpt>
      <trkpt lat="46.23978" lon="4.76359">
        <ele>233.39999389648</ele>
        <time>2020-05-26T12:39:42.000Z</time>
      </trkpt>
      <trkpt lat="46.24018" lon="4.7642">
        <ele>230.39999389648</ele>
        <time>2020-05-26T12:39:50.000Z</time>
      </trkpt>
      <trkpt lat="46.24031" lon="4.76441">
        <ele>228</ele>
        <time>2020-05-26T12:39:54.000Z</time>
      </trkpt>
      <trkpt lat="46.24033" lon="4.76444">
        <ele>227</ele>
        <time>2020-05-26T12:40:00.000Z</time>
      </trkpt>
      <trkpt lat="46.2404" lon="4.76452">
        <ele>226.80000305176</ele>
        <time>2020-05-26T12:40:05.000Z</time>
      </trkpt>
      <trkpt lat="46.24043" lon="4.76457">
        <ele>226.80000305176</ele>
        <time>2020-05-26T12:40:06.000Z</time>
      </trkpt>
      <trkpt lat="46.24089" lon="4.76526">
        <ele>224.80000305176</ele>
        <time>2020-05-26T12:40:16.000Z</time>
      </trkpt>
      <trkpt lat="46.24105" lon="4.76549">
        <ele>222.60000610352</ele>
        <time>2020-05-26T12:40:19.000Z</time>
      </trkpt>
      <trkpt lat="46.2411" lon="4.76557">
        <ele>222.60000610352</ele>
        <time>2020-05-26T12:40:20.000Z</time>
      </trkpt>
      <trkpt lat="46.24114" lon="4.76563">
        <ele>221.60000610352</ele>
        <time>2020-05-26T12:40:21.000Z</time>
      </trkpt>
      <trkpt lat="46.24124" lon="4.76569">
        <ele>220.80000305176</ele>
        <time>2020-05-26T12:40:23.000Z</time>
      </trkpt>
      <trkpt lat="46.24151" lon="4.7657">
        <ele>219.19999694824</ele>
        <time>2020-05-26T12:40:27.000Z</time>
      </trkpt>
      <trkpt lat="46.24216" lon="4.766">
        <ele>215.80000305176</ele>
        <time>2020-05-26T12:40:37.000Z</time>
      </trkpt>
      <trkpt lat="46.24234" lon="4.7661">
        <ele>214.39999389648</ele>
        <time>2020-05-26T12:40:40.000Z</time>
      </trkpt>
      <trkpt lat="46.24246" lon="4.76617">
        <ele>213.19999694824</ele>
        <time>2020-05-26T12:40:43.000Z</time>
      </trkpt>
      <trkpt lat="46.24261" lon="4.76609">
        <ele>211.19999694824</ele>
        <time>2020-05-26T12:40:47.000Z</time>
      </trkpt>
      <trkpt lat="46.24267" lon="4.76598">
        <ele>209.80000305176</ele>
        <time>2020-05-26T12:40:49.000Z</time>
      </trkpt>
      <trkpt lat="46.24303" lon="4.76572">
        <ele>206</ele>
        <time>2020-05-26T12:40:57.000Z</time>
      </trkpt>
      <trkpt lat="46.24327" lon="4.76571">
        <ele>203.80000305176</ele>
        <time>2020-05-26T12:41:01.000Z</time>
      </trkpt>
      <trkpt lat="46.24353" lon="4.76559">
        <ele>203.19999694824</ele>
        <time>2020-05-26T12:41:05.000Z</time>
      </trkpt>
      <trkpt lat="46.24366" lon="4.76551">
        <ele>202.80000305176</ele>
        <time>2020-05-26T12:41:07.000Z</time>
      </trkpt>
      <trkpt lat="46.24396" lon="4.76521">
        <ele>201.19999694824</ele>
        <time>2020-05-26T12:41:12.000Z</time>
      </trkpt>
      <trkpt lat="46.24431" lon="4.76497">
        <ele>200.39999389648</ele>
        <time>2020-05-26T12:41:21.000Z</time>
      </trkpt>
      <trkpt lat="46.2445" lon="4.76502">
        <ele>201</ele>
        <time>2020-05-26T12:41:29.000Z</time>
      </trkpt>
      <trkpt lat="46.24493" lon="4.76517">
        <ele>201.39999389648</ele>
        <time>2020-05-26T12:41:39.000Z</time>
      </trkpt>
      <trkpt lat="46.24509" lon="4.76491">
        <ele>201.80000305176</ele>
        <time>2020-05-26T12:41:44.000Z</time>
      </trkpt>
      <trkpt lat="46.24562" lon="4.76385">
        <ele>202.60000610352</ele>
        <time>2020-05-26T12:41:59.000Z</time>
      </trkpt>
      <trkpt lat="46.24615" lon="4.76288">
        <ele>204.39999389648</ele>
        <time>2020-05-26T12:42:14.000Z</time>
      </trkpt>
      <trkpt lat="46.24628" lon="4.7628">
        <ele>205.60000610352</ele>
        <time>2020-05-26T12:42:20.000Z</time>
      </trkpt>
      <trkpt lat="46.2464" lon="4.76273">
        <ele>207.39999389648</ele>
        <time>2020-05-26T12:42:23.000Z</time>
      </trkpt>
      <trkpt lat="46.24645" lon="4.76268">
        <ele>207.60000610352</ele>
        <time>2020-05-26T12:42:24.000Z</time>
      </trkpt>
      <trkpt lat="46.24731" lon="4.76163">
        <ele>211.19999694824</ele>
        <time>2020-05-26T12:42:43.000Z</time>
      </trkpt>
      <trkpt lat="46.24735" lon="4.76158">
        <ele>211.19999694824</ele>
        <time>2020-05-26T12:42:44.000Z</time>
      </trkpt>
      <trkpt lat="46.24767" lon="4.76119">
        <ele>214.39999389648</ele>
        <time>2020-05-26T12:42:51.000Z</time>
      </trkpt>
      <trkpt lat="46.24816" lon="4.76058">
        <ele>218.19999694824</ele>
        <time>2020-05-26T12:43:02.000Z</time>
      </trkpt>
      <trkpt lat="46.24851" lon="4.76015">
        <ele>221.19999694824</ele>
        <time>2020-05-26T12:43:10.000Z</time>
      </trkpt>
      <trkpt lat="46.24885" lon="4.75977">
        <ele>224.60000610352</ele>
        <time>2020-05-26T12:43:17.000Z</time>
      </trkpt>
      <trkpt lat="46.24913" lon="4.75945">
        <ele>226</ele>
        <time>2020-05-26T12:43:23.000Z</time>
      </trkpt>
      <trkpt lat="46.24985" lon="4.7582">
        <ele>229.39999389648</ele>
        <time>2020-05-26T12:43:42.000Z</time>
      </trkpt>
      <trkpt lat="46.25026" lon="4.75751">
        <ele>232.80000305176</ele>
        <time>2020-05-26T12:43:53.000Z</time>
      </trkpt>
      <trkpt lat="46.25055" lon="4.75705">
        <ele>236</ele>
        <time>2020-05-26T12:44:01.000Z</time>
      </trkpt>
      <trkpt lat="46.25098" lon="4.75648">
        <ele>238.39999389648</ele>
        <time>2020-05-26T12:44:11.000Z</time>
      </trkpt>
      <trkpt lat="46.25159" lon="4.75604">
        <ele>240.60000610352</ele>
        <time>2020-05-26T12:44:23.000Z</time>
      </trkpt>
      <trkpt lat="46.25165" lon="4.75602">
        <ele>241</ele>
        <time>2020-05-26T12:44:24.000Z</time>
      </trkpt>
      <trkpt lat="46.2517" lon="4.75601">
        <ele>241</ele>
        <time>2020-05-26T12:44:25.000Z</time>
      </trkpt>
      <trkpt lat="46.25203" lon="4.75583">
        <ele>241.80000305176</ele>
        <time>2020-05-26T12:44:31.000Z</time>
      </trkpt>
      <trkpt lat="46.25215" lon="4.75568">
        <ele>242.60000610352</ele>
        <time>2020-05-26T12:44:34.000Z</time>
      </trkpt>
      <trkpt lat="46.25226" lon="4.75548">
        <ele>243.39999389648</ele>
        <time>2020-05-26T12:44:40.000Z</time>
      </trkpt>
      <trkpt lat="46.2523" lon="4.75544">
        <ele>244</ele>
        <time>2020-05-26T12:44:42.000Z</time>
      </trkpt>
      <trkpt lat="46.25226" lon="4.7554">
        <ele>245.60000610352</ele>
        <time>2020-05-26T12:44:50.000Z</time>
      </trkpt>
      <trkpt lat="46.2522" lon="4.75556">
        <ele>246</ele>
        <time>2020-05-26T12:44:54.000Z</time>
      </trkpt>
      <trkpt lat="46.25179" lon="4.75593">
        <ele>246</ele>
        <time>2020-05-26T12:45:08.000Z</time>
      </trkpt>
      <trkpt lat="46.25174" lon="4.75597">
        <ele>245.80000305176</ele>
        <time>2020-05-26T12:45:10.000Z</time>
      </trkpt>
      <trkpt lat="46.25173" lon="4.75612">
        <ele>245.19999694824</ele>
        <time>2020-05-26T12:45:14.000Z</time>
      </trkpt>
      <trkpt lat="46.25176" lon="4.75616">
        <ele>245.19999694824</ele>
        <time>2020-05-26T12:45:15.000Z</time>
      </trkpt>
      <trkpt lat="46.25178" lon="4.7562">
        <ele>245.19999694824</ele>
        <time>2020-05-26T12:45:16.000Z</time>
      </trkpt>
      <trkpt lat="46.252" lon="4.7567">
        <ele>242.80000305176</ele>
        <time>2020-05-26T12:45:29.000Z</time>
      </trkpt>
      <trkpt lat="46.25217" lon="4.75718">
        <ele>239.60000610352</ele>
        <time>2020-05-26T12:45:40.000Z</time>
      </trkpt>
      <trkpt lat="46.25231" lon="4.75744">
        <ele>236.80000305176</ele>
        <time>2020-05-26T12:45:45.000Z</time>
      </trkpt>
      <trkpt lat="46.25233" lon="4.75771">
        <ele>233.19999694824</ele>
        <time>2020-05-26T12:45:50.000Z</time>
      </trkpt>
      <trkpt lat="46.25231" lon="4.75782">
        <ele>231.60000610352</ele>
        <time>2020-05-26T12:45:52.000Z</time>
      </trkpt>
      <trkpt lat="46.25213" lon="4.75826">
        <ele>227.80000305176</ele>
        <time>2020-05-26T12:45:59.000Z</time>
      </trkpt>
      <trkpt lat="46.25211" lon="4.75838">
        <ele>226.60000610352</ele>
        <time>2020-05-26T12:46:02.000Z</time>
      </trkpt>
      <trkpt lat="46.25212" lon="4.75851">
        <ele>224.60000610352</ele>
        <time>2020-05-26T12:46:10.000Z</time>
      </trkpt>
      <trkpt lat="46.25219" lon="4.75869">
        <ele>224.39999389648</ele>
        <time>2020-05-26T12:46:14.000Z</time>
      </trkpt>
      <trkpt lat="46.25258" lon="4.7597">
        <ele>224.60000610352</ele>
        <time>2020-05-26T12:46:29.000Z</time>
      </trkpt>
      <trkpt lat="46.25284" lon="4.7603">
        <ele>228.19999694824</ele>
        <time>2020-05-26T12:46:41.000Z</time>
      </trkpt>
      <trkpt lat="46.25285" lon="4.7603">
        <ele>231.39999389648</ele>
        <time>2020-05-26T12:46:44.000Z</time>
      </trkpt>
      <trkpt lat="46.25289" lon="4.76037">
        <ele>235.80000305176</ele>
        <time>2020-05-26T12:46:49.000Z</time>
      </trkpt>
      <trkpt lat="46.25333" lon="4.76109">
        <ele>237.39999389648</ele>
        <time>2020-05-26T12:47:02.000Z</time>
      </trkpt>
      <trkpt lat="46.25356" lon="4.76161">
        <ele>240.60000610352</ele>
        <time>2020-05-26T12:47:11.000Z</time>
      </trkpt>
      <trkpt lat="46.25368" lon="4.76182">
        <ele>242.39999389648</ele>
        <time>2020-05-26T12:47:17.000Z</time>
      </trkpt>
      <trkpt lat="46.25423" lon="4.76298">
        <ele>243.19999694824</ele>
        <time>2020-05-26T12:47:34.000Z</time>
      </trkpt>
      <trkpt lat="46.25434" lon="4.76318">
        <ele>243</ele>
        <time>2020-05-26T12:47:37.000Z</time>
      </trkpt>
      <trkpt lat="46.25456" lon="4.76342">
        <ele>242.19999694824</ele>
        <time>2020-05-26T12:47:42.000Z</time>
      </trkpt>
      <trkpt lat="46.25536" lon="4.76388">
        <ele>241.60000610352</ele>
        <time>2020-05-26T12:47:57.000Z</time>
      </trkpt>
      <trkpt lat="46.2558" lon="4.76403">
        <ele>243.80000305176</ele>
        <time>2020-05-26T12:48:05.000Z</time>
      </trkpt>
      <trkpt lat="46.25598" lon="4.76414">
        <ele>244.60000610352</ele>
        <time>2020-05-26T12:48:09.000Z</time>
      </trkpt>
      <trkpt lat="46.25644" lon="4.76466">
        <ele>246</ele>
        <time>2020-05-26T12:48:21.000Z</time>
      </trkpt>
      <trkpt lat="46.25674" lon="4.76517">
        <ele>243.60000610352</ele>
        <time>2020-05-26T12:48:29.000Z</time>
      </trkpt>
      <trkpt lat="46.25692" lon="4.76582">
        <ele>239.39999389648</ele>
        <time>2020-05-26T12:48:36.000Z</time>
      </trkpt>
      <trkpt lat="46.25702" lon="4.76621">
        <ele>235.19999694824</ele>
        <time>2020-05-26T12:48:41.000Z</time>
      </trkpt>
      <trkpt lat="46.25704" lon="4.76625">
        <ele>234.39999389648</ele>
        <time>2020-05-26T12:48:42.000Z</time>
      </trkpt>
      <trkpt lat="46.25719" lon="4.7663">
        <ele>232.39999389648</ele>
        <time>2020-05-26T12:48:46.000Z</time>
      </trkpt>
      <trkpt lat="46.25756" lon="4.76638">
        <ele>229.80000305176</ele>
        <time>2020-05-26T12:48:54.000Z</time>
      </trkpt>
      <trkpt lat="46.25763" lon="4.76636">
        <ele>229.39999389648</ele>
        <time>2020-05-26T12:48:56.000Z</time>
      </trkpt>
      <trkpt lat="46.25772" lon="4.76571">
        <ele>229.39999389648</ele>
        <time>2020-05-26T12:49:06.000Z</time>
      </trkpt>
      <trkpt lat="46.25777" lon="4.76532">
        <ele>231</ele>
        <time>2020-05-26T12:49:12.000Z</time>
      </trkpt>
      <trkpt lat="46.25782" lon="4.76515">
        <ele>232.80000305176</ele>
        <time>2020-05-26T12:49:15.000Z</time>
      </trkpt>
      <trkpt lat="46.25795" lon="4.76493">
        <ele>237</ele>
        <time>2020-05-26T12:49:20.000Z</time>
      </trkpt>
      <trkpt lat="46.25799" lon="4.7649">
        <ele>237.39999389648</ele>
        <time>2020-05-26T12:49:21.000Z</time>
      </trkpt>
      <trkpt lat="46.25818" lon="4.76477">
        <ele>240</ele>
        <time>2020-05-26T12:49:26.000Z</time>
      </trkpt>
      <trkpt lat="46.25846" lon="4.76456">
        <ele>243.19999694824</ele>
        <time>2020-05-26T12:49:33.000Z</time>
      </trkpt>
      <trkpt lat="46.25857" lon="4.76447">
        <ele>245.39999389648</ele>
        <time>2020-05-26T12:49:36.000Z</time>
      </trkpt>
      <trkpt lat="46.2588" lon="4.76418">
        <ele>249</ele>
        <time>2020-05-26T12:49:43.000Z</time>
      </trkpt>
      <trkpt lat="46.25886" lon="4.76409">
        <ele>249.60000610352</ele>
        <time>2020-05-26T12:49:45.000Z</time>
      </trkpt>
      <trkpt lat="46.25895" lon="4.76387">
        <ele>251</ele>
        <time>2020-05-26T12:49:49.000Z</time>
      </trkpt>
      <trkpt lat="46.25908" lon="4.76325">
        <ele>255.19999694824</ele>
        <time>2020-05-26T12:49:59.000Z</time>
      </trkpt>
      <trkpt lat="46.25914" lon="4.7628">
        <ele>258.60000610352</ele>
        <time>2020-05-26T12:50:06.000Z</time>
      </trkpt>
      <trkpt lat="46.25914" lon="4.76247">
        <ele>261.60000610352</ele>
        <time>2020-05-26T12:50:12.000Z</time>
      </trkpt>
      <trkpt lat="46.25915" lon="4.76244">
        <ele>262</ele>
        <time>2020-05-26T12:50:13.000Z</time>
      </trkpt>
      <trkpt lat="46.25929" lon="4.76244">
        <ele>266.39999389648</ele>
        <time>2020-05-26T12:50:19.000Z</time>
      </trkpt>
      <trkpt lat="46.25941" lon="4.76246">
        <ele>268.20001220703</ele>
        <time>2020-05-26T12:50:22.000Z</time>
      </trkpt>
      <trkpt lat="46.26002" lon="4.76258">
        <ele>268</ele>
        <time>2020-05-26T12:50:36.000Z</time>
      </trkpt>
      <trkpt lat="46.26021" lon="4.76262">
        <ele>267.79998779297</ele>
        <time>2020-05-26T12:50:40.000Z</time>
      </trkpt>
      <trkpt lat="46.26042" lon="4.76254">
        <ele>267.79998779297</ele>
        <time>2020-05-26T12:50:45.000Z</time>
      </trkpt>
      <trkpt lat="46.26078" lon="4.7626">
        <ele>269</ele>
        <time>2020-05-26T12:50:55.000Z</time>
      </trkpt>
      <trkpt lat="46.2609" lon="4.76269">
        <ele>269.79998779297</ele>
        <time>2020-05-26T12:50:59.000Z</time>
      </trkpt>
      <trkpt lat="46.26096" lon="4.76261">
        <ele>270.60000610352</ele>
        <time>2020-05-26T12:51:03.000Z</time>
      </trkpt>
      <trkpt lat="46.26101" lon="4.76233">
        <ele>271.60000610352</ele>
        <time>2020-05-26T12:51:09.000Z</time>
      </trkpt>
      <trkpt lat="46.26113" lon="4.76168">
        <ele>274.79998779297</ele>
        <time>2020-05-26T12:51:19.000Z</time>
      </trkpt>
      <trkpt lat="46.26118" lon="4.76144">
        <ele>276.20001220703</ele>
        <time>2020-05-26T12:51:23.000Z</time>
      </trkpt>
      <trkpt lat="46.26122" lon="4.76126">
        <ele>277.39999389648</ele>
        <time>2020-05-26T12:51:26.000Z</time>
      </trkpt>
      <trkpt lat="46.26127" lon="4.76103">
        <ele>278.60000610352</ele>
        <time>2020-05-26T12:51:30.000Z</time>
      </trkpt>
      <trkpt lat="46.26137" lon="4.76094">
        <ele>279.60000610352</ele>
        <time>2020-05-26T12:51:33.000Z</time>
      </trkpt>
      <trkpt lat="46.26139" lon="4.7609">
        <ele>279.79998779297</ele>
        <time>2020-05-26T12:51:35.000Z</time>
      </trkpt>
      <trkpt lat="46.26132" lon="4.76096">
        <ele>280.79998779297</ele>
        <time>2020-05-26T12:51:39.000Z</time>
      </trkpt>
      <trkpt lat="46.26132" lon="4.76097">
        <ele>282.20001220703</ele>
        <time>2020-05-26T12:51:45.000Z</time>
      </trkpt>
      <trkpt lat="46.26139" lon="4.76091">
        <ele>282.79998779297</ele>
        <time>2020-05-26T12:52:00.000Z</time>
      </trkpt>
      <trkpt lat="46.26172" lon="4.7607">
        <ele>282.60000610352</ele>
        <time>2020-05-26T12:52:08.000Z</time>
      </trkpt>
      <trkpt lat="46.26186" lon="4.76044">
        <ele>281.79998779297</ele>
        <time>2020-05-26T12:52:13.000Z</time>
      </trkpt>
      <trkpt lat="46.26207" lon="4.75938">
        <ele>280.60000610352</ele>
        <time>2020-05-26T12:52:28.000Z</time>
      </trkpt>
      <trkpt lat="46.26229" lon="4.75919">
        <ele>279</ele>
        <time>2020-05-26T12:52:36.000Z</time>
      </trkpt>
      <trkpt lat="46.26228" lon="4.75903">
        <ele>278.79998779297</ele>
        <time>2020-05-26T12:52:38.000Z</time>
      </trkpt>
      <trkpt lat="46.26224" lon="4.7583">
        <ele>276.79998779297</ele>
        <time>2020-05-26T12:52:45.000Z</time>
      </trkpt>
      <trkpt lat="46.26213" lon="4.75736">
        <ele>272.79998779297</ele>
        <time>2020-05-26T12:52:52.000Z</time>
      </trkpt>
      <trkpt lat="46.26211" lon="4.75724">
        <ele>272.39999389648</ele>
        <time>2020-05-26T12:52:53.000Z</time>
      </trkpt>
      <trkpt lat="46.26196" lon="4.75698">
        <ele>267.39999389648</ele>
        <time>2020-05-26T12:52:57.000Z</time>
      </trkpt>
      <trkpt lat="46.26189" lon="4.75698">
        <ele>266</ele>
        <time>2020-05-26T12:52:58.000Z</time>
      </trkpt>
      <trkpt lat="46.2616" lon="4.75697">
        <ele>263</ele>
        <time>2020-05-26T12:53:02.000Z</time>
      </trkpt>
      <trkpt lat="46.26121" lon="4.7567">
        <ele>260.60000610352</ele>
        <time>2020-05-26T12:53:07.000Z</time>
      </trkpt>
      <trkpt lat="46.26114" lon="4.75658">
        <ele>260.39999389648</ele>
        <time>2020-05-26T12:53:08.000Z</time>
      </trkpt>
      <trkpt lat="46.26088" lon="4.75612">
        <ele>259.39999389648</ele>
        <time>2020-05-26T12:53:12.000Z</time>
      </trkpt>
      <trkpt lat="46.2607" lon="4.75561">
        <ele>255.60000610352</ele>
        <time>2020-05-26T12:53:16.000Z</time>
      </trkpt>
      <trkpt lat="46.26068" lon="4.75548">
        <ele>254.39999389648</ele>
        <time>2020-05-26T12:53:17.000Z</time>
      </trkpt>
      <trkpt lat="46.26054" lon="4.75504">
        <ele>249.19999694824</ele>
        <time>2020-05-26T12:53:21.000Z</time>
      </trkpt>
      <trkpt lat="46.2605" lon="4.75495">
        <ele>249.19999694824</ele>
        <time>2020-05-26T12:53:22.000Z</time>
      </trkpt>
      <trkpt lat="46.26043" lon="4.75477">
        <ele>248.80000305176</ele>
        <time>2020-05-26T12:53:24.000Z</time>
      </trkpt>
      <trkpt lat="46.25994" lon="4.75401">
        <ele>251.39999389648</ele>
        <time>2020-05-26T12:53:37.000Z</time>
      </trkpt>
      <trkpt lat="46.2598" lon="4.7538">
        <ele>252.80000305176</ele>
        <time>2020-05-26T12:53:41.000Z</time>
      </trkpt>
      <trkpt lat="46.25988" lon="4.75353">
        <ele>255.19999694824</ele>
        <time>2020-05-26T12:53:47.000Z</time>
      </trkpt>
      <trkpt lat="46.26019" lon="4.75335">
        <ele>257.60000610352</ele>
        <time>2020-05-26T12:53:53.000Z</time>
      </trkpt>
      <trkpt lat="46.26034" lon="4.75312">
        <ele>258.79998779297</ele>
        <time>2020-05-26T12:53:57.000Z</time>
      </trkpt>
      <trkpt lat="46.26046" lon="4.7526">
        <ele>261.60000610352</ele>
        <time>2020-05-26T12:54:04.000Z</time>
      </trkpt>
      <trkpt lat="46.26055" lon="4.75209">
        <ele>265</ele>
        <time>2020-05-26T12:54:11.000Z</time>
      </trkpt>
      <trkpt lat="46.26059" lon="4.75179">
        <ele>268.79998779297</ele>
        <time>2020-05-26T12:54:15.000Z</time>
      </trkpt>
      <trkpt lat="46.26062" lon="4.75164">
        <ele>269.20001220703</ele>
        <time>2020-05-26T12:54:17.000Z</time>
      </trkpt>
      <trkpt lat="46.2608" lon="4.75137">
        <ele>270.39999389648</ele>
        <time>2020-05-26T12:54:22.000Z</time>
      </trkpt>
      <trkpt lat="46.26172" lon="4.75098">
        <ele>272</ele>
        <time>2020-05-26T12:54:39.000Z</time>
      </trkpt>
      <trkpt lat="46.26199" lon="4.75086">
        <ele>272.79998779297</ele>
        <time>2020-05-26T12:54:44.000Z</time>
      </trkpt>
      <trkpt lat="46.26218" lon="4.7506">
        <ele>274.20001220703</ele>
        <time>2020-05-26T12:54:49.000Z</time>
      </trkpt>
      <trkpt lat="46.26229" lon="4.75034">
        <ele>275</ele>
        <time>2020-05-26T12:54:53.000Z</time>
      </trkpt>
      <trkpt lat="46.26249" lon="4.75019">
        <ele>276.60000610352</ele>
        <time>2020-05-26T12:54:58.000Z</time>
      </trkpt>
      <trkpt lat="46.26288" lon="4.7502">
        <ele>277.39999389648</ele>
        <time>2020-05-26T12:55:05.000Z</time>
      </trkpt>
      <trkpt lat="46.26294" lon="4.75021">
        <ele>277.79998779297</ele>
        <time>2020-05-26T12:55:06.000Z</time>
      </trkpt>
      <trkpt lat="46.26369" lon="4.75024">
        <ele>281</ele>
        <time>2020-05-26T12:55:20.000Z</time>
      </trkpt>
      <trkpt lat="46.2641" lon="4.75026">
        <ele>283.39999389648</ele>
        <time>2020-05-26T12:55:28.000Z</time>
      </trkpt>
      <trkpt lat="46.26433" lon="4.74994">
        <ele>286.20001220703</ele>
        <time>2020-05-26T12:55:36.000Z</time>
      </trkpt>
      <trkpt lat="46.26449" lon="4.74964">
        <ele>291</ele>
        <time>2020-05-26T12:55:42.000Z</time>
      </trkpt>
      <trkpt lat="46.26452" lon="4.74959">
        <ele>291</ele>
        <time>2020-05-26T12:55:43.000Z</time>
      </trkpt>
      <trkpt lat="46.26462" lon="4.74938">
        <ele>294.39999389648</ele>
        <time>2020-05-26T12:55:47.000Z</time>
      </trkpt>
      <trkpt lat="46.26473" lon="4.74913">
        <ele>297.39999389648</ele>
        <time>2020-05-26T12:55:52.000Z</time>
      </trkpt>
      <trkpt lat="46.26478" lon="4.74902">
        <ele>298</ele>
        <time>2020-05-26T12:55:54.000Z</time>
      </trkpt>
      <trkpt lat="46.26489" lon="4.74882">
        <ele>300.20001220703</ele>
        <time>2020-05-26T12:55:58.000Z</time>
      </trkpt>
      <trkpt lat="46.26505" lon="4.74847">
        <ele>303.20001220703</ele>
        <time>2020-05-26T12:56:05.000Z</time>
      </trkpt>
      <trkpt lat="46.26512" lon="4.74831">
        <ele>304.60000610352</ele>
        <time>2020-05-26T12:56:08.000Z</time>
      </trkpt>
      <trkpt lat="46.26525" lon="4.74793">
        <ele>308.20001220703</ele>
        <time>2020-05-26T12:56:15.000Z</time>
      </trkpt>
      <trkpt lat="46.26527" lon="4.74787">
        <ele>308.60000610352</ele>
        <time>2020-05-26T12:56:16.000Z</time>
      </trkpt>
      <trkpt lat="46.26535" lon="4.74723">
        <ele>312</ele>
        <time>2020-05-26T12:56:26.000Z</time>
      </trkpt>
      <trkpt lat="46.2654" lon="4.74632">
        <ele>315</ele>
        <time>2020-05-26T12:56:40.000Z</time>
      </trkpt>
      <trkpt lat="46.26545" lon="4.74564">
        <ele>318.60000610352</ele>
        <time>2020-05-26T12:56:51.000Z</time>
      </trkpt>
      <trkpt lat="46.26554" lon="4.74508">
        <ele>322.20001220703</ele>
        <time>2020-05-26T12:57:00.000Z</time>
      </trkpt>
      <trkpt lat="46.26556" lon="4.74495">
        <ele>323.20001220703</ele>
        <time>2020-05-26T12:57:02.000Z</time>
      </trkpt>
      <trkpt lat="46.26569" lon="4.74442">
        <ele>326.20001220703</ele>
        <time>2020-05-26T12:57:11.000Z</time>
      </trkpt>
      <trkpt lat="46.26578" lon="4.744">
        <ele>329.79998779297</ele>
        <time>2020-05-26T12:57:19.000Z</time>
      </trkpt>
      <trkpt lat="46.26584" lon="4.74369">
        <ele>333.60000610352</ele>
        <time>2020-05-26T12:57:25.000Z</time>
      </trkpt>
      <trkpt lat="46.26585" lon="4.74365">
        <ele>333.60000610352</ele>
        <time>2020-05-26T12:57:26.000Z</time>
      </trkpt>
      <trkpt lat="46.26588" lon="4.74356">
        <ele>335.20001220703</ele>
        <time>2020-05-26T12:57:28.000Z</time>
      </trkpt>
      <trkpt lat="46.26592" lon="4.74339">
        <ele>336.60000610352</ele>
        <time>2020-05-26T12:57:32.000Z</time>
      </trkpt>
      <trkpt lat="46.26614" lon="4.74332">
        <ele>340.60000610352</ele>
        <time>2020-05-26T12:57:38.000Z</time>
      </trkpt>
      <trkpt lat="46.26626" lon="4.74329">
        <ele>342</ele>
        <time>2020-05-26T12:57:41.000Z</time>
      </trkpt>
      <trkpt lat="46.26686" lon="4.7431">
        <ele>343.39999389648</ele>
        <time>2020-05-26T12:57:57.000Z</time>
      </trkpt>
      <trkpt lat="46.26728" lon="4.74299">
        <ele>346.60000610352</ele>
        <time>2020-05-26T12:58:08.000Z</time>
      </trkpt>
      <trkpt lat="46.26776" lon="4.74282">
        <ele>349.79998779297</ele>
        <time>2020-05-26T12:58:20.000Z</time>
      </trkpt>
      <trkpt lat="46.26831" lon="4.74263">
        <ele>351.60000610352</ele>
        <time>2020-05-26T12:58:34.000Z</time>
      </trkpt>
      <trkpt lat="46.26858" lon="4.74256">
        <ele>352.20001220703</ele>
        <time>2020-05-26T12:58:41.000Z</time>
      </trkpt>
      <trkpt lat="46.26918" lon="4.74212">
        <ele>355.20001220703</ele>
        <time>2020-05-26T12:58:57.000Z</time>
      </trkpt>
      <trkpt lat="46.2695" lon="4.74184">
        <ele>357.60000610352</ele>
        <time>2020-05-26T12:59:06.000Z</time>
      </trkpt>
      <trkpt lat="46.26984" lon="4.74163">
        <ele>361</ele>
        <time>2020-05-26T12:59:15.000Z</time>
      </trkpt>
      <trkpt lat="46.27012" lon="4.7415">
        <ele>363.79998779297</ele>
        <time>2020-05-26T12:59:23.000Z</time>
      </trkpt>
      <trkpt lat="46.27071" lon="4.74132">
        <ele>364.39999389648</ele>
        <time>2020-05-26T12:59:37.000Z</time>
      </trkpt>
      <trkpt lat="46.27136" lon="4.74145">
        <ele>367.79998779297</ele>
        <time>2020-05-26T12:59:53.000Z</time>
      </trkpt>
      <trkpt lat="46.27174" lon="4.74168">
        <ele>369</ele>
        <time>2020-05-26T13:00:05.000Z</time>
      </trkpt>
      <trkpt lat="46.27185" lon="4.74184">
        <ele>369.60000610352</ele>
        <time>2020-05-26T13:00:08.000Z</time>
      </trkpt>
      <trkpt lat="46.2726" lon="4.74276">
        <ele>368.20001220703</ele>
        <time>2020-05-26T13:00:25.000Z</time>
      </trkpt>
      <trkpt lat="46.27322" lon="4.74343">
        <ele>368.39999389648</ele>
        <time>2020-05-26T13:00:39.000Z</time>
      </trkpt>
      <trkpt lat="46.27326" lon="4.74346">
        <ele>368.39999389648</ele>
        <time>2020-05-26T13:00:40.000Z</time>
      </trkpt>
      <trkpt lat="46.27335" lon="4.74328">
        <ele>368.39999389648</ele>
        <time>2020-05-26T13:00:46.000Z</time>
      </trkpt>
      <trkpt lat="46.27332" lon="4.74312">
        <ele>368.60000610352</ele>
        <time>2020-05-26T13:00:49.000Z</time>
      </trkpt>
      <trkpt lat="46.27327" lon="4.74284">
        <ele>369.60000610352</ele>
        <time>2020-05-26T13:00:54.000Z</time>
      </trkpt>
      <trkpt lat="46.27324" lon="4.74272">
        <ele>370</ele>
        <time>2020-05-26T13:00:56.000Z</time>
      </trkpt>
      <trkpt lat="46.27309" lon="4.74202">
        <ele>373.39999389648</ele>
        <time>2020-05-26T13:01:09.000Z</time>
      </trkpt>
      <trkpt lat="46.27305" lon="4.74193">
        <ele>374</ele>
        <time>2020-05-26T13:01:11.000Z</time>
      </trkpt>
      <trkpt lat="46.27284" lon="4.74129">
        <ele>377.39999389648</ele>
        <time>2020-05-26T13:01:22.000Z</time>
      </trkpt>
      <trkpt lat="46.27279" lon="4.74076">
        <ele>378.79998779297</ele>
        <time>2020-05-26T13:01:31.000Z</time>
      </trkpt>
      <trkpt lat="46.2727" lon="4.74048">
        <ele>380.79998779297</ele>
        <time>2020-05-26T13:01:36.000Z</time>
      </trkpt>
      <trkpt lat="46.27264" lon="4.74011">
        <ele>382.20001220703</ele>
        <time>2020-05-26T13:01:42.000Z</time>
      </trkpt>
      <trkpt lat="46.27255" lon="4.73948">
        <ele>386</ele>
        <time>2020-05-26T13:01:53.000Z</time>
      </trkpt>
      <trkpt lat="46.27254" lon="4.73942">
        <ele>386.39999389648</ele>
        <time>2020-05-26T13:01:54.000Z</time>
      </trkpt>
      <trkpt lat="46.27252" lon="4.73929">
        <ele>387.79998779297</ele>
        <time>2020-05-26T13:01:56.000Z</time>
      </trkpt>
      <trkpt lat="46.27244" lon="4.73882">
        <ele>390.20001220703</ele>
        <time>2020-05-26T13:02:04.000Z</time>
      </trkpt>
      <trkpt lat="46.2724" lon="4.73854">
        <ele>392.20001220703</ele>
        <time>2020-05-26T13:02:09.000Z</time>
      </trkpt>
      <trkpt lat="46.2724" lon="4.73848">
        <ele>392.60000610352</ele>
        <time>2020-05-26T13:02:10.000Z</time>
      </trkpt>
      <trkpt lat="46.27233" lon="4.73802">
        <ele>394.79998779297</ele>
        <time>2020-05-26T13:02:18.000Z</time>
      </trkpt>
      <trkpt lat="46.27231" lon="4.73753">
        <ele>398.20001220703</ele>
        <time>2020-05-26T13:02:27.000Z</time>
      </trkpt>
      <trkpt lat="46.27231" lon="4.73747">
        <ele>398.60000610352</ele>
        <time>2020-05-26T13:02:28.000Z</time>
      </trkpt>
      <trkpt lat="46.27229" lon="4.73722">
        <ele>399.39999389648</ele>
        <time>2020-05-26T13:02:32.000Z</time>
      </trkpt>
      <trkpt lat="46.27227" lon="4.73703">
        <ele>399.60000610352</ele>
        <time>2020-05-26T13:02:35.000Z</time>
      </trkpt>
      <trkpt lat="46.27235" lon="4.73624">
        <ele>402.79998779297</ele>
        <time>2020-05-26T13:02:47.000Z</time>
      </trkpt>
      <trkpt lat="46.27239" lon="4.73611">
        <ele>402.79998779297</ele>
        <time>2020-05-26T13:02:49.000Z</time>
      </trkpt>
      <trkpt lat="46.27244" lon="4.7359">
        <ele>402.79998779297</ele>
        <time>2020-05-26T13:02:52.000Z</time>
      </trkpt>
      <trkpt lat="46.2725" lon="4.73576">
        <ele>402.79998779297</ele>
        <time>2020-05-26T13:02:54.000Z</time>
      </trkpt>
      <trkpt lat="46.27257" lon="4.73543">
        <ele>402</ele>
        <time>2020-05-26T13:02:58.000Z</time>
      </trkpt>
      <trkpt lat="46.27267" lon="4.73508">
        <ele>401.39999389648</ele>
        <time>2020-05-26T13:03:02.000Z</time>
      </trkpt>
      <trkpt lat="46.27272" lon="4.73464">
        <ele>400</ele>
        <time>2020-05-26T13:03:07.000Z</time>
      </trkpt>
      <trkpt lat="46.27289" lon="4.73375">
        <ele>398.60000610352</ele>
        <time>2020-05-26T13:03:17.000Z</time>
      </trkpt>
      <trkpt lat="46.273" lon="4.73351">
        <ele>398.20001220703</ele>
        <time>2020-05-26T13:03:20.000Z</time>
      </trkpt>
      <trkpt lat="46.2735" lon="4.73247">
        <ele>395.79998779297</ele>
        <time>2020-05-26T13:03:33.000Z</time>
      </trkpt>
      <trkpt lat="46.27371" lon="4.73216">
        <ele>394.39999389648</ele>
        <time>2020-05-26T13:03:37.000Z</time>
      </trkpt>
      <trkpt lat="46.27388" lon="4.73174">
        <ele>390.39999389648</ele>
        <time>2020-05-26T13:03:42.000Z</time>
      </trkpt>
      <trkpt lat="46.27392" lon="4.73158">
        <ele>389.79998779297</ele>
        <time>2020-05-26T13:03:44.000Z</time>
      </trkpt>
      <trkpt lat="46.27409" lon="4.73116">
        <ele>388.60000610352</ele>
        <time>2020-05-26T13:03:54.000Z</time>
      </trkpt>
      <trkpt lat="46.27411" lon="4.73111">
        <ele>388.39999389648</ele>
        <time>2020-05-26T13:03:55.000Z</time>
      </trkpt>
      <trkpt lat="46.27417" lon="4.73099">
        <ele>388.20001220703</ele>
        <time>2020-05-26T13:03:57.000Z</time>
      </trkpt>
      <trkpt lat="46.27427" lon="4.73058">
        <ele>387.60000610352</ele>
        <time>2020-05-26T13:04:03.000Z</time>
      </trkpt>
      <trkpt lat="46.2744" lon="4.73042">
        <ele>387.39999389648</ele>
        <time>2020-05-26T13:04:07.000Z</time>
      </trkpt>
      <trkpt lat="46.27508" lon="4.73008">
        <ele>387.39999389648</ele>
        <time>2020-05-26T13:04:23.000Z</time>
      </trkpt>
      <trkpt lat="46.27533" lon="4.73002">
        <ele>388.20001220703</ele>
        <time>2020-05-26T13:04:29.000Z</time>
      </trkpt>
      <trkpt lat="46.27541" lon="4.72999">
        <ele>388.20001220703</ele>
        <time>2020-05-26T13:04:31.000Z</time>
      </trkpt>
      <trkpt lat="46.27567" lon="4.72993">
        <ele>389.60000610352</ele>
        <time>2020-05-26T13:04:38.000Z</time>
      </trkpt>
      <trkpt lat="46.27568" lon="4.72959">
        <ele>390</ele>
        <time>2020-05-26T13:04:45.000Z</time>
      </trkpt>
      <trkpt lat="46.2758" lon="4.72939">
        <ele>390</ele>
        <time>2020-05-26T13:04:50.000Z</time>
      </trkpt>
      <trkpt lat="46.27629" lon="4.72928">
        <ele>388</ele>
        <time>2020-05-26T13:05:00.000Z</time>
      </trkpt>
      <trkpt lat="46.27657" lon="4.72908">
        <ele>387.79998779297</ele>
        <time>2020-05-26T13:05:07.000Z</time>
      </trkpt>
      <trkpt lat="46.27671" lon="4.72919">
        <ele>388</ele>
        <time>2020-05-26T13:05:12.000Z</time>
      </trkpt>
      <trkpt lat="46.27672" lon="4.72951">
        <ele>388.39999389648</ele>
        <time>2020-05-26T13:05:17.000Z</time>
      </trkpt>
      <trkpt lat="46.27687" lon="4.72981">
        <ele>390</ele>
        <time>2020-05-26T13:05:24.000Z</time>
      </trkpt>
      <trkpt lat="46.27706" lon="4.72976">
        <ele>391.39999389648</ele>
        <time>2020-05-26T13:05:29.000Z</time>
      </trkpt>
      <trkpt lat="46.2772" lon="4.72964">
        <ele>392.20001220703</ele>
        <time>2020-05-26T13:05:33.000Z</time>
      </trkpt>
      <trkpt lat="46.27741" lon="4.72966">
        <ele>392.60000610352</ele>
        <time>2020-05-26T13:05:39.000Z</time>
      </trkpt>
      <trkpt lat="46.27751" lon="4.72986">
        <ele>392.60000610352</ele>
        <time>2020-05-26T13:05:44.000Z</time>
      </trkpt>
      <trkpt lat="46.27763" lon="4.72992">
        <ele>392.79998779297</ele>
        <time>2020-05-26T13:05:47.000Z</time>
      </trkpt>
      <trkpt lat="46.27793" lon="4.73">
        <ele>392.20001220703</ele>
        <time>2020-05-26T13:05:54.000Z</time>
      </trkpt>
      <trkpt lat="46.27802" lon="4.73003">
        <ele>392.20001220703</ele>
        <time>2020-05-26T13:05:56.000Z</time>
      </trkpt>
      <trkpt lat="46.27815" lon="4.73004">
        <ele>391.79998779297</ele>
        <time>2020-05-26T13:05:59.000Z</time>
      </trkpt>
      <trkpt lat="46.27833" lon="4.72999">
        <ele>391</ele>
        <time>2020-05-26T13:06:03.000Z</time>
      </trkpt>
      <trkpt lat="46.27905" lon="4.73">
        <ele>389.60000610352</ele>
        <time>2020-05-26T13:06:17.000Z</time>
      </trkpt>
      <trkpt lat="46.27969" lon="4.72986">
        <ele>388.60000610352</ele>
        <time>2020-05-26T13:06:30.000Z</time>
      </trkpt>
      <trkpt lat="46.27988" lon="4.72961">
        <ele>389.79998779297</ele>
        <time>2020-05-26T13:06:41.000Z</time>
      </trkpt>
      <trkpt lat="46.27988" lon="4.72961">
        <ele>390.39999389648</ele>
        <time>2020-05-26T13:06:42.000Z</time>
      </trkpt>
      <trkpt lat="46.27988" lon="4.72951">
        <ele>392.79998779297</ele>
        <time>2020-05-26T13:07:23.000Z</time>
      </trkpt>
      <trkpt lat="46.2799" lon="4.72942">
        <ele>392.79998779297</ele>
        <time>2020-05-26T13:07:25.000Z</time>
      </trkpt>
      <trkpt lat="46.28" lon="4.72909">
        <ele>392.60000610352</ele>
        <time>2020-05-26T13:07:31.000Z</time>
      </trkpt>
      <trkpt lat="46.28022" lon="4.72863">
        <ele>391.20001220703</ele>
        <time>2020-05-26T13:07:40.000Z</time>
      </trkpt>
      <trkpt lat="46.28045" lon="4.72863">
        <ele>390.39999389648</ele>
        <time>2020-05-26T13:07:46.000Z</time>
      </trkpt>
      <trkpt lat="46.28117" lon="4.72919">
        <ele>392.79998779297</ele>
        <time>2020-05-26T13:08:04.000Z</time>
      </trkpt>
      <trkpt lat="46.28141" lon="4.7294">
        <ele>396.20001220703</ele>
        <time>2020-05-26T13:08:10.000Z</time>
      </trkpt>
      <trkpt lat="46.28159" lon="4.72944">
        <ele>398</ele>
        <time>2020-05-26T13:08:14.000Z</time>
      </trkpt>
      <trkpt lat="46.2821" lon="4.72929">
        <ele>401.60000610352</ele>
        <time>2020-05-26T13:08:26.000Z</time>
      </trkpt>
      <trkpt lat="46.28222" lon="4.72925">
        <ele>403</ele>
        <time>2020-05-26T13:08:29.000Z</time>
      </trkpt>
      <trkpt lat="46.28235" lon="4.72922">
        <ele>404.60000610352</ele>
        <time>2020-05-26T13:08:32.000Z</time>
      </trkpt>
      <trkpt lat="46.28243" lon="4.72922">
        <ele>405.20001220703</ele>
        <time>2020-05-26T13:08:34.000Z</time>
      </trkpt>
      <trkpt lat="46.28275" lon="4.72912">
        <ele>407.39999389648</ele>
        <time>2020-05-26T13:08:42.000Z</time>
      </trkpt>
      <trkpt lat="46.28324" lon="4.72891">
        <ele>411</ele>
        <time>2020-05-26T13:08:55.000Z</time>
      </trkpt>
      <trkpt lat="46.28358" lon="4.72876">
        <ele>413.60000610352</ele>
        <time>2020-05-26T13:09:04.000Z</time>
      </trkpt>
      <trkpt lat="46.28392" lon="4.72866">
        <ele>415.39999389648</ele>
        <time>2020-05-26T13:09:13.000Z</time>
      </trkpt>
      <trkpt lat="46.28395" lon="4.72844">
        <ele>416.39999389648</ele>
        <time>2020-05-26T13:09:18.000Z</time>
      </trkpt>
      <trkpt lat="46.28387" lon="4.72816">
        <ele>417.79998779297</ele>
        <time>2020-05-26T13:09:24.000Z</time>
      </trkpt>
      <trkpt lat="46.28415" lon="4.728">
        <ele>420.60000610352</ele>
        <time>2020-05-26T13:09:32.000Z</time>
      </trkpt>
      <trkpt lat="46.28419" lon="4.72798">
        <ele>420.79998779297</ele>
        <time>2020-05-26T13:09:33.000Z</time>
      </trkpt>
      <trkpt lat="46.28508" lon="4.72743">
        <ele>421.79998779297</ele>
        <time>2020-05-26T13:09:54.000Z</time>
      </trkpt>
      <trkpt lat="46.28512" lon="4.7274">
        <ele>421.79998779297</ele>
        <time>2020-05-26T13:09:55.000Z</time>
      </trkpt>
      <trkpt lat="46.2856" lon="4.72738">
        <ele>425.39999389648</ele>
        <time>2020-05-26T13:10:06.000Z</time>
      </trkpt>
      <trkpt lat="46.28583" lon="4.72736">
        <ele>426.39999389648</ele>
        <time>2020-05-26T13:10:11.000Z</time>
      </trkpt>
      <trkpt lat="46.28619" lon="4.72727">
        <ele>428.20001220703</ele>
        <time>2020-05-26T13:10:19.000Z</time>
      </trkpt>
      <trkpt lat="46.28652" lon="4.7272">
        <ele>431.79998779297</ele>
        <time>2020-05-26T13:10:27.000Z</time>
      </trkpt>
      <trkpt lat="46.2866" lon="4.72714">
        <ele>434</ele>
        <time>2020-05-26T13:10:30.000Z</time>
      </trkpt>
      <trkpt lat="46.28675" lon="4.72722">
        <ele>435.39999389648</ele>
        <time>2020-05-26T13:10:34.000Z</time>
      </trkpt>
      <trkpt lat="46.28701" lon="4.72743">
        <ele>437.60000610352</ele>
        <time>2020-05-26T13:10:41.000Z</time>
      </trkpt>
      <trkpt lat="46.28709" lon="4.72748">
        <ele>437.79998779297</ele>
        <time>2020-05-26T13:10:43.000Z</time>
      </trkpt>
      <trkpt lat="46.2873" lon="4.72752">
        <ele>438.60000610352</ele>
        <time>2020-05-26T13:10:48.000Z</time>
      </trkpt>
      <trkpt lat="46.28757" lon="4.72748">
        <ele>439.39999389648</ele>
        <time>2020-05-26T13:11:00.000Z</time>
      </trkpt>
      <trkpt lat="46.28763" lon="4.72747">
        <ele>441.60000610352</ele>
        <time>2020-05-26T13:12:14.000Z</time>
      </trkpt>
      <trkpt lat="46.28766" lon="4.72747">
        <ele>441.60000610352</ele>
        <time>2020-05-26T13:12:20.000Z</time>
      </trkpt>
      <trkpt lat="46.28774" lon="4.72746">
        <ele>442.20001220703</ele>
        <time>2020-05-26T13:13:13.000Z</time>
      </trkpt>
      <trkpt lat="46.28786" lon="4.7274">
        <ele>442.39999389648</ele>
        <time>2020-05-26T13:13:18.000Z</time>
      </trkpt>
      <trkpt lat="46.28802" lon="4.727">
        <ele>443.39999389648</ele>
        <time>2020-05-26T13:13:30.000Z</time>
      </trkpt>
      <trkpt lat="46.28845" lon="4.72611">
        <ele>446</ele>
        <time>2020-05-26T13:13:47.000Z</time>
      </trkpt>
      <trkpt lat="46.28888" lon="4.72523">
        <ele>449.20001220703</ele>
        <time>2020-05-26T13:14:04.000Z</time>
      </trkpt>
      <trkpt lat="46.2889" lon="4.72502">
        <ele>451.60000610352</ele>
        <time>2020-05-26T13:14:08.000Z</time>
      </trkpt>
      <trkpt lat="46.28879" lon="4.72463">
        <ele>455</ele>
        <time>2020-05-26T13:14:16.000Z</time>
      </trkpt>
      <trkpt lat="46.28876" lon="4.72452">
        <ele>456.39999389648</ele>
        <time>2020-05-26T13:14:18.000Z</time>
      </trkpt>
      <trkpt lat="46.28868" lon="4.72407">
        <ele>460.60000610352</ele>
        <time>2020-05-26T13:14:26.000Z</time>
      </trkpt>
      <trkpt lat="46.28863" lon="4.72375">
        <ele>463.79998779297</ele>
        <time>2020-05-26T13:14:32.000Z</time>
      </trkpt>
      <trkpt lat="46.28855" lon="4.72347">
        <ele>467</ele>
        <time>2020-05-26T13:14:38.000Z</time>
      </trkpt>
      <trkpt lat="46.28843" lon="4.72327">
        <ele>468.60000610352</ele>
        <time>2020-05-26T13:14:43.000Z</time>
      </trkpt>
      <trkpt lat="46.28832" lon="4.72311">
        <ele>470.20001220703</ele>
        <time>2020-05-26T13:14:47.000Z</time>
      </trkpt>
      <trkpt lat="46.28805" lon="4.72265">
        <ele>473.60000610352</ele>
        <time>2020-05-26T13:14:58.000Z</time>
      </trkpt>
      <trkpt lat="46.28799" lon="4.72257">
        <ele>474.20001220703</ele>
        <time>2020-05-26T13:15:00.000Z</time>
      </trkpt>
      <trkpt lat="46.28771" lon="4.72215">
        <ele>477.39999389648</ele>
        <time>2020-05-26T13:15:11.000Z</time>
      </trkpt>
      <trkpt lat="46.28766" lon="4.72206">
        <ele>480.60000610352</ele>
        <time>2020-05-26T13:15:16.000Z</time>
      </trkpt>
      <trkpt lat="46.28766" lon="4.72207">
        <ele>482.20001220703</ele>
        <time>2020-05-26T13:15:19.000Z</time>
      </trkpt>
      <trkpt lat="46.28761" lon="4.722">
        <ele>484.79998779297</ele>
        <time>2020-05-26T13:15:44.000Z</time>
      </trkpt>
      <trkpt lat="46.28758" lon="4.72192">
        <ele>484.79998779297</ele>
        <time>2020-05-26T13:15:46.000Z</time>
      </trkpt>
      <trkpt lat="46.28741" lon="4.72153">
        <ele>485.20001220703</ele>
        <time>2020-05-26T13:15:59.000Z</time>
      </trkpt>
      <trkpt lat="46.28741" lon="4.72153">
        <ele>485.79998779297</ele>
        <time>2020-05-26T13:16:03.000Z</time>
      </trkpt>
      <trkpt lat="46.28736" lon="4.72159">
        <ele>486.79998779297</ele>
        <time>2020-05-26T13:16:38.000Z</time>
      </trkpt>
      <trkpt lat="46.28734" lon="4.72158">
        <ele>486.79998779297</ele>
        <time>2020-05-26T13:16:39.000Z</time>
      </trkpt>
      <trkpt lat="46.28724" lon="4.72147">
        <ele>486.79998779297</ele>
        <time>2020-05-26T13:16:45.000Z</time>
      </trkpt>
      <trkpt lat="46.28723" lon="4.72153">
        <ele>486.60000610352</ele>
        <time>2020-05-26T13:16:51.000Z</time>
      </trkpt>
      <trkpt lat="46.28735" lon="4.72161">
        <ele>486.20001220703</ele>
        <time>2020-05-26T13:16:58.000Z</time>
      </trkpt>
      <trkpt lat="46.28739" lon="4.72153">
        <ele>485.79998779297</ele>
        <time>2020-05-26T13:17:03.000Z</time>
      </trkpt>
      <trkpt lat="46.28722" lon="4.72095">
        <ele>485</ele>
        <time>2020-05-26T13:17:15.000Z</time>
      </trkpt>
      <trkpt lat="46.28722" lon="4.72091">
        <ele>484.79998779297</ele>
        <time>2020-05-26T13:17:16.000Z</time>
      </trkpt>
      <trkpt lat="46.28718" lon="4.72082">
        <ele>483.20001220703</ele>
        <time>2020-05-26T13:17:19.000Z</time>
      </trkpt>
      <trkpt lat="46.28698" lon="4.72074">
        <ele>481</ele>
        <time>2020-05-26T13:17:27.000Z</time>
      </trkpt>
      <trkpt lat="46.28687" lon="4.72073">
        <ele>480.39999389648</ele>
        <time>2020-05-26T13:17:31.000Z</time>
      </trkpt>
      <trkpt lat="46.28676" lon="4.72078">
        <ele>479.79998779297</ele>
        <time>2020-05-26T13:17:36.000Z</time>
      </trkpt>
      <trkpt lat="46.28671" lon="4.72078">
        <ele>479.60000610352</ele>
        <time>2020-05-26T13:17:43.000Z</time>
      </trkpt>
      <trkpt lat="46.28664" lon="4.72078">
        <ele>477.60000610352</ele>
        <time>2020-05-26T13:17:56.000Z</time>
      </trkpt>
      <trkpt lat="46.28663" lon="4.72078">
        <ele>477.60000610352</ele>
        <time>2020-05-26T13:18:01.000Z</time>
      </trkpt>
      <trkpt lat="46.28656" lon="4.72081">
        <ele>477.39999389648</ele>
        <time>2020-05-26T13:18:18.000Z</time>
      </trkpt>
      <trkpt lat="46.28652" lon="4.72079">
        <ele>477.39999389648</ele>
        <time>2020-05-26T13:18:20.000Z</time>
      </trkpt>
      <trkpt lat="46.28653" lon="4.72054">
        <ele>475.60000610352</ele>
        <time>2020-05-26T13:18:30.000Z</time>
      </trkpt>
      <trkpt lat="46.28659" lon="4.72041">
        <ele>474</ele>
        <time>2020-05-26T13:18:34.000Z</time>
      </trkpt>
      <trkpt lat="46.28662" lon="4.72035">
        <ele>473.20001220703</ele>
        <time>2020-05-26T13:18:36.000Z</time>
      </trkpt>
      <trkpt lat="46.28675" lon="4.72019">
        <ele>469.20001220703</ele>
        <time>2020-05-26T13:18:43.000Z</time>
      </trkpt>
      <trkpt lat="46.28682" lon="4.72017">
        <ele>466.79998779297</ele>
        <time>2020-05-26T13:18:48.000Z</time>
      </trkpt>
      <trkpt lat="46.28685" lon="4.72016">
        <ele>466.39999389648</ele>
        <time>2020-05-26T13:18:51.000Z</time>
      </trkpt>
      <trkpt lat="46.28688" lon="4.72005">
        <ele>465</ele>
        <time>2020-05-26T13:18:55.000Z</time>
      </trkpt>
      <trkpt lat="46.28694" lon="4.71979">
        <ele>462</ele>
        <time>2020-05-26T13:19:04.000Z</time>
      </trkpt>
      <trkpt lat="46.28694" lon="4.71976">
        <ele>460.39999389648</ele>
        <time>2020-05-26T13:19:09.000Z</time>
      </trkpt>
      <trkpt lat="46.28705" lon="4.71968">
        <ele>460</ele>
        <time>2020-05-26T13:19:18.000Z</time>
      </trkpt>
      <trkpt lat="46.28709" lon="4.71965">
        <ele>460</ele>
        <time>2020-05-26T13:19:20.000Z</time>
      </trkpt>
      <trkpt lat="46.2872" lon="4.71951">
        <ele>458.20001220703</ele>
        <time>2020-05-26T13:19:26.000Z</time>
      </trkpt>
      <trkpt lat="46.28723" lon="4.71945">
        <ele>456</ele>
        <time>2020-05-26T13:19:28.000Z</time>
      </trkpt>
      <trkpt lat="46.28732" lon="4.71919">
        <ele>452</ele>
        <time>2020-05-26T13:19:34.000Z</time>
      </trkpt>
      <trkpt lat="46.28736" lon="4.71915">
        <ele>451.20001220703</ele>
        <time>2020-05-26T13:19:35.000Z</time>
      </trkpt>
      <trkpt lat="46.28737" lon="4.71897">
        <ele>448.60000610352</ele>
        <time>2020-05-26T13:19:40.000Z</time>
      </trkpt>
      <trkpt lat="46.2874" lon="4.71884">
        <ele>448</ele>
        <time>2020-05-26T13:19:43.000Z</time>
      </trkpt>
      <trkpt lat="46.28736" lon="4.71861">
        <ele>444.79998779297</ele>
        <time>2020-05-26T13:19:50.000Z</time>
      </trkpt>
      <trkpt lat="46.28741" lon="4.7186">
        <ele>443.79998779297</ele>
        <time>2020-05-26T13:19:52.000Z</time>
      </trkpt>
      <trkpt lat="46.28757" lon="4.71852">
        <ele>439.60000610352</ele>
        <time>2020-05-26T13:20:00.000Z</time>
      </trkpt>
      <trkpt lat="46.28759" lon="4.7185">
        <ele>438.39999389648</ele>
        <time>2020-05-26T13:20:01.000Z</time>
      </trkpt>
      <trkpt lat="46.28765" lon="4.71849">
        <ele>436.20001220703</ele>
        <time>2020-05-26T13:20:04.000Z</time>
      </trkpt>
      <trkpt lat="46.28806" lon="4.71844">
        <ele>432.20001220703</ele>
        <time>2020-05-26T13:20:11.000Z</time>
      </trkpt>
      <trkpt lat="46.28818" lon="4.71841">
        <ele>430.20001220703</ele>
        <time>2020-05-26T13:20:14.000Z</time>
      </trkpt>
      <trkpt lat="46.28833" lon="4.71838">
        <ele>426.60000610352</ele>
        <time>2020-05-26T13:20:18.000Z</time>
      </trkpt>
      <trkpt lat="46.28861" lon="4.71832">
        <ele>423</ele>
        <time>2020-05-26T13:20:23.000Z</time>
      </trkpt>
      <trkpt lat="46.28885" lon="4.71822">
        <ele>420</ele>
        <time>2020-05-26T13:20:28.000Z</time>
      </trkpt>
      <trkpt lat="46.2892" lon="4.71818">
        <ele>416.79998779297</ele>
        <time>2020-05-26T13:20:35.000Z</time>
      </trkpt>
      <trkpt lat="46.28935" lon="4.71817">
        <ele>414.79998779297</ele>
        <time>2020-05-26T13:20:38.000Z</time>
      </trkpt>
      <trkpt lat="46.28993" lon="4.71819">
        <ele>411</ele>
        <time>2020-05-26T13:20:48.000Z</time>
      </trkpt>
      <trkpt lat="46.29029" lon="4.71828">
        <ele>408</ele>
        <time>2020-05-26T13:20:57.000Z</time>
      </trkpt>
      <trkpt lat="46.29031" lon="4.71828">
        <ele>407.60000610352</ele>
        <time>2020-05-26T13:20:58.000Z</time>
      </trkpt>
      <trkpt lat="46.29033" lon="4.71826">
        <ele>406.39999389648</ele>
        <time>2020-05-26T13:21:02.000Z</time>
      </trkpt>
      <trkpt lat="46.29033" lon="4.7181">
        <ele>405</ele>
        <time>2020-05-26T13:21:07.000Z</time>
      </trkpt>
      <trkpt lat="46.29025" lon="4.71769">
        <ele>404.20001220703</ele>
        <time>2020-05-26T13:21:15.000Z</time>
      </trkpt>
      <trkpt lat="46.29007" lon="4.71693">
        <ele>405.20001220703</ele>
        <time>2020-05-26T13:21:29.000Z</time>
      </trkpt>
      <trkpt lat="46.29001" lon="4.7163">
        <ele>406.60000610352</ele>
        <time>2020-05-26T13:21:39.000Z</time>
      </trkpt>
      <trkpt lat="46.29001" lon="4.71605">
        <ele>406.39999389648</ele>
        <time>2020-05-26T13:21:43.000Z</time>
      </trkpt>
      <trkpt lat="46.29007" lon="4.71526">
        <ele>407</ele>
        <time>2020-05-26T13:21:57.000Z</time>
      </trkpt>
      <trkpt lat="46.29026" lon="4.71479">
        <ele>407.79998779297</ele>
        <time>2020-05-26T13:22:07.000Z</time>
      </trkpt>
      <trkpt lat="46.29039" lon="4.71464">
        <ele>407.79998779297</ele>
        <time>2020-05-26T13:22:11.000Z</time>
      </trkpt>
      <trkpt lat="46.29049" lon="4.71447">
        <ele>407.79998779297</ele>
        <time>2020-05-26T13:22:15.000Z</time>
      </trkpt>
      <trkpt lat="46.29053" lon="4.7144">
        <ele>408</ele>
        <time>2020-05-26T13:22:17.000Z</time>
      </trkpt>
      <trkpt lat="46.29063" lon="4.71434">
        <ele>408</ele>
        <time>2020-05-26T13:22:19.000Z</time>
      </trkpt>
      <trkpt lat="46.29069" lon="4.71417">
        <ele>408.20001220703</ele>
        <time>2020-05-26T13:22:23.000Z</time>
      </trkpt>
      <trkpt lat="46.29081" lon="4.71374">
        <ele>408.79998779297</ele>
        <time>2020-05-26T13:22:32.000Z</time>
      </trkpt>
      <trkpt lat="46.29112" lon="4.71356">
        <ele>407.20001220703</ele>
        <time>2020-05-26T13:22:38.000Z</time>
      </trkpt>
      <trkpt lat="46.2913" lon="4.71363">
        <ele>405.79998779297</ele>
        <time>2020-05-26T13:22:42.000Z</time>
      </trkpt>
      <trkpt lat="46.29138" lon="4.71368">
        <ele>405.60000610352</ele>
        <time>2020-05-26T13:22:44.000Z</time>
      </trkpt>
      <trkpt lat="46.29176" lon="4.71376">
        <ele>406.39999389648</ele>
        <time>2020-05-26T13:22:53.000Z</time>
      </trkpt>
      <trkpt lat="46.29171" lon="4.71354">
        <ele>409</ele>
        <time>2020-05-26T13:22:59.000Z</time>
      </trkpt>
      <trkpt lat="46.29169" lon="4.7135">
        <ele>409.20001220703</ele>
        <time>2020-05-26T13:23:00.000Z</time>
      </trkpt>
      <trkpt lat="46.29152" lon="4.71322">
        <ele>413.20001220703</ele>
        <time>2020-05-26T13:23:07.000Z</time>
      </trkpt>
      <trkpt lat="46.29144" lon="4.71289">
        <ele>416.60000610352</ele>
        <time>2020-05-26T13:23:14.000Z</time>
      </trkpt>
      <trkpt lat="46.29142" lon="4.71254">
        <ele>419.79998779297</ele>
        <time>2020-05-26T13:23:21.000Z</time>
      </trkpt>
      <trkpt lat="46.2915" lon="4.71231">
        <ele>423.20001220703</ele>
        <time>2020-05-26T13:23:28.000Z</time>
      </trkpt>
      <trkpt lat="46.29159" lon="4.71209">
        <ele>426.60000610352</ele>
        <time>2020-05-26T13:23:33.000Z</time>
      </trkpt>
      <trkpt lat="46.29166" lon="4.7116">
        <ele>429.79998779297</ele>
        <time>2020-05-26T13:23:43.000Z</time>
      </trkpt>
      <trkpt lat="46.29166" lon="4.71126">
        <ele>433.20001220703</ele>
        <time>2020-05-26T13:23:50.000Z</time>
      </trkpt>
      <trkpt lat="46.29157" lon="4.71106">
        <ele>436.79998779297</ele>
        <time>2020-05-26T13:23:55.000Z</time>
      </trkpt>
      <trkpt lat="46.29146" lon="4.71086">
        <ele>440</ele>
        <time>2020-05-26T13:24:00.000Z</time>
      </trkpt>
      <trkpt lat="46.29144" lon="4.71037">
        <ele>443</ele>
        <time>2020-05-26T13:24:10.000Z</time>
      </trkpt>
      <trkpt lat="46.29149" lon="4.71011">
        <ele>445.60000610352</ele>
        <time>2020-05-26T13:24:16.000Z</time>
      </trkpt>
      <trkpt lat="46.2916" lon="4.71006">
        <ele>447.20001220703</ele>
        <time>2020-05-26T13:24:20.000Z</time>
      </trkpt>
      <trkpt lat="46.29213" lon="4.71024">
        <ele>448</ele>
        <time>2020-05-26T13:24:35.000Z</time>
      </trkpt>
      <trkpt lat="46.29272" lon="4.71049">
        <ele>446.20001220703</ele>
        <time>2020-05-26T13:24:47.000Z</time>
      </trkpt>
      <trkpt lat="46.2933" lon="4.71077">
        <ele>442.60000610352</ele>
        <time>2020-05-26T13:24:58.000Z</time>
      </trkpt>
      <trkpt lat="46.29381" lon="4.71096">
        <ele>439.60000610352</ele>
        <time>2020-05-26T13:25:07.000Z</time>
      </trkpt>
      <trkpt lat="46.29414" lon="4.71105">
        <ele>436.79998779297</ele>
        <time>2020-05-26T13:25:13.000Z</time>
      </trkpt>
      <trkpt lat="46.29447" lon="4.71111">
        <ele>433.20001220703</ele>
        <time>2020-05-26T13:25:19.000Z</time>
      </trkpt>
      <trkpt lat="46.29472" lon="4.71116">
        <ele>430.20001220703</ele>
        <time>2020-05-26T13:25:24.000Z</time>
      </trkpt>
      <trkpt lat="46.29483" lon="4.71119">
        <ele>428.79998779297</ele>
        <time>2020-05-26T13:25:26.000Z</time>
      </trkpt>
      <trkpt lat="46.29493" lon="4.71125">
        <ele>428.20001220703</ele>
        <time>2020-05-26T13:25:28.000Z</time>
      </trkpt>
      <trkpt lat="46.29506" lon="4.71138">
        <ele>425.60000610352</ele>
        <time>2020-05-26T13:25:31.000Z</time>
      </trkpt>
      <trkpt lat="46.29521" lon="4.71151">
        <ele>422.79998779297</ele>
        <time>2020-05-26T13:25:34.000Z</time>
      </trkpt>
      <trkpt lat="46.29554" lon="4.71174">
        <ele>418.39999389648</ele>
        <time>2020-05-26T13:25:40.000Z</time>
      </trkpt>
      <trkpt lat="46.29572" lon="4.71187">
        <ele>415.20001220703</ele>
        <time>2020-05-26T13:25:44.000Z</time>
      </trkpt>
      <trkpt lat="46.2958" lon="4.71193">
        <ele>414</ele>
        <time>2020-05-26T13:25:46.000Z</time>
      </trkpt>
      <trkpt lat="46.29599" lon="4.71203">
        <ele>411.79998779297</ele>
        <time>2020-05-26T13:25:52.000Z</time>
      </trkpt>
      <trkpt lat="46.29626" lon="4.71218">
        <ele>408.79998779297</ele>
        <time>2020-05-26T13:26:03.000Z</time>
      </trkpt>
      <trkpt lat="46.29686" lon="4.71254">
        <ele>405.79998779297</ele>
        <time>2020-05-26T13:26:17.000Z</time>
      </trkpt>
      <trkpt lat="46.29747" lon="4.71286">
        <ele>404</ele>
        <time>2020-05-26T13:26:32.000Z</time>
      </trkpt>
      <trkpt lat="46.29821" lon="4.71313">
        <ele>402.60000610352</ele>
        <time>2020-05-26T13:26:46.000Z</time>
      </trkpt>
      <trkpt lat="46.29903" lon="4.71326">
        <ele>399.79998779297</ele>
        <time>2020-05-26T13:27:00.000Z</time>
      </trkpt>
      <trkpt lat="46.29941" lon="4.71334">
        <ele>396.39999389648</ele>
        <time>2020-05-26T13:27:06.000Z</time>
      </trkpt>
      <trkpt lat="46.2998" lon="4.71344">
        <ele>393</ele>
        <time>2020-05-26T13:27:12.000Z</time>
      </trkpt>
      <trkpt lat="46.30018" lon="4.71352">
        <ele>389.79998779297</ele>
        <time>2020-05-26T13:27:18.000Z</time>
      </trkpt>
      <trkpt lat="46.30072" lon="4.7137">
        <ele>386.20001220703</ele>
        <time>2020-05-26T13:27:26.000Z</time>
      </trkpt>
      <trkpt lat="46.3009" lon="4.71376">
        <ele>384.60000610352</ele>
        <time>2020-05-26T13:27:29.000Z</time>
      </trkpt>
      <trkpt lat="46.30114" lon="4.71386">
        <ele>382.20001220703</ele>
        <time>2020-05-26T13:27:34.000Z</time>
      </trkpt>
      <trkpt lat="46.3015" lon="4.71398">
        <ele>378.39999389648</ele>
        <time>2020-05-26T13:27:42.000Z</time>
      </trkpt>
      <trkpt lat="46.30185" lon="4.71412">
        <ele>374.79998779297</ele>
        <time>2020-05-26T13:27:49.000Z</time>
      </trkpt>
      <trkpt lat="46.30205" lon="4.71416">
        <ele>371.79998779297</ele>
        <time>2020-05-26T13:27:53.000Z</time>
      </trkpt>
      <trkpt lat="46.30215" lon="4.71417">
        <ele>369.60000610352</ele>
        <time>2020-05-26T13:27:55.000Z</time>
      </trkpt>
      <trkpt lat="46.3023" lon="4.71419">
        <ele>367.79998779297</ele>
        <time>2020-05-26T13:27:58.000Z</time>
      </trkpt>
      <trkpt lat="46.30245" lon="4.71421">
        <ele>364.39999389648</ele>
        <time>2020-05-26T13:28:01.000Z</time>
      </trkpt>
      <trkpt lat="46.3025" lon="4.71421">
        <ele>364.20001220703</ele>
        <time>2020-05-26T13:28:02.000Z</time>
      </trkpt>
      <trkpt lat="46.3026" lon="4.71423">
        <ele>363.20001220703</ele>
        <time>2020-05-26T13:28:04.000Z</time>
      </trkpt>
      <trkpt lat="46.30278" lon="4.71425">
        <ele>360</ele>
        <time>2020-05-26T13:28:08.000Z</time>
      </trkpt>
      <trkpt lat="46.30288" lon="4.71425">
        <ele>358.39999389648</ele>
        <time>2020-05-26T13:28:10.000Z</time>
      </trkpt>
      <trkpt lat="46.30308" lon="4.71429">
        <ele>354.39999389648</ele>
        <time>2020-05-26T13:28:15.000Z</time>
      </trkpt>
      <trkpt lat="46.30314" lon="4.7143">
        <ele>353</ele>
        <time>2020-05-26T13:28:17.000Z</time>
      </trkpt>
      <trkpt lat="46.30321" lon="4.71431">
        <ele>351.60000610352</ele>
        <time>2020-05-26T13:28:20.000Z</time>
      </trkpt>
      <trkpt lat="46.30313" lon="4.71413">
        <ele>347.60000610352</ele>
        <time>2020-05-26T13:28:27.000Z</time>
      </trkpt>
      <trkpt lat="46.30309" lon="4.71409">
        <ele>347.60000610352</ele>
        <time>2020-05-26T13:28:28.000Z</time>
      </trkpt>
      <trkpt lat="46.30289" lon="4.71393">
        <ele>347.20001220703</ele>
        <time>2020-05-26T13:28:32.000Z</time>
      </trkpt>
      <trkpt lat="46.30252" lon="4.71373">
        <ele>346.20001220703</ele>
        <time>2020-05-26T13:28:39.000Z</time>
      </trkpt>
      <trkpt lat="46.30222" lon="4.71316">
        <ele>346.39999389648</ele>
        <time>2020-05-26T13:28:48.000Z</time>
      </trkpt>
      <trkpt lat="46.30219" lon="4.7131">
        <ele>346.39999389648</ele>
        <time>2020-05-26T13:28:49.000Z</time>
      </trkpt>
      <trkpt lat="46.3021" lon="4.71294">
        <ele>346.39999389648</ele>
        <time>2020-05-26T13:28:52.000Z</time>
      </trkpt>
      <trkpt lat="46.30196" lon="4.71271">
        <ele>347.39999389648</ele>
        <time>2020-05-26T13:28:57.000Z</time>
      </trkpt>
      <trkpt lat="46.30186" lon="4.71223">
        <ele>349.79998779297</ele>
        <time>2020-05-26T13:29:05.000Z</time>
      </trkpt>
      <trkpt lat="46.30183" lon="4.71169">
        <ele>353</ele>
        <time>2020-05-26T13:29:13.000Z</time>
      </trkpt>
      <trkpt lat="46.3018" lon="4.71116">
        <ele>355.39999389648</ele>
        <time>2020-05-26T13:29:23.000Z</time>
      </trkpt>
      <trkpt lat="46.30177" lon="4.71113">
        <ele>355.60000610352</ele>
        <time>2020-05-26T13:29:24.000Z</time>
      </trkpt>
      <trkpt lat="46.30158" lon="4.71103">
        <ele>358.20001220703</ele>
        <time>2020-05-26T13:29:29.000Z</time>
      </trkpt>
      <trkpt lat="46.30137" lon="4.71084">
        <ele>361.60000610352</ele>
        <time>2020-05-26T13:29:35.000Z</time>
      </trkpt>
      <trkpt lat="46.30134" lon="4.71082">
        <ele>362</ele>
        <time>2020-05-26T13:29:36.000Z</time>
      </trkpt>
      <trkpt lat="46.3012" lon="4.7105">
        <ele>366</ele>
        <time>2020-05-26T13:29:43.000Z</time>
      </trkpt>
      <trkpt lat="46.30126" lon="4.71034">
        <ele>367.79998779297</ele>
        <time>2020-05-26T13:29:46.000Z</time>
      </trkpt>
      <trkpt lat="46.3013" lon="4.71018">
        <ele>368.79998779297</ele>
        <time>2020-05-26T13:29:49.000Z</time>
      </trkpt>
      <trkpt lat="46.30108" lon="4.70987">
        <ele>372.39999389648</ele>
        <time>2020-05-26T13:29:58.000Z</time>
      </trkpt>
      <trkpt lat="46.30098" lon="4.7098">
        <ele>375.60000610352</ele>
        <time>2020-05-26T13:30:01.000Z</time>
      </trkpt>
      <trkpt lat="46.30077" lon="4.7097">
        <ele>379</ele>
        <time>2020-05-26T13:30:07.000Z</time>
      </trkpt>
      <trkpt lat="46.30057" lon="4.70961">
        <ele>382.20001220703</ele>
        <time>2020-05-26T13:30:13.000Z</time>
      </trkpt>
      <trkpt lat="46.30033" lon="4.70947">
        <ele>385.39999389648</ele>
        <time>2020-05-26T13:30:20.000Z</time>
      </trkpt>
      <trkpt lat="46.30011" lon="4.70935">
        <ele>388.60000610352</ele>
        <time>2020-05-26T13:30:26.000Z</time>
      </trkpt>
      <trkpt lat="46.29985" lon="4.70921">
        <ele>391.79998779297</ele>
        <time>2020-05-26T13:30:33.000Z</time>
      </trkpt>
      <trkpt lat="46.29961" lon="4.70873">
        <ele>395</ele>
        <time>2020-05-26T13:30:44.000Z</time>
      </trkpt>
      <trkpt lat="46.29949" lon="4.70833">
        <ele>398</ele>
        <time>2020-05-26T13:30:52.000Z</time>
      </trkpt>
      <trkpt lat="46.29936" lon="4.70795">
        <ele>401</ele>
        <time>2020-05-26T13:31:02.000Z</time>
      </trkpt>
      <trkpt lat="46.29935" lon="4.70789">
        <ele>401.20001220703</ele>
        <time>2020-05-26T13:31:03.000Z</time>
      </trkpt>
      <trkpt lat="46.2992" lon="4.70746">
        <ele>402.20001220703</ele>
        <time>2020-05-26T13:31:10.000Z</time>
      </trkpt>
      <trkpt lat="46.29917" lon="4.70662">
        <ele>404.39999389648</ele>
        <time>2020-05-26T13:31:25.000Z</time>
      </trkpt>
      <trkpt lat="46.2993" lon="4.7062">
        <ele>407.60000610352</ele>
        <time>2020-05-26T13:31:34.000Z</time>
      </trkpt>
      <trkpt lat="46.29925" lon="4.70579">
        <ele>410.60000610352</ele>
        <time>2020-05-26T13:31:43.000Z</time>
      </trkpt>
      <trkpt lat="46.29921" lon="4.70558">
        <ele>414.20001220703</ele>
        <time>2020-05-26T13:31:49.000Z</time>
      </trkpt>
      <trkpt lat="46.29921" lon="4.70559">
        <ele>416.60000610352</ele>
        <time>2020-05-26T13:31:53.000Z</time>
      </trkpt>
      <trkpt lat="46.29929" lon="4.70574">
        <ele>418.79998779297</ele>
        <time>2020-05-26T13:32:12.000Z</time>
      </trkpt>
      <trkpt lat="46.29931" lon="4.70578">
        <ele>418.79998779297</ele>
        <time>2020-05-26T13:32:13.000Z</time>
      </trkpt>
      <trkpt lat="46.2993" lon="4.70624">
        <ele>415.60000610352</ele>
        <time>2020-05-26T13:32:25.000Z</time>
      </trkpt>
      <trkpt lat="46.29929" lon="4.70627">
        <ele>415.60000610352</ele>
        <time>2020-05-26T13:32:26.000Z</time>
      </trkpt>
      <trkpt lat="46.29929" lon="4.70635">
        <ele>412.20001220703</ele>
        <time>2020-05-26T13:32:33.000Z</time>
      </trkpt>
      <trkpt lat="46.29926" lon="4.70642">
        <ele>411</ele>
        <time>2020-05-26T13:32:38.000Z</time>
      </trkpt>
      <trkpt lat="46.29914" lon="4.70688">
        <ele>409.60000610352</ele>
        <time>2020-05-26T13:32:49.000Z</time>
      </trkpt>
      <trkpt lat="46.29914" lon="4.70701">
        <ele>408.20001220703</ele>
        <time>2020-05-26T13:32:52.000Z</time>
      </trkpt>
      <trkpt lat="46.29922" lon="4.70761">
        <ele>405.79998779297</ele>
        <time>2020-05-26T13:33:04.000Z</time>
      </trkpt>
      <trkpt lat="46.29925" lon="4.70767">
        <ele>403</ele>
        <time>2020-05-26T13:33:14.000Z</time>
      </trkpt>
      <trkpt lat="46.29927" lon="4.70754">
        <ele>402.79998779297</ele>
        <time>2020-05-26T13:33:17.000Z</time>
      </trkpt>
      <trkpt lat="46.29927" lon="4.70743">
        <ele>402.60000610352</ele>
        <time>2020-05-26T13:33:19.000Z</time>
      </trkpt>
      <trkpt lat="46.29932" lon="4.70709">
        <ele>401.79998779297</ele>
        <time>2020-05-26T13:33:24.000Z</time>
      </trkpt>
      <trkpt lat="46.2994" lon="4.70681">
        <ele>401</ele>
        <time>2020-05-26T13:33:28.000Z</time>
      </trkpt>
      <trkpt lat="46.29989" lon="4.70598">
        <ele>397.39999389648</ele>
        <time>2020-05-26T13:33:41.000Z</time>
      </trkpt>
      <trkpt lat="46.30009" lon="4.70539">
        <ele>395.39999389648</ele>
        <time>2020-05-26T13:33:47.000Z</time>
      </trkpt>
      <trkpt lat="46.30009" lon="4.70519">
        <ele>395.20001220703</ele>
        <time>2020-05-26T13:33:49.000Z</time>
      </trkpt>
      <trkpt lat="46.30006" lon="4.70411">
        <ele>394.79998779297</ele>
        <time>2020-05-26T13:34:01.000Z</time>
      </trkpt>
      <trkpt lat="46.30008" lon="4.70394">
        <ele>394.79998779297</ele>
        <time>2020-05-26T13:34:03.000Z</time>
      </trkpt>
      <trkpt lat="46.30027" lon="4.70339">
        <ele>394.79998779297</ele>
        <time>2020-05-26T13:34:10.000Z</time>
      </trkpt>
      <trkpt lat="46.30043" lon="4.70323">
        <ele>394.20001220703</ele>
        <time>2020-05-26T13:34:13.000Z</time>
      </trkpt>
      <trkpt lat="46.30072" lon="4.70278">
        <ele>392.60000610352</ele>
        <time>2020-05-26T13:34:19.000Z</time>
      </trkpt>
      <trkpt lat="46.30084" lon="4.70254">
        <ele>391.39999389648</ele>
        <time>2020-05-26T13:34:25.000Z</time>
      </trkpt>
      <trkpt lat="46.30083" lon="4.70253">
        <ele>391.39999389648</ele>
        <time>2020-05-26T13:34:27.000Z</time>
      </trkpt>
      <trkpt lat="46.30076" lon="4.70256">
        <ele>391.20001220703</ele>
        <time>2020-05-26T13:34:34.000Z</time>
      </trkpt>
      <trkpt lat="46.30075" lon="4.70251">
        <ele>391.20001220703</ele>
        <time>2020-05-26T13:34:35.000Z</time>
      </trkpt>
      <trkpt lat="46.30074" lon="4.70232">
        <ele>391.20001220703</ele>
        <time>2020-05-26T13:34:38.000Z</time>
      </trkpt>
      <trkpt lat="46.30064" lon="4.70189">
        <ele>391.79998779297</ele>
        <time>2020-05-26T13:34:49.000Z</time>
      </trkpt>
      <trkpt lat="46.3005" lon="4.70174">
        <ele>395.60000610352</ele>
        <time>2020-05-26T13:34:55.000Z</time>
      </trkpt>
      <trkpt lat="46.30033" lon="4.70155">
        <ele>398.79998779297</ele>
        <time>2020-05-26T13:35:02.000Z</time>
      </trkpt>
      <trkpt lat="46.30021" lon="4.70145">
        <ele>401.79998779297</ele>
        <time>2020-05-26T13:35:06.000Z</time>
      </trkpt>
      <trkpt lat="46.29999" lon="4.70129">
        <ele>405</ele>
        <time>2020-05-26T13:35:12.000Z</time>
      </trkpt>
      <trkpt lat="46.29975" lon="4.70109">
        <ele>407.39999389648</ele>
        <time>2020-05-26T13:35:22.000Z</time>
      </trkpt>
      <trkpt lat="46.2996" lon="4.70096">
        <ele>408.79998779297</ele>
        <time>2020-05-26T13:35:29.000Z</time>
      </trkpt>
      <trkpt lat="46.2995" lon="4.70086">
        <ele>409.60000610352</ele>
        <time>2020-05-26T13:35:33.000Z</time>
      </trkpt>
      <trkpt lat="46.29945" lon="4.70078">
        <ele>409.79998779297</ele>
        <time>2020-05-26T13:35:36.000Z</time>
      </trkpt>
      <trkpt lat="46.29939" lon="4.70063">
        <ele>410.60000610352</ele>
        <time>2020-05-26T13:35:40.000Z</time>
      </trkpt>
      <trkpt lat="46.2993" lon="4.70045">
        <ele>413.20001220703</ele>
        <time>2020-05-26T13:35:46.000Z</time>
      </trkpt>
      <trkpt lat="46.29907" lon="4.70023">
        <ele>416.60000610352</ele>
        <time>2020-05-26T13:35:54.000Z</time>
      </trkpt>
      <trkpt lat="46.29881" lon="4.70002">
        <ele>420.39999389648</ele>
        <time>2020-05-26T13:36:04.000Z</time>
      </trkpt>
      <trkpt lat="46.29877" lon="4.69999">
        <ele>421.20001220703</ele>
        <time>2020-05-26T13:36:06.000Z</time>
      </trkpt>
      <trkpt lat="46.29867" lon="4.69999">
        <ele>423.20001220703</ele>
        <time>2020-05-26T13:36:10.000Z</time>
      </trkpt>
      <trkpt lat="46.29846" lon="4.69996">
        <ele>426.79998779297</ele>
        <time>2020-05-26T13:36:18.000Z</time>
      </trkpt>
      <trkpt lat="46.29818" lon="4.69988">
        <ele>430.20001220703</ele>
        <time>2020-05-26T13:36:26.000Z</time>
      </trkpt>
      <trkpt lat="46.29806" lon="4.69981">
        <ele>433.39999389648</ele>
        <time>2020-05-26T13:36:31.000Z</time>
      </trkpt>
      <trkpt lat="46.29801" lon="4.69977">
        <ele>434.39999389648</ele>
        <time>2020-05-26T13:36:33.000Z</time>
      </trkpt>
      <trkpt lat="46.29772" lon="4.69969">
        <ele>437.79998779297</ele>
        <time>2020-05-26T13:36:43.000Z</time>
      </trkpt>
      <trkpt lat="46.29744" lon="4.69974">
        <ele>441</ele>
        <time>2020-05-26T13:36:53.000Z</time>
      </trkpt>
      <trkpt lat="46.29718" lon="4.69975">
        <ele>444.20001220703</ele>
        <time>2020-05-26T13:37:01.000Z</time>
      </trkpt>
      <trkpt lat="46.29691" lon="4.69953">
        <ele>446.79998779297</ele>
        <time>2020-05-26T13:37:11.000Z</time>
      </trkpt>
      <trkpt lat="46.29669" lon="4.69937">
        <ele>450.20001220703</ele>
        <time>2020-05-26T13:37:19.000Z</time>
      </trkpt>
      <trkpt lat="46.29658" lon="4.69911">
        <ele>453.39999389648</ele>
        <time>2020-05-26T13:37:26.000Z</time>
      </trkpt>
      <trkpt lat="46.29648" lon="4.69889">
        <ele>456.60000610352</ele>
        <time>2020-05-26T13:37:33.000Z</time>
      </trkpt>
      <trkpt lat="46.29647" lon="4.69885">
        <ele>456.79998779297</ele>
        <time>2020-05-26T13:37:34.000Z</time>
      </trkpt>
      <trkpt lat="46.29643" lon="4.69841">
        <ele>457.79998779297</ele>
        <time>2020-05-26T13:37:44.000Z</time>
      </trkpt>
      <trkpt lat="46.29645" lon="4.69832">
        <ele>458.39999389648</ele>
        <time>2020-05-26T13:37:48.000Z</time>
      </trkpt>
      <trkpt lat="46.29654" lon="4.69829">
        <ele>460.39999389648</ele>
        <time>2020-05-26T13:37:52.000Z</time>
      </trkpt>
      <trkpt lat="46.29676" lon="4.69814">
        <ele>464</ele>
        <time>2020-05-26T13:38:00.000Z</time>
      </trkpt>
      <trkpt lat="46.29683" lon="4.6981">
        <ele>464.60000610352</ele>
        <time>2020-05-26T13:38:03.000Z</time>
      </trkpt>
      <trkpt lat="46.29706" lon="4.6978">
        <ele>468.20001220703</ele>
        <time>2020-05-26T13:38:14.000Z</time>
      </trkpt>
      <trkpt lat="46.29714" lon="4.69755">
        <ele>471.60000610352</ele>
        <time>2020-05-26T13:38:20.000Z</time>
      </trkpt>
      <trkpt lat="46.29719" lon="4.69741">
        <ele>474</ele>
        <time>2020-05-26T13:38:25.000Z</time>
      </trkpt>
      <trkpt lat="46.29745" lon="4.69733">
        <ele>475.60000610352</ele>
        <time>2020-05-26T13:38:29.000Z</time>
      </trkpt>
      <trkpt lat="46.29763" lon="4.69731">
        <ele>477.60000610352</ele>
        <time>2020-05-26T13:38:34.000Z</time>
      </trkpt>
      <trkpt lat="46.29781" lon="4.69728">
        <ele>478.39999389648</ele>
        <time>2020-05-26T13:38:38.000Z</time>
      </trkpt>
      <trkpt lat="46.29788" lon="4.69718">
        <ele>480.20001220703</ele>
        <time>2020-05-26T13:38:42.000Z</time>
      </trkpt>
      <trkpt lat="46.298" lon="4.69704">
        <ele>482.79998779297</ele>
        <time>2020-05-26T13:38:48.000Z</time>
      </trkpt>
      <trkpt lat="46.2982" lon="4.69691">
        <ele>486.39999389648</ele>
        <time>2020-05-26T13:38:55.000Z</time>
      </trkpt>
      <trkpt lat="46.29834" lon="4.69683">
        <ele>488.20001220703</ele>
        <time>2020-05-26T13:38:58.000Z</time>
      </trkpt>
      <trkpt lat="46.29845" lon="4.69676">
        <ele>490.39999389648</ele>
        <time>2020-05-26T13:39:01.000Z</time>
      </trkpt>
      <trkpt lat="46.29854" lon="4.69648">
        <ele>494.20001220703</ele>
        <time>2020-05-26T13:39:10.000Z</time>
      </trkpt>
      <trkpt lat="46.29856" lon="4.69642">
        <ele>495</ele>
        <time>2020-05-26T13:39:12.000Z</time>
      </trkpt>
      <trkpt lat="46.29864" lon="4.69626">
        <ele>498.60000610352</ele>
        <time>2020-05-26T13:39:19.000Z</time>
      </trkpt>
      <trkpt lat="46.29873" lon="4.69609">
        <ele>502.39999389648</ele>
        <time>2020-05-26T13:39:25.000Z</time>
      </trkpt>
      <trkpt lat="46.29877" lon="4.69598">
        <ele>504.20001220703</ele>
        <time>2020-05-26T13:39:28.000Z</time>
      </trkpt>
      <trkpt lat="46.29882" lon="4.69579">
        <ele>507.39999389648</ele>
        <time>2020-05-26T13:39:33.000Z</time>
      </trkpt>
      <trkpt lat="46.29887" lon="4.69566">
        <ele>509.20001220703</ele>
        <time>2020-05-26T13:39:36.000Z</time>
      </trkpt>
      <trkpt lat="46.29906" lon="4.69552">
        <ele>512.40002441406</ele>
        <time>2020-05-26T13:39:41.000Z</time>
      </trkpt>
      <trkpt lat="46.29924" lon="4.69549">
        <ele>516.40002441406</ele>
        <time>2020-05-26T13:39:46.000Z</time>
      </trkpt>
      <trkpt lat="46.29926" lon="4.69549">
        <ele>517</ele>
        <time>2020-05-26T13:39:47.000Z</time>
      </trkpt>
      <trkpt lat="46.29962" lon="4.69552">
        <ele>519.40002441406</ele>
        <time>2020-05-26T13:39:59.000Z</time>
      </trkpt>
      <trkpt lat="46.30004" lon="4.69551">
        <ele>520.20001220703</ele>
        <time>2020-05-26T13:40:09.000Z</time>
      </trkpt>
      <trkpt lat="46.30016" lon="4.69551">
        <ele>520.79998779297</ele>
        <time>2020-05-26T13:40:12.000Z</time>
      </trkpt>
      <trkpt lat="46.30039" lon="4.69569">
        <ele>523.40002441406</ele>
        <time>2020-05-26T13:40:20.000Z</time>
      </trkpt>
      <trkpt lat="46.30083" lon="4.6959">
        <ele>523.40002441406</ele>
        <time>2020-05-26T13:40:30.000Z</time>
      </trkpt>
      <trkpt lat="46.30134" lon="4.69594">
        <ele>523.20001220703</ele>
        <time>2020-05-26T13:40:43.000Z</time>
      </trkpt>
      <trkpt lat="46.30164" lon="4.69585">
        <ele>525.40002441406</ele>
        <time>2020-05-26T13:40:50.000Z</time>
      </trkpt>
      <trkpt lat="46.30181" lon="4.69579">
        <ele>527.20001220703</ele>
        <time>2020-05-26T13:40:54.000Z</time>
      </trkpt>
      <trkpt lat="46.30194" lon="4.69575">
        <ele>528.79998779297</ele>
        <time>2020-05-26T13:40:57.000Z</time>
      </trkpt>
      <trkpt lat="46.30221" lon="4.69562">
        <ele>532.20001220703</ele>
        <time>2020-05-26T13:41:04.000Z</time>
      </trkpt>
      <trkpt lat="46.30233" lon="4.69557">
        <ele>533.79998779297</ele>
        <time>2020-05-26T13:41:07.000Z</time>
      </trkpt>
      <trkpt lat="46.30257" lon="4.6956">
        <ele>535.79998779297</ele>
        <time>2020-05-26T13:41:13.000Z</time>
      </trkpt>
      <trkpt lat="46.30272" lon="4.69563">
        <ele>536.59997558594</ele>
        <time>2020-05-26T13:41:17.000Z</time>
      </trkpt>
      <trkpt lat="46.30276" lon="4.69562">
        <ele>537</ele>
        <time>2020-05-26T13:41:19.000Z</time>
      </trkpt>
      <trkpt lat="46.30294" lon="4.69564">
        <ele>538</ele>
        <time>2020-05-26T13:41:25.000Z</time>
      </trkpt>
      <trkpt lat="46.30335" lon="4.69579">
        <ele>538.20001220703</ele>
        <time>2020-05-26T13:41:35.000Z</time>
      </trkpt>
      <trkpt lat="46.30386" lon="4.69599">
        <ele>537.20001220703</ele>
        <time>2020-05-26T13:41:45.000Z</time>
      </trkpt>
      <trkpt lat="46.30424" lon="4.69622">
        <ele>536.20001220703</ele>
        <time>2020-05-26T13:41:53.000Z</time>
      </trkpt>
      <trkpt lat="46.30454" lon="4.69639">
        <ele>536</ele>
        <time>2020-05-26T13:42:00.000Z</time>
      </trkpt>
      <trkpt lat="46.30468" lon="4.69647">
        <ele>536.20001220703</ele>
        <time>2020-05-26T13:42:03.000Z</time>
      </trkpt>
      <trkpt lat="46.30512" lon="4.69671">
        <ele>537.20001220703</ele>
        <time>2020-05-26T13:42:13.000Z</time>
      </trkpt>
      <trkpt lat="46.30516" lon="4.69674">
        <ele>537.20001220703</ele>
        <time>2020-05-26T13:42:14.000Z</time>
      </trkpt>
      <trkpt lat="46.30535" lon="4.69688">
        <ele>537.20001220703</ele>
        <time>2020-05-26T13:42:20.000Z</time>
      </trkpt>
      <trkpt lat="46.30539" lon="4.69679">
        <ele>537.20001220703</ele>
        <time>2020-05-26T13:42:25.000Z</time>
      </trkpt>
      <trkpt lat="46.30553" lon="4.6964">
        <ele>540.20001220703</ele>
        <time>2020-05-26T13:42:35.000Z</time>
      </trkpt>
      <trkpt lat="46.3056" lon="4.6963">
        <ele>541</ele>
        <time>2020-05-26T13:42:37.000Z</time>
      </trkpt>
      <trkpt lat="46.30575" lon="4.69602">
        <ele>544.20001220703</ele>
        <time>2020-05-26T13:42:43.000Z</time>
      </trkpt>
      <trkpt lat="46.30622" lon="4.69573">
        <ele>547.20001220703</ele>
        <time>2020-05-26T13:42:51.000Z</time>
      </trkpt>
      <trkpt lat="46.30682" lon="4.69596">
        <ele>549</ele>
        <time>2020-05-26T13:43:05.000Z</time>
      </trkpt>
      <trkpt lat="46.30747" lon="4.69645">
        <ele>546.20001220703</ele>
        <time>2020-05-26T13:43:16.000Z</time>
      </trkpt>
      <trkpt lat="46.30757" lon="4.69652">
        <ele>545.40002441406</ele>
        <time>2020-05-26T13:43:18.000Z</time>
      </trkpt>
      <trkpt lat="46.30773" lon="4.69661">
        <ele>545</ele>
        <time>2020-05-26T13:43:21.000Z</time>
      </trkpt>
      <trkpt lat="46.30816" lon="4.69691">
        <ele>545.20001220703</ele>
        <time>2020-05-26T13:43:30.000Z</time>
      </trkpt>
      <trkpt lat="46.30847" lon="4.69701">
        <ele>546.40002441406</ele>
        <time>2020-05-26T13:43:37.000Z</time>
      </trkpt>
      <trkpt lat="46.30881" lon="4.69714">
        <ele>547</ele>
        <time>2020-05-26T13:43:43.000Z</time>
      </trkpt>
      <trkpt lat="46.30906" lon="4.69736">
        <ele>547</ele>
        <time>2020-05-26T13:43:48.000Z</time>
      </trkpt>
      <trkpt lat="46.30913" lon="4.69746">
        <ele>546.79998779297</ele>
        <time>2020-05-26T13:43:57.000Z</time>
      </trkpt>
      <trkpt lat="46.30919" lon="4.6975">
        <ele>546.59997558594</ele>
        <time>2020-05-26T13:44:05.000Z</time>
      </trkpt>
      <trkpt lat="46.3096" lon="4.69791">
        <ele>545.40002441406</ele>
        <time>2020-05-26T13:44:16.000Z</time>
      </trkpt>
      <trkpt lat="46.30965" lon="4.69795">
        <ele>544.79998779297</ele>
        <time>2020-05-26T13:44:17.000Z</time>
      </trkpt>
      <trkpt lat="46.30999" lon="4.69814">
        <ele>540.40002441406</ele>
        <time>2020-05-26T13:44:24.000Z</time>
      </trkpt>
      <trkpt lat="46.31019" lon="4.6982">
        <ele>538.79998779297</ele>
        <time>2020-05-26T13:44:29.000Z</time>
      </trkpt>
      <trkpt lat="46.3105" lon="4.69836">
        <ele>538.20001220703</ele>
        <time>2020-05-26T13:44:35.000Z</time>
      </trkpt>
      <trkpt lat="46.3108" lon="4.69847">
        <ele>535.79998779297</ele>
        <time>2020-05-26T13:44:40.000Z</time>
      </trkpt>
      <trkpt lat="46.31115" lon="4.69848">
        <ele>533.40002441406</ele>
        <time>2020-05-26T13:44:45.000Z</time>
      </trkpt>
      <trkpt lat="46.31139" lon="4.69841">
        <ele>531.79998779297</ele>
        <time>2020-05-26T13:44:49.000Z</time>
      </trkpt>
      <trkpt lat="46.31148" lon="4.69839">
        <ele>531.40002441406</ele>
        <time>2020-05-26T13:44:51.000Z</time>
      </trkpt>
      <trkpt lat="46.31162" lon="4.69841">
        <ele>531</ele>
        <time>2020-05-26T13:44:54.000Z</time>
      </trkpt>
      <trkpt lat="46.31196" lon="4.69854">
        <ele>529.79998779297</ele>
        <time>2020-05-26T13:45:02.000Z</time>
      </trkpt>
      <trkpt lat="46.31214" lon="4.6985">
        <ele>528.20001220703</ele>
        <time>2020-05-26T13:45:06.000Z</time>
      </trkpt>
      <trkpt lat="46.31225" lon="4.6985">
        <ele>527.20001220703</ele>
        <time>2020-05-26T13:45:08.000Z</time>
      </trkpt>
      <trkpt lat="46.3123" lon="4.6985">
        <ele>526.59997558594</ele>
        <time>2020-05-26T13:45:09.000Z</time>
      </trkpt>
      <trkpt lat="46.31247" lon="4.69853">
        <ele>525.20001220703</ele>
        <time>2020-05-26T13:45:12.000Z</time>
      </trkpt>
      <trkpt lat="46.313" lon="4.69868">
        <ele>521.59997558594</ele>
        <time>2020-05-26T13:45:20.000Z</time>
      </trkpt>
      <trkpt lat="46.31325" lon="4.69873">
        <ele>518.20001220703</ele>
        <time>2020-05-26T13:45:24.000Z</time>
      </trkpt>
      <trkpt lat="46.31341" lon="4.69876">
        <ele>516.59997558594</ele>
        <time>2020-05-26T13:45:27.000Z</time>
      </trkpt>
      <trkpt lat="46.31378" lon="4.69878">
        <ele>513.40002441406</ele>
        <time>2020-05-26T13:45:34.000Z</time>
      </trkpt>
      <trkpt lat="46.31423" lon="4.69898">
        <ele>510.39999389648</ele>
        <time>2020-05-26T13:45:41.000Z</time>
      </trkpt>
      <trkpt lat="46.31428" lon="4.699">
        <ele>510</ele>
        <time>2020-05-26T13:45:42.000Z</time>
      </trkpt>
      <trkpt lat="46.31434" lon="4.69903">
        <ele>509.60000610352</ele>
        <time>2020-05-26T13:45:43.000Z</time>
      </trkpt>
      <trkpt lat="46.31465" lon="4.69909">
        <ele>507.60000610352</ele>
        <time>2020-05-26T13:45:48.000Z</time>
      </trkpt>
      <trkpt lat="46.31512" lon="4.69905">
        <ele>504.20001220703</ele>
        <time>2020-05-26T13:45:56.000Z</time>
      </trkpt>
      <trkpt lat="46.31517" lon="4.69904">
        <ele>504</ele>
        <time>2020-05-26T13:45:57.000Z</time>
      </trkpt>
      <trkpt lat="46.31544" lon="4.69899">
        <ele>503.79998779297</ele>
        <time>2020-05-26T13:46:02.000Z</time>
      </trkpt>
      <trkpt lat="46.31564" lon="4.69892">
        <ele>503.79998779297</ele>
        <time>2020-05-26T13:46:06.000Z</time>
      </trkpt>
      <trkpt lat="46.31585" lon="4.69887">
        <ele>504</ele>
        <time>2020-05-26T13:46:11.000Z</time>
      </trkpt>
      <trkpt lat="46.31606" lon="4.69886">
        <ele>503.79998779297</ele>
        <time>2020-05-26T13:46:15.000Z</time>
      </trkpt>
      <trkpt lat="46.31638" lon="4.69902">
        <ele>504.20001220703</ele>
        <time>2020-05-26T13:46:23.000Z</time>
      </trkpt>
      <trkpt lat="46.3167" lon="4.69962">
        <ele>505</ele>
        <time>2020-05-26T13:46:36.000Z</time>
      </trkpt>
      <trkpt lat="46.31681" lon="4.69982">
        <ele>505.20001220703</ele>
        <time>2020-05-26T13:46:41.000Z</time>
      </trkpt>
      <trkpt lat="46.31699" lon="4.70002">
        <ele>505</ele>
        <time>2020-05-26T13:46:46.000Z</time>
      </trkpt>
      <trkpt lat="46.31706" lon="4.70012">
        <ele>504.60000610352</ele>
        <time>2020-05-26T13:46:48.000Z</time>
      </trkpt>
      <trkpt lat="46.31711" lon="4.70032">
        <ele>503.39999389648</ele>
        <time>2020-05-26T13:46:51.000Z</time>
      </trkpt>
      <trkpt lat="46.31714" lon="4.70061">
        <ele>502</ele>
        <time>2020-05-26T13:46:55.000Z</time>
      </trkpt>
      <trkpt lat="46.31735" lon="4.70108">
        <ele>499</ele>
        <time>2020-05-26T13:47:05.000Z</time>
      </trkpt>
      <trkpt lat="46.31763" lon="4.70133">
        <ele>498</ele>
        <time>2020-05-26T13:47:13.000Z</time>
      </trkpt>
      <trkpt lat="46.31793" lon="4.70151">
        <ele>497.60000610352</ele>
        <time>2020-05-26T13:47:18.000Z</time>
      </trkpt>
      <trkpt lat="46.31821" lon="4.70169">
        <ele>496.39999389648</ele>
        <time>2020-05-26T13:47:23.000Z</time>
      </trkpt>
      <trkpt lat="46.31839" lon="4.70178">
        <ele>493.79998779297</ele>
        <time>2020-05-26T13:47:26.000Z</time>
      </trkpt>
      <trkpt lat="46.31859" lon="4.70192">
        <ele>492</ele>
        <time>2020-05-26T13:47:30.000Z</time>
      </trkpt>
      <trkpt lat="46.3187" lon="4.702">
        <ele>490.60000610352</ele>
        <time>2020-05-26T13:47:32.000Z</time>
      </trkpt>
      <trkpt lat="46.31884" lon="4.7021">
        <ele>488.79998779297</ele>
        <time>2020-05-26T13:47:35.000Z</time>
      </trkpt>
      <trkpt lat="46.31895" lon="4.70247">
        <ele>485</ele>
        <time>2020-05-26T13:47:43.000Z</time>
      </trkpt>
      <trkpt lat="46.319" lon="4.70254">
        <ele>481.60000610352</ele>
        <time>2020-05-26T13:47:49.000Z</time>
      </trkpt>
      <trkpt lat="46.31901" lon="4.7026">
        <ele>480.60000610352</ele>
        <time>2020-05-26T13:47:57.000Z</time>
      </trkpt>
      <trkpt lat="46.31914" lon="4.70259">
        <ele>480.60000610352</ele>
        <time>2020-05-26T13:48:05.000Z</time>
      </trkpt>
      <trkpt lat="46.31929" lon="4.70248">
        <ele>480.39999389648</ele>
        <time>2020-05-26T13:48:10.000Z</time>
      </trkpt>
      <trkpt lat="46.31936" lon="4.7024">
        <ele>479.79998779297</ele>
        <time>2020-05-26T13:48:12.000Z</time>
      </trkpt>
      <trkpt lat="46.31939" lon="4.70192">
        <ele>478.20001220703</ele>
        <time>2020-05-26T13:48:21.000Z</time>
      </trkpt>
      <trkpt lat="46.31931" lon="4.70174">
        <ele>476.60000610352</ele>
        <time>2020-05-26T13:48:24.000Z</time>
      </trkpt>
      <trkpt lat="46.31922" lon="4.70128">
        <ele>472.79998779297</ele>
        <time>2020-05-26T13:48:31.000Z</time>
      </trkpt>
      <trkpt lat="46.31918" lon="4.70109">
        <ele>470.60000610352</ele>
        <time>2020-05-26T13:48:34.000Z</time>
      </trkpt>
      <trkpt lat="46.31905" lon="4.70073">
        <ele>466.39999389648</ele>
        <time>2020-05-26T13:48:39.000Z</time>
      </trkpt>
      <trkpt lat="46.31896" lon="4.70031">
        <ele>463.20001220703</ele>
        <time>2020-05-26T13:48:46.000Z</time>
      </trkpt>
      <trkpt lat="46.31879" lon="4.69962">
        <ele>460.20001220703</ele>
        <time>2020-05-26T13:48:55.000Z</time>
      </trkpt>
      <trkpt lat="46.31878" lon="4.69955">
        <ele>460</ele>
        <time>2020-05-26T13:48:56.000Z</time>
      </trkpt>
      <trkpt lat="46.31868" lon="4.69923">
        <ele>457.39999389648</ele>
        <time>2020-05-26T13:49:01.000Z</time>
      </trkpt>
      <trkpt lat="46.3187" lon="4.69893">
        <ele>455.20001220703</ele>
        <time>2020-05-26T13:49:05.000Z</time>
      </trkpt>
      <trkpt lat="46.31872" lon="4.69885">
        <ele>454.39999389648</ele>
        <time>2020-05-26T13:49:06.000Z</time>
      </trkpt>
      <trkpt lat="46.31872" lon="4.69876">
        <ele>453.39999389648</ele>
        <time>2020-05-26T13:49:07.000Z</time>
      </trkpt>
      <trkpt lat="46.31873" lon="4.69867">
        <ele>452.79998779297</ele>
        <time>2020-05-26T13:49:08.000Z</time>
      </trkpt>
      <trkpt lat="46.31873" lon="4.69859">
        <ele>452</ele>
        <time>2020-05-26T13:49:09.000Z</time>
      </trkpt>
      <trkpt lat="46.31874" lon="4.69851">
        <ele>451</ele>
        <time>2020-05-26T13:49:10.000Z</time>
      </trkpt>
      <trkpt lat="46.31875" lon="4.69843">
        <ele>449.60000610352</ele>
        <time>2020-05-26T13:49:11.000Z</time>
      </trkpt>
      <trkpt lat="46.31875" lon="4.69835">
        <ele>448.79998779297</ele>
        <time>2020-05-26T13:49:12.000Z</time>
      </trkpt>
      <trkpt lat="46.31877" lon="4.69828">
        <ele>448.20001220703</ele>
        <time>2020-05-26T13:49:13.000Z</time>
      </trkpt>
      <trkpt lat="46.31877" lon="4.69822">
        <ele>447.60000610352</ele>
        <time>2020-05-26T13:49:14.000Z</time>
      </trkpt>
      <trkpt lat="46.31876" lon="4.69816">
        <ele>447</ele>
        <time>2020-05-26T13:49:15.000Z</time>
      </trkpt>
      <trkpt lat="46.31874" lon="4.69808">
        <ele>446.39999389648</ele>
        <time>2020-05-26T13:49:16.000Z</time>
      </trkpt>
      <trkpt lat="46.31872" lon="4.69801">
        <ele>446</ele>
        <time>2020-05-26T13:49:17.000Z</time>
      </trkpt>
      <trkpt lat="46.31871" lon="4.69789">
        <ele>445.60000610352</ele>
        <time>2020-05-26T13:49:18.000Z</time>
      </trkpt>
      <trkpt lat="46.31869" lon="4.6978">
        <ele>445.39999389648</ele>
        <time>2020-05-26T13:49:19.000Z</time>
      </trkpt>
      <trkpt lat="46.31848" lon="4.69722">
        <ele>443.20001220703</ele>
        <time>2020-05-26T13:49:29.000Z</time>
      </trkpt>
      <trkpt lat="46.31831" lon="4.69699">
        <ele>440.20001220703</ele>
        <time>2020-05-26T13:49:37.000Z</time>
      </trkpt>
      <trkpt lat="46.31832" lon="4.697">
        <ele>438.79998779297</ele>
        <time>2020-05-26T13:49:40.000Z</time>
      </trkpt>
      <trkpt lat="46.3184" lon="4.69708">
        <ele>438.60000610352</ele>
        <time>2020-05-26T13:50:57.000Z</time>
      </trkpt>
      <trkpt lat="46.3185" lon="4.69724">
        <ele>438.60000610352</ele>
        <time>2020-05-26T13:51:01.000Z</time>
      </trkpt>
      <trkpt lat="46.31855" lon="4.69735">
        <ele>438.79998779297</ele>
        <time>2020-05-26T13:51:03.000Z</time>
      </trkpt>
      <trkpt lat="46.3187" lon="4.69774">
        <ele>439.79998779297</ele>
        <time>2020-05-26T13:51:10.000Z</time>
      </trkpt>
      <trkpt lat="46.31876" lon="4.69798">
        <ele>441.39999389648</ele>
        <time>2020-05-26T13:51:14.000Z</time>
      </trkpt>
      <trkpt lat="46.31877" lon="4.69803">
        <ele>441.79998779297</ele>
        <time>2020-05-26T13:51:15.000Z</time>
      </trkpt>
      <trkpt lat="46.31877" lon="4.69807">
        <ele>442.39999389648</ele>
        <time>2020-05-26T13:51:16.000Z</time>
      </trkpt>
      <trkpt lat="46.31878" lon="4.69814">
        <ele>442.79998779297</ele>
        <time>2020-05-26T13:51:17.000Z</time>
      </trkpt>
      <trkpt lat="46.31879" lon="4.69821">
        <ele>443</ele>
        <time>2020-05-26T13:51:18.000Z</time>
      </trkpt>
      <trkpt lat="46.31879" lon="4.69842">
        <ele>443.60000610352</ele>
        <time>2020-05-26T13:51:21.000Z</time>
      </trkpt>
      <trkpt lat="46.31879" lon="4.6985">
        <ele>443.79998779297</ele>
        <time>2020-05-26T13:51:22.000Z</time>
      </trkpt>
      <trkpt lat="46.31879" lon="4.69857">
        <ele>444.20001220703</ele>
        <time>2020-05-26T13:51:23.000Z</time>
      </trkpt>
      <trkpt lat="46.31879" lon="4.69864">
        <ele>444.60000610352</ele>
        <time>2020-05-26T13:51:24.000Z</time>
      </trkpt>
      <trkpt lat="46.3188" lon="4.69872">
        <ele>445</ele>
        <time>2020-05-26T13:51:25.000Z</time>
      </trkpt>
      <trkpt lat="46.31881" lon="4.69879">
        <ele>445.20001220703</ele>
        <time>2020-05-26T13:51:26.000Z</time>
      </trkpt>
      <trkpt lat="46.3188" lon="4.69886">
        <ele>445.39999389648</ele>
        <time>2020-05-26T13:51:27.000Z</time>
      </trkpt>
      <trkpt lat="46.31881" lon="4.69907">
        <ele>445.79998779297</ele>
        <time>2020-05-26T13:51:30.000Z</time>
      </trkpt>
      <trkpt lat="46.31887" lon="4.69948">
        <ele>448.79998779297</ele>
        <time>2020-05-26T13:51:37.000Z</time>
      </trkpt>
      <trkpt lat="46.31894" lon="4.69974">
        <ele>452.20001220703</ele>
        <time>2020-05-26T13:51:42.000Z</time>
      </trkpt>
      <trkpt lat="46.31899" lon="4.70002">
        <ele>455.39999389648</ele>
        <time>2020-05-26T13:51:47.000Z</time>
      </trkpt>
      <trkpt lat="46.31908" lon="4.70036">
        <ele>458.60000610352</ele>
        <time>2020-05-26T13:51:53.000Z</time>
      </trkpt>
      <trkpt lat="46.31913" lon="4.70055">
        <ele>460</ele>
        <time>2020-05-26T13:51:57.000Z</time>
      </trkpt>
      <trkpt lat="46.31919" lon="4.70074">
        <ele>460.79998779297</ele>
        <time>2020-05-26T13:52:00.000Z</time>
      </trkpt>
      <trkpt lat="46.31936" lon="4.70133">
        <ele>463.79998779297</ele>
        <time>2020-05-26T13:52:11.000Z</time>
      </trkpt>
      <trkpt lat="46.31946" lon="4.7018">
        <ele>466.60000610352</ele>
        <time>2020-05-26T13:52:20.000Z</time>
      </trkpt>
      <trkpt lat="46.31945" lon="4.70204">
        <ele>469.60000610352</ele>
        <time>2020-05-26T13:52:25.000Z</time>
      </trkpt>
      <trkpt lat="46.31935" lon="4.70237">
        <ele>473</ele>
        <time>2020-05-26T13:52:31.000Z</time>
      </trkpt>
      <trkpt lat="46.31918" lon="4.70251">
        <ele>476.39999389648</ele>
        <time>2020-05-26T13:52:37.000Z</time>
      </trkpt>
      <trkpt lat="46.31906" lon="4.70258">
        <ele>479.39999389648</ele>
        <time>2020-05-26T13:52:45.000Z</time>
      </trkpt>
      <trkpt lat="46.31906" lon="4.70258">
        <ele>479.79998779297</ele>
        <time>2020-05-26T13:52:47.000Z</time>
      </trkpt>
      <trkpt lat="46.31909" lon="4.70289">
        <ele>479.79998779297</ele>
        <time>2020-05-26T13:54:03.000Z</time>
      </trkpt>
      <trkpt lat="46.3191" lon="4.70297">
        <ele>480</ele>
        <time>2020-05-26T13:54:11.000Z</time>
      </trkpt>
      <trkpt lat="46.31934" lon="4.70295">
        <ele>480.39999389648</ele>
        <time>2020-05-26T13:54:55.000Z</time>
      </trkpt>
      <trkpt lat="46.31936" lon="4.70295">
        <ele>480.39999389648</ele>
        <time>2020-05-26T13:54:56.000Z</time>
      </trkpt>
      <trkpt lat="46.31945" lon="4.70294">
        <ele>480.39999389648</ele>
        <time>2020-05-26T13:55:01.000Z</time>
      </trkpt>
      <trkpt lat="46.31952" lon="4.70297">
        <ele>480.39999389648</ele>
        <time>2020-05-26T13:55:05.000Z</time>
      </trkpt>
      <trkpt lat="46.31977" lon="4.70296">
        <ele>479</ele>
        <time>2020-05-26T13:55:16.000Z</time>
      </trkpt>
      <trkpt lat="46.31987" lon="4.70295">
        <ele>477.20001220703</ele>
        <time>2020-05-26T13:55:21.000Z</time>
      </trkpt>
      <trkpt lat="46.31993" lon="4.70296">
        <ele>476</ele>
        <time>2020-05-26T13:55:24.000Z</time>
      </trkpt>
      <trkpt lat="46.31998" lon="4.70298">
        <ele>474.60000610352</ele>
        <time>2020-05-26T13:55:29.000Z</time>
      </trkpt>
      <trkpt lat="46.3198" lon="4.70291">
        <ele>474</ele>
        <time>2020-05-26T13:55:56.000Z</time>
      </trkpt>
      <trkpt lat="46.31977" lon="4.7029">
        <ele>474.39999389648</ele>
        <time>2020-05-26T13:55:58.000Z</time>
      </trkpt>
      <trkpt lat="46.31974" lon="4.70289">
        <ele>474.79998779297</ele>
        <time>2020-05-26T13:56:01.000Z</time>
      </trkpt>
      <trkpt lat="46.31966" lon="4.70291">
        <ele>476.20001220703</ele>
        <time>2020-05-26T13:56:09.000Z</time>
      </trkpt>
      <trkpt lat="46.31955" lon="4.70291">
        <ele>478.20001220703</ele>
        <time>2020-05-26T13:56:20.000Z</time>
      </trkpt>
      <trkpt lat="46.31936" lon="4.70291">
        <ele>480</ele>
        <time>2020-05-26T13:56:35.000Z</time>
      </trkpt>
      <trkpt lat="46.31926" lon="4.7029">
        <ele>480.20001220703</ele>
        <time>2020-05-26T13:56:39.000Z</time>
      </trkpt>
      <trkpt lat="46.31921" lon="4.70287">
        <ele>480.20001220703</ele>
        <time>2020-05-26T13:56:42.000Z</time>
      </trkpt>
      <trkpt lat="46.3192" lon="4.70285">
        <ele>480.39999389648</ele>
        <time>2020-05-26T13:56:44.000Z</time>
      </trkpt>
      <trkpt lat="46.31912" lon="4.70283">
        <ele>480.39999389648</ele>
        <time>2020-05-26T13:56:47.000Z</time>
      </trkpt>
      <trkpt lat="46.31904" lon="4.70263">
        <ele>480.39999389648</ele>
        <time>2020-05-26T13:56:55.000Z</time>
      </trkpt>
      <trkpt lat="46.31901" lon="4.70261">
        <ele>480.20001220703</ele>
        <time>2020-05-26T13:57:01.000Z</time>
      </trkpt>
      <trkpt lat="46.31892" lon="4.70265">
        <ele>480.39999389648</ele>
        <time>2020-05-26T13:57:18.000Z</time>
      </trkpt>
      <trkpt lat="46.31845" lon="4.70288">
        <ele>479.20001220703</ele>
        <time>2020-05-26T13:57:30.000Z</time>
      </trkpt>
      <trkpt lat="46.31836" lon="4.70293">
        <ele>478.39999389648</ele>
        <time>2020-05-26T13:57:32.000Z</time>
      </trkpt>
      <trkpt lat="46.31811" lon="4.70313">
        <ele>474.79998779297</ele>
        <time>2020-05-26T13:57:39.000Z</time>
      </trkpt>
      <trkpt lat="46.31804" lon="4.70321">
        <ele>473.60000610352</ele>
        <time>2020-05-26T13:57:41.000Z</time>
      </trkpt>
      <trkpt lat="46.3179" lon="4.70329">
        <ele>471.79998779297</ele>
        <time>2020-05-26T13:57:44.000Z</time>
      </trkpt>
      <trkpt lat="46.31773" lon="4.70339">
        <ele>470</ele>
        <time>2020-05-26T13:57:48.000Z</time>
      </trkpt>
      <trkpt lat="46.31752" lon="4.70349">
        <ele>467.39999389648</ele>
        <time>2020-05-26T13:57:52.000Z</time>
      </trkpt>
      <trkpt lat="46.31733" lon="4.70362">
        <ele>464.20001220703</ele>
        <time>2020-05-26T13:57:56.000Z</time>
      </trkpt>
      <trkpt lat="46.31714" lon="4.70374">
        <ele>461.79998779297</ele>
        <time>2020-05-26T13:58:00.000Z</time>
      </trkpt>
      <trkpt lat="46.31691" lon="4.70392">
        <ele>458</ele>
        <time>2020-05-26T13:58:05.000Z</time>
      </trkpt>
      <trkpt lat="46.31677" lon="4.70416">
        <ele>453.79998779297</ele>
        <time>2020-05-26T13:58:09.000Z</time>
      </trkpt>
      <trkpt lat="46.31674" lon="4.70422">
        <ele>453</ele>
        <time>2020-05-26T13:58:10.000Z</time>
      </trkpt>
      <trkpt lat="46.31661" lon="4.70444">
        <ele>449.20001220703</ele>
        <time>2020-05-26T13:58:14.000Z</time>
      </trkpt>
      <trkpt lat="46.31658" lon="4.7045">
        <ele>447.60000610352</ele>
        <time>2020-05-26T13:58:15.000Z</time>
      </trkpt>
      <trkpt lat="46.31634" lon="4.70475">
        <ele>443</ele>
        <time>2020-05-26T13:58:20.000Z</time>
      </trkpt>
      <trkpt lat="46.31628" lon="4.70481">
        <ele>442</ele>
        <time>2020-05-26T13:58:21.000Z</time>
      </trkpt>
      <trkpt lat="46.31611" lon="4.70512">
        <ele>437.79998779297</ele>
        <time>2020-05-26T13:58:25.000Z</time>
      </trkpt>
      <trkpt lat="46.31603" lon="4.70528">
        <ele>434.39999389648</ele>
        <time>2020-05-26T13:58:27.000Z</time>
      </trkpt>
      <trkpt lat="46.316" lon="4.70535">
        <ele>434.39999389648</ele>
        <time>2020-05-26T13:58:28.000Z</time>
      </trkpt>
      <trkpt lat="46.31592" lon="4.70548">
        <ele>430.79998779297</ele>
        <time>2020-05-26T13:58:30.000Z</time>
      </trkpt>
      <trkpt lat="46.31575" lon="4.70571">
        <ele>424.79998779297</ele>
        <time>2020-05-26T13:58:34.000Z</time>
      </trkpt>
      <trkpt lat="46.31561" lon="4.70587">
        <ele>422.60000610352</ele>
        <time>2020-05-26T13:58:37.000Z</time>
      </trkpt>
      <trkpt lat="46.31551" lon="4.70607">
        <ele>418</ele>
        <time>2020-05-26T13:58:44.000Z</time>
      </trkpt>
      <trkpt lat="46.31551" lon="4.70606">
        <ele>417.20001220703</ele>
        <time>2020-05-26T13:58:45.000Z</time>
      </trkpt>
      <trkpt lat="46.31552" lon="4.70622">
        <ele>416.79998779297</ele>
        <time>2020-05-26T13:58:53.000Z</time>
      </trkpt>
      <trkpt lat="46.31561" lon="4.70662">
        <ele>415.20001220703</ele>
        <time>2020-05-26T13:59:04.000Z</time>
      </trkpt>
      <trkpt lat="46.31573" lon="4.70669">
        <ele>412.60000610352</ele>
        <time>2020-05-26T13:59:09.000Z</time>
      </trkpt>
      <trkpt lat="46.31581" lon="4.70707">
        <ele>410.79998779297</ele>
        <time>2020-05-26T13:59:15.000Z</time>
      </trkpt>
      <trkpt lat="46.31567" lon="4.70761">
        <ele>407.20001220703</ele>
        <time>2020-05-26T13:59:21.000Z</time>
      </trkpt>
      <trkpt lat="46.31559" lon="4.70812">
        <ele>403.79998779297</ele>
        <time>2020-05-26T13:59:27.000Z</time>
      </trkpt>
      <trkpt lat="46.31558" lon="4.70836">
        <ele>401.20001220703</ele>
        <time>2020-05-26T13:59:30.000Z</time>
      </trkpt>
      <trkpt lat="46.3156" lon="4.70861">
        <ele>399.79998779297</ele>
        <time>2020-05-26T13:59:33.000Z</time>
      </trkpt>
      <trkpt lat="46.31569" lon="4.70884">
        <ele>398.20001220703</ele>
        <time>2020-05-26T13:59:36.000Z</time>
      </trkpt>
      <trkpt lat="46.31588" lon="4.70926">
        <ele>396.79998779297</ele>
        <time>2020-05-26T13:59:41.000Z</time>
      </trkpt>
      <trkpt lat="46.31594" lon="4.70955">
        <ele>394.60000610352</ele>
        <time>2020-05-26T13:59:44.000Z</time>
      </trkpt>
      <trkpt lat="46.31597" lon="4.70973">
        <ele>392.60000610352</ele>
        <time>2020-05-26T13:59:46.000Z</time>
      </trkpt>
      <trkpt lat="46.31594" lon="4.71008">
        <ele>391</ele>
        <time>2020-05-26T13:59:50.000Z</time>
      </trkpt>
      <trkpt lat="46.3159" lon="4.71015">
        <ele>390.79998779297</ele>
        <time>2020-05-26T13:59:51.000Z</time>
      </trkpt>
      <trkpt lat="46.31581" lon="4.71031">
        <ele>390.39999389648</ele>
        <time>2020-05-26T13:59:53.000Z</time>
      </trkpt>
      <trkpt lat="46.31571" lon="4.71077">
        <ele>389.39999389648</ele>
        <time>2020-05-26T13:59:58.000Z</time>
      </trkpt>
      <trkpt lat="46.31573" lon="4.71172">
        <ele>386</ele>
        <time>2020-05-26T14:00:10.000Z</time>
      </trkpt>
      <trkpt lat="46.31585" lon="4.71179">
        <ele>385.79998779297</ele>
        <time>2020-05-26T14:00:15.000Z</time>
      </trkpt>
      <trkpt lat="46.31592" lon="4.71178">
        <ele>385.60000610352</ele>
        <time>2020-05-26T14:00:17.000Z</time>
      </trkpt>
      <trkpt lat="46.31633" lon="4.71188">
        <ele>383.20001220703</ele>
        <time>2020-05-26T14:00:30.000Z</time>
      </trkpt>
      <trkpt lat="46.3167" lon="4.71181">
        <ele>381.79998779297</ele>
        <time>2020-05-26T14:00:42.000Z</time>
      </trkpt>
      <trkpt lat="46.31674" lon="4.71179">
        <ele>381.79998779297</ele>
        <time>2020-05-26T14:00:43.000Z</time>
      </trkpt>
      <trkpt lat="46.31693" lon="4.71183">
        <ele>381.20001220703</ele>
        <time>2020-05-26T14:00:48.000Z</time>
      </trkpt>
      <trkpt lat="46.31695" lon="4.71185">
        <ele>381</ele>
        <time>2020-05-26T14:00:49.000Z</time>
      </trkpt>
      <trkpt lat="46.31697" lon="4.71187">
        <ele>379.20001220703</ele>
        <time>2020-05-26T14:00:54.000Z</time>
      </trkpt>
      <trkpt lat="46.31707" lon="4.7119">
        <ele>378</ele>
        <time>2020-05-26T14:01:01.000Z</time>
      </trkpt>
      <trkpt lat="46.31732" lon="4.71246">
        <ele>376.20001220703</ele>
        <time>2020-05-26T14:01:12.000Z</time>
      </trkpt>
      <trkpt lat="46.31761" lon="4.71319">
        <ele>373.20001220703</ele>
        <time>2020-05-26T14:01:24.000Z</time>
      </trkpt>
      <trkpt lat="46.31786" lon="4.7138">
        <ele>372.79998779297</ele>
        <time>2020-05-26T14:01:34.000Z</time>
      </trkpt>
      <trkpt lat="46.31813" lon="4.71474">
        <ele>374.20001220703</ele>
        <time>2020-05-26T14:01:48.000Z</time>
      </trkpt>
      <trkpt lat="46.31814" lon="4.71481">
        <ele>374.20001220703</ele>
        <time>2020-05-26T14:01:49.000Z</time>
      </trkpt>
      <trkpt lat="46.31814" lon="4.71519">
        <ele>373.79998779297</ele>
        <time>2020-05-26T14:01:54.000Z</time>
      </trkpt>
      <trkpt lat="46.31818" lon="4.71561">
        <ele>373.39999389648</ele>
        <time>2020-05-26T14:02:00.000Z</time>
      </trkpt>
      <trkpt lat="46.31858" lon="4.71701">
        <ele>372</ele>
        <time>2020-05-26T14:02:19.000Z</time>
      </trkpt>
      <trkpt lat="46.31876" lon="4.71805">
        <ele>369.39999389648</ele>
        <time>2020-05-26T14:02:33.000Z</time>
      </trkpt>
      <trkpt lat="46.31878" lon="4.71815">
        <ele>368</ele>
        <time>2020-05-26T14:02:41.000Z</time>
      </trkpt>
      <trkpt lat="46.31882" lon="4.71831">
        <ele>368.79998779297</ele>
        <time>2020-05-26T14:02:47.000Z</time>
      </trkpt>
      <trkpt lat="46.31884" lon="4.71838">
        <ele>368.79998779297</ele>
        <time>2020-05-26T14:02:48.000Z</time>
      </trkpt>
      <trkpt lat="46.31885" lon="4.71844">
        <ele>368.79998779297</ele>
        <time>2020-05-26T14:02:49.000Z</time>
      </trkpt>
      <trkpt lat="46.31886" lon="4.71851">
        <ele>368.79998779297</ele>
        <time>2020-05-26T14:02:50.000Z</time>
      </trkpt>
      <trkpt lat="46.31886" lon="4.71858">
        <ele>368.79998779297</ele>
        <time>2020-05-26T14:02:51.000Z</time>
      </trkpt>
      <trkpt lat="46.31886" lon="4.71865">
        <ele>368.79998779297</ele>
        <time>2020-05-26T14:02:52.000Z</time>
      </trkpt>
      <trkpt lat="46.31885" lon="4.71914">
        <ele>367.60000610352</ele>
        <time>2020-05-26T14:02:59.000Z</time>
      </trkpt>
      <trkpt lat="46.31885" lon="4.71921">
        <ele>367</ele>
        <time>2020-05-26T14:03:00.000Z</time>
      </trkpt>
      <trkpt lat="46.31893" lon="4.71971">
        <ele>363.60000610352</ele>
        <time>2020-05-26T14:03:07.000Z</time>
      </trkpt>
      <trkpt lat="46.319" lon="4.72013">
        <ele>360.20001220703</ele>
        <time>2020-05-26T14:03:15.000Z</time>
      </trkpt>
      <trkpt lat="46.31911" lon="4.7204">
        <ele>357.39999389648</ele>
        <time>2020-05-26T14:03:22.000Z</time>
      </trkpt>
      <trkpt lat="46.31911" lon="4.72046">
        <ele>356.60000610352</ele>
        <time>2020-05-26T14:03:23.000Z</time>
      </trkpt>
      <trkpt lat="46.3191" lon="4.72059">
        <ele>356</ele>
        <time>2020-05-26T14:03:25.000Z</time>
      </trkpt>
      <trkpt lat="46.3191" lon="4.72065">
        <ele>355.39999389648</ele>
        <time>2020-05-26T14:03:26.000Z</time>
      </trkpt>
      <trkpt lat="46.3191" lon="4.7207">
        <ele>355</ele>
        <time>2020-05-26T14:03:27.000Z</time>
      </trkpt>
      <trkpt lat="46.31911" lon="4.72075">
        <ele>354.60000610352</ele>
        <time>2020-05-26T14:03:28.000Z</time>
      </trkpt>
      <trkpt lat="46.31912" lon="4.72079">
        <ele>354</ele>
        <time>2020-05-26T14:03:29.000Z</time>
      </trkpt>
      <trkpt lat="46.31913" lon="4.72085">
        <ele>353.39999389648</ele>
        <time>2020-05-26T14:03:30.000Z</time>
      </trkpt>
      <trkpt lat="46.31921" lon="4.7212">
        <ele>349.79998779297</ele>
        <time>2020-05-26T14:03:40.000Z</time>
      </trkpt>
      <trkpt lat="46.31923" lon="4.72122">
        <ele>349.39999389648</ele>
        <time>2020-05-26T14:03:41.000Z</time>
      </trkpt>
      <trkpt lat="46.31926" lon="4.72123">
        <ele>349</ele>
        <time>2020-05-26T14:03:42.000Z</time>
      </trkpt>
      <trkpt lat="46.31932" lon="4.72125">
        <ele>348.20001220703</ele>
        <time>2020-05-26T14:03:44.000Z</time>
      </trkpt>
      <trkpt lat="46.31955" lon="4.72124">
        <ele>344.39999389648</ele>
        <time>2020-05-26T14:03:49.000Z</time>
      </trkpt>
      <trkpt lat="46.31974" lon="4.72123">
        <ele>340</ele>
        <time>2020-05-26T14:03:53.000Z</time>
      </trkpt>
      <trkpt lat="46.31986" lon="4.72121">
        <ele>336.79998779297</ele>
        <time>2020-05-26T14:03:56.000Z</time>
      </trkpt>
      <trkpt lat="46.31995" lon="4.72119">
        <ele>333.60000610352</ele>
        <time>2020-05-26T14:03:59.000Z</time>
      </trkpt>
      <trkpt lat="46.32003" lon="4.72118">
        <ele>330.20001220703</ele>
        <time>2020-05-26T14:04:03.000Z</time>
      </trkpt>
      <trkpt lat="46.32003" lon="4.72118">
        <ele>329</ele>
        <time>2020-05-26T14:04:08.000Z</time>
      </trkpt>
      <trkpt lat="46.32011" lon="4.72118">
        <ele>328.79998779297</ele>
        <time>2020-05-26T14:04:13.000Z</time>
      </trkpt>
      <trkpt lat="46.32071" lon="4.72116">
        <ele>328.20001220703</ele>
        <time>2020-05-26T14:04:26.000Z</time>
      </trkpt>
      <trkpt lat="46.32077" lon="4.72116">
        <ele>328.20001220703</ele>
        <time>2020-05-26T14:04:28.000Z</time>
      </trkpt>
      <trkpt lat="46.3208" lon="4.72135">
        <ele>328.60000610352</ele>
        <time>2020-05-26T14:04:33.000Z</time>
      </trkpt>
      <trkpt lat="46.32081" lon="4.72157">
        <ele>328.79998779297</ele>
        <time>2020-05-26T14:04:36.000Z</time>
      </trkpt>
      <trkpt lat="46.32086" lon="4.72189">
        <ele>328.79998779297</ele>
        <time>2020-05-26T14:04:40.000Z</time>
      </trkpt>
      <trkpt lat="46.3209" lon="4.72229">
        <ele>326.39999389648</ele>
        <time>2020-05-26T14:04:47.000Z</time>
      </trkpt>
      <trkpt lat="46.32087" lon="4.72247">
        <ele>325.79998779297</ele>
        <time>2020-05-26T14:04:51.000Z</time>
      </trkpt>
      <trkpt lat="46.32053" lon="4.72314">
        <ele>324.79998779297</ele>
        <time>2020-05-26T14:04:59.000Z</time>
      </trkpt>
      <trkpt lat="46.32038" lon="4.72347">
        <ele>323</ele>
        <time>2020-05-26T14:05:02.000Z</time>
      </trkpt>
      <trkpt lat="46.32027" lon="4.72389">
        <ele>316.79998779297</ele>
        <time>2020-05-26T14:05:06.000Z</time>
      </trkpt>
      <trkpt lat="46.32023" lon="4.72409">
        <ele>314</ele>
        <time>2020-05-26T14:05:08.000Z</time>
      </trkpt>
      <trkpt lat="46.32012" lon="4.72444">
        <ele>308.79998779297</ele>
        <time>2020-05-26T14:05:12.000Z</time>
      </trkpt>
      <trkpt lat="46.32008" lon="4.72459">
        <ele>307.60000610352</ele>
        <time>2020-05-26T14:05:14.000Z</time>
      </trkpt>
      <trkpt lat="46.31997" lon="4.72488">
        <ele>304.60000610352</ele>
        <time>2020-05-26T14:05:19.000Z</time>
      </trkpt>
      <trkpt lat="46.31993" lon="4.7251">
        <ele>303</ele>
        <time>2020-05-26T14:05:22.000Z</time>
      </trkpt>
      <trkpt lat="46.31978" lon="4.72519">
        <ele>300.39999389648</ele>
        <time>2020-05-26T14:05:26.000Z</time>
      </trkpt>
      <trkpt lat="46.31925" lon="4.72524">
        <ele>298</ele>
        <time>2020-05-26T14:05:38.000Z</time>
      </trkpt>
      <trkpt lat="46.3191" lon="4.72537">
        <ele>298.79998779297</ele>
        <time>2020-05-26T14:05:42.000Z</time>
      </trkpt>
      <trkpt lat="46.31878" lon="4.72581">
        <ele>302.60000610352</ele>
        <time>2020-05-26T14:05:51.000Z</time>
      </trkpt>
      <trkpt lat="46.3186" lon="4.72613">
        <ele>302.79998779297</ele>
        <time>2020-05-26T14:05:57.000Z</time>
      </trkpt>
      <trkpt lat="46.31826" lon="4.72697">
        <ele>304.39999389648</ele>
        <time>2020-05-26T14:06:10.000Z</time>
      </trkpt>
      <trkpt lat="46.31816" lon="4.72715">
        <ele>304.39999389648</ele>
        <time>2020-05-26T14:06:13.000Z</time>
      </trkpt>
      <trkpt lat="46.3176" lon="4.72801">
        <ele>306.20001220703</ele>
        <time>2020-05-26T14:06:28.000Z</time>
      </trkpt>
      <trkpt lat="46.31713" lon="4.72874">
        <ele>306.60000610352</ele>
        <time>2020-05-26T14:06:41.000Z</time>
      </trkpt>
      <trkpt lat="46.31661" lon="4.72964">
        <ele>306.39999389648</ele>
        <time>2020-05-26T14:06:56.000Z</time>
      </trkpt>
      <trkpt lat="46.31576" lon="4.73073">
        <ele>303.39999389648</ele>
        <time>2020-05-26T14:07:14.000Z</time>
      </trkpt>
      <trkpt lat="46.31509" lon="4.73138">
        <ele>299.79998779297</ele>
        <time>2020-05-26T14:07:25.000Z</time>
      </trkpt>
      <trkpt lat="46.31418" lon="4.73238">
        <ele>296.60000610352</ele>
        <time>2020-05-26T14:07:41.000Z</time>
      </trkpt>
      <trkpt lat="46.31406" lon="4.7325">
        <ele>296</ele>
        <time>2020-05-26T14:07:48.000Z</time>
      </trkpt>
      <trkpt lat="46.31406" lon="4.7325">
        <ele>295.79998779297</ele>
        <time>2020-05-26T14:07:50.000Z</time>
      </trkpt>
      <trkpt lat="46.31402" lon="4.73252">
        <ele>295.60000610352</ele>
        <time>2020-05-26T14:08:00.000Z</time>
      </trkpt>
      <trkpt lat="46.31397" lon="4.73259">
        <ele>295.60000610352</ele>
        <time>2020-05-26T14:08:02.000Z</time>
      </trkpt>
      <trkpt lat="46.31388" lon="4.7329">
        <ele>295.39999389648</ele>
        <time>2020-05-26T14:08:07.000Z</time>
      </trkpt>
      <trkpt lat="46.31377" lon="4.73316">
        <ele>295</ele>
        <time>2020-05-26T14:08:11.000Z</time>
      </trkpt>
      <trkpt lat="46.31322" lon="4.73386">
        <ele>294</ele>
        <time>2020-05-26T14:08:25.000Z</time>
      </trkpt>
      <trkpt lat="46.31312" lon="4.734">
        <ele>294.20001220703</ele>
        <time>2020-05-26T14:08:28.000Z</time>
      </trkpt>
      <trkpt lat="46.31301" lon="4.73396">
        <ele>294.20001220703</ele>
        <time>2020-05-26T14:08:32.000Z</time>
      </trkpt>
      <trkpt lat="46.31279" lon="4.73306">
        <ele>294.39999389648</ele>
        <time>2020-05-26T14:08:45.000Z</time>
      </trkpt>
      <trkpt lat="46.31274" lon="4.73287">
        <ele>294.60000610352</ele>
        <time>2020-05-26T14:08:48.000Z</time>
      </trkpt>
      <trkpt lat="46.31265" lon="4.73265">
        <ele>295.39999389648</ele>
        <time>2020-05-26T14:08:52.000Z</time>
      </trkpt>
      <trkpt lat="46.31227" lon="4.73231">
        <ele>299</ele>
        <time>2020-05-26T14:09:03.000Z</time>
      </trkpt>
      <trkpt lat="46.31209" lon="4.73218">
        <ele>302.20001220703</ele>
        <time>2020-05-26T14:09:08.000Z</time>
      </trkpt>
      <trkpt lat="46.31192" lon="4.73193">
        <ele>305</ele>
        <time>2020-05-26T14:09:14.000Z</time>
      </trkpt>
      <trkpt lat="46.31189" lon="4.73189">
        <ele>305.60000610352</ele>
        <time>2020-05-26T14:09:15.000Z</time>
      </trkpt>
      <trkpt lat="46.31183" lon="4.73181">
        <ele>306.39999389648</ele>
        <time>2020-05-26T14:09:17.000Z</time>
      </trkpt>
      <trkpt lat="46.31156" lon="4.7314">
        <ele>309.39999389648</ele>
        <time>2020-05-26T14:09:27.000Z</time>
      </trkpt>
      <trkpt lat="46.31143" lon="4.73119">
        <ele>312.79998779297</ele>
        <time>2020-05-26T14:09:33.000Z</time>
      </trkpt>
      <trkpt lat="46.31123" lon="4.73093">
        <ele>316.39999389648</ele>
        <time>2020-05-26T14:09:41.000Z</time>
      </trkpt>
      <trkpt lat="46.31111" lon="4.73078">
        <ele>319.39999389648</ele>
        <time>2020-05-26T14:09:46.000Z</time>
      </trkpt>
      <trkpt lat="46.31092" lon="4.73066">
        <ele>322.79998779297</ele>
        <time>2020-05-26T14:09:52.000Z</time>
      </trkpt>
      <trkpt lat="46.31083" lon="4.73058">
        <ele>324.20001220703</ele>
        <time>2020-05-26T14:09:55.000Z</time>
      </trkpt>
      <trkpt lat="46.31063" lon="4.73017">
        <ele>327.60000610352</ele>
        <time>2020-05-26T14:10:05.000Z</time>
      </trkpt>
      <trkpt lat="46.31059" lon="4.73008">
        <ele>328.39999389648</ele>
        <time>2020-05-26T14:10:07.000Z</time>
      </trkpt>
      <trkpt lat="46.31032" lon="4.72942">
        <ele>330</ele>
        <time>2020-05-26T14:10:21.000Z</time>
      </trkpt>
      <trkpt lat="46.31006" lon="4.72857">
        <ele>330.20001220703</ele>
        <time>2020-05-26T14:10:36.000Z</time>
      </trkpt>
      <trkpt lat="46.30979" lon="4.72774">
        <ele>329.60000610352</ele>
        <time>2020-05-26T14:10:49.000Z</time>
      </trkpt>
      <trkpt lat="46.3096" lon="4.72669">
        <ele>329</ele>
        <time>2020-05-26T14:11:04.000Z</time>
      </trkpt>
      <trkpt lat="46.30949" lon="4.726">
        <ele>329.79998779297</ele>
        <time>2020-05-26T14:11:18.000Z</time>
      </trkpt>
      <trkpt lat="46.30949" lon="4.72601">
        <ele>329.60000610352</ele>
        <time>2020-05-26T14:11:21.000Z</time>
      </trkpt>
      <trkpt lat="46.30942" lon="4.72601">
        <ele>328.60000610352</ele>
        <time>2020-05-26T14:12:06.000Z</time>
      </trkpt>
      <trkpt lat="46.30941" lon="4.72607">
        <ele>328.39999389648</ele>
        <time>2020-05-26T14:12:13.000Z</time>
      </trkpt>
      <trkpt lat="46.30942" lon="4.72606">
        <ele>328.39999389648</ele>
        <time>2020-05-26T14:16:48.000Z</time>
      </trkpt>
      <trkpt lat="46.3094" lon="4.72618">
        <ele>328.39999389648</ele>
        <time>2020-05-26T14:16:51.000Z</time>
      </trkpt>
      <trkpt lat="46.30931" lon="4.72688">
        <ele>326.60000610352</ele>
        <time>2020-05-26T14:17:05.000Z</time>
      </trkpt>
      <trkpt lat="46.3093" lon="4.72739">
        <ele>323.79998779297</ele>
        <time>2020-05-26T14:17:15.000Z</time>
      </trkpt>
      <trkpt lat="46.30929" lon="4.72764">
        <ele>322.20001220703</ele>
        <time>2020-05-26T14:17:25.000Z</time>
      </trkpt>
      <trkpt lat="46.30929" lon="4.72764">
        <ele>322.20001220703</ele>
        <time>2020-05-26T14:17:26.000Z</time>
      </trkpt>
      <trkpt lat="46.3093" lon="4.72751">
        <ele>321.79998779297</ele>
        <time>2020-05-26T14:18:02.000Z</time>
      </trkpt>
      <trkpt lat="46.30929" lon="4.72742">
        <ele>321.79998779297</ele>
        <time>2020-05-26T14:18:04.000Z</time>
      </trkpt>
      <trkpt lat="46.3093" lon="4.7269">
        <ele>322.39999389648</ele>
        <time>2020-05-26T14:18:14.000Z</time>
      </trkpt>
      <trkpt lat="46.30944" lon="4.7259">
        <ele>325.79998779297</ele>
        <time>2020-05-26T14:18:32.000Z</time>
      </trkpt>
      <trkpt lat="46.30952" lon="4.72516">
        <ele>327.60000610352</ele>
        <time>2020-05-26T14:18:45.000Z</time>
      </trkpt>
      <trkpt lat="46.30949" lon="4.72483">
        <ele>324.60000610352</ele>
        <time>2020-05-26T14:18:54.000Z</time>
      </trkpt>
      <trkpt lat="46.30946" lon="4.72465">
        <ele>321.39999389648</ele>
        <time>2020-05-26T14:19:02.000Z</time>
      </trkpt>
      <trkpt lat="46.30926" lon="4.72441">
        <ele>319.20001220703</ele>
        <time>2020-05-26T14:19:13.000Z</time>
      </trkpt>
      <trkpt lat="46.30911" lon="4.72414">
        <ele>315.60000610352</ele>
        <time>2020-05-26T14:19:20.000Z</time>
      </trkpt>
      <trkpt lat="46.30908" lon="4.72405">
        <ele>314.60000610352</ele>
        <time>2020-05-26T14:19:22.000Z</time>
      </trkpt>
      <trkpt lat="46.30899" lon="4.72364">
        <ele>310.79998779297</ele>
        <time>2020-05-26T14:19:30.000Z</time>
      </trkpt>
      <trkpt lat="46.30914" lon="4.72307">
        <ele>308.60000610352</ele>
        <time>2020-05-26T14:19:41.000Z</time>
      </trkpt>
      <trkpt lat="46.30945" lon="4.72247">
        <ele>309.79998779297</ele>
        <time>2020-05-26T14:19:55.000Z</time>
      </trkpt>
      <trkpt lat="46.30965" lon="4.72203">
        <ele>313</ele>
        <time>2020-05-26T14:20:05.000Z</time>
      </trkpt>
      <trkpt lat="46.30986" lon="4.72139">
        <ele>313.39999389648</ele>
        <time>2020-05-26T14:20:20.000Z</time>
      </trkpt>
      <trkpt lat="46.30993" lon="4.72127">
        <ele>313.60000610352</ele>
        <time>2020-05-26T14:20:25.000Z</time>
      </trkpt>
      <trkpt lat="46.30988" lon="4.72127">
        <ele>314.20001220703</ele>
        <time>2020-05-26T14:20:29.000Z</time>
      </trkpt>
      <trkpt lat="46.30982" lon="4.72138">
        <ele>313.79998779297</ele>
        <time>2020-05-26T14:20:38.000Z</time>
      </trkpt>
      <trkpt lat="46.30987" lon="4.72133">
        <ele>312.39999389648</ele>
        <time>2020-05-26T14:20:52.000Z</time>
      </trkpt>
      <trkpt lat="46.30992" lon="4.72126">
        <ele>313.20001220703</ele>
        <time>2020-05-26T14:21:02.000Z</time>
      </trkpt>
      <trkpt lat="46.30997" lon="4.72121">
        <ele>314.60000610352</ele>
        <time>2020-05-26T14:21:09.000Z</time>
      </trkpt>
      <trkpt lat="46.30999" lon="4.72118">
        <ele>314.60000610352</ele>
        <time>2020-05-26T14:21:10.000Z</time>
      </trkpt>
      <trkpt lat="46.31011" lon="4.72079">
        <ele>316</ele>
        <time>2020-05-26T14:21:20.000Z</time>
      </trkpt>
      <trkpt lat="46.31012" lon="4.71993">
        <ele>316.20001220703</ele>
        <time>2020-05-26T14:21:36.000Z</time>
      </trkpt>
      <trkpt lat="46.31018" lon="4.71958">
        <ele>316</ele>
        <time>2020-05-26T14:21:43.000Z</time>
      </trkpt>
      <trkpt lat="46.31024" lon="4.71942">
        <ele>316.20001220703</ele>
        <time>2020-05-26T14:21:46.000Z</time>
      </trkpt>
      <trkpt lat="46.31046" lon="4.7186">
        <ele>319.39999389648</ele>
        <time>2020-05-26T14:22:01.000Z</time>
      </trkpt>
      <trkpt lat="46.31056" lon="4.71818">
        <ele>322.79998779297</ele>
        <time>2020-05-26T14:22:09.000Z</time>
      </trkpt>
      <trkpt lat="46.31061" lon="4.71783">
        <ele>325.79998779297</ele>
        <time>2020-05-26T14:22:16.000Z</time>
      </trkpt>
      <trkpt lat="46.31057" lon="4.71778">
        <ele>327</ele>
        <time>2020-05-26T14:22:19.000Z</time>
      </trkpt>
      <trkpt lat="46.31036" lon="4.71793">
        <ele>327.20001220703</ele>
        <time>2020-05-26T14:22:24.000Z</time>
      </trkpt>
      <trkpt lat="46.30994" lon="4.71804">
        <ele>324</ele>
        <time>2020-05-26T14:22:31.000Z</time>
      </trkpt>
      <trkpt lat="46.30987" lon="4.71805">
        <ele>323.39999389648</ele>
        <time>2020-05-26T14:22:32.000Z</time>
      </trkpt>
      <trkpt lat="46.3098" lon="4.71807">
        <ele>322.60000610352</ele>
        <time>2020-05-26T14:22:33.000Z</time>
      </trkpt>
      <trkpt lat="46.30952" lon="4.71819">
        <ele>319.20001220703</ele>
        <time>2020-05-26T14:22:37.000Z</time>
      </trkpt>
      <trkpt lat="46.30932" lon="4.71828">
        <ele>316</ele>
        <time>2020-05-26T14:22:40.000Z</time>
      </trkpt>
      <trkpt lat="46.30913" lon="4.71835">
        <ele>312.79998779297</ele>
        <time>2020-05-26T14:22:43.000Z</time>
      </trkpt>
      <trkpt lat="46.30898" lon="4.71841">
        <ele>308.79998779297</ele>
        <time>2020-05-26T14:22:46.000Z</time>
      </trkpt>
      <trkpt lat="46.3089" lon="4.71843">
        <ele>305</ele>
        <time>2020-05-26T14:22:49.000Z</time>
      </trkpt>
      <trkpt lat="46.30888" lon="4.71846">
        <ele>302.79998779297</ele>
        <time>2020-05-26T14:22:52.000Z</time>
      </trkpt>
      <trkpt lat="46.30883" lon="4.71864">
        <ele>300</ele>
        <time>2020-05-26T14:22:56.000Z</time>
      </trkpt>
      <trkpt lat="46.30886" lon="4.7198">
        <ele>297.60000610352</ele>
        <time>2020-05-26T14:23:07.000Z</time>
      </trkpt>
      <trkpt lat="46.30887" lon="4.7203">
        <ele>294.39999389648</ele>
        <time>2020-05-26T14:23:11.000Z</time>
      </trkpt>
      <trkpt lat="46.30888" lon="4.7206">
        <ele>290.60000610352</ele>
        <time>2020-05-26T14:23:14.000Z</time>
      </trkpt>
      <trkpt lat="46.30889" lon="4.72074">
        <ele>289</ele>
        <time>2020-05-26T14:23:16.000Z</time>
      </trkpt>
      <trkpt lat="46.3088" lon="4.72098">
        <ele>286.20001220703</ele>
        <time>2020-05-26T14:23:20.000Z</time>
      </trkpt>
      <trkpt lat="46.30859" lon="4.7211">
        <ele>285.79998779297</ele>
        <time>2020-05-26T14:23:23.000Z</time>
      </trkpt>
      <trkpt lat="46.3081" lon="4.72117">
        <ele>282</ele>
        <time>2020-05-26T14:23:29.000Z</time>
      </trkpt>
      <trkpt lat="46.30789" lon="4.72121">
        <ele>277.39999389648</ele>
        <time>2020-05-26T14:23:32.000Z</time>
      </trkpt>
      <trkpt lat="46.30776" lon="4.72124">
        <ele>274.79998779297</ele>
        <time>2020-05-26T14:23:34.000Z</time>
      </trkpt>
      <trkpt lat="46.3075" lon="4.72152">
        <ele>270.20001220703</ele>
        <time>2020-05-26T14:23:40.000Z</time>
      </trkpt>
      <trkpt lat="46.30748" lon="4.72159">
        <ele>269.60000610352</ele>
        <time>2020-05-26T14:23:41.000Z</time>
      </trkpt>
      <trkpt lat="46.30725" lon="4.72304">
        <ele>266.79998779297</ele>
        <time>2020-05-26T14:23:58.000Z</time>
      </trkpt>
      <trkpt lat="46.30713" lon="4.72357">
        <ele>267.39999389648</ele>
        <time>2020-05-26T14:24:04.000Z</time>
      </trkpt>
      <trkpt lat="46.30691" lon="4.72433">
        <ele>269.20001220703</ele>
        <time>2020-05-26T14:24:15.000Z</time>
      </trkpt>
      <trkpt lat="46.30678" lon="4.72511">
        <ele>272.60000610352</ele>
        <time>2020-05-26T14:24:28.000Z</time>
      </trkpt>
      <trkpt lat="46.30677" lon="4.72517">
        <ele>272.79998779297</ele>
        <time>2020-05-26T14:24:29.000Z</time>
      </trkpt>
      <trkpt lat="46.30664" lon="4.72544">
        <ele>273.39999389648</ele>
        <time>2020-05-26T14:24:35.000Z</time>
      </trkpt>
      <trkpt lat="46.30654" lon="4.72583">
        <ele>275.39999389648</ele>
        <time>2020-05-26T14:24:43.000Z</time>
      </trkpt>
      <trkpt lat="46.30644" lon="4.72611">
        <ele>278.79998779297</ele>
        <time>2020-05-26T14:24:49.000Z</time>
      </trkpt>
      <trkpt lat="46.30635" lon="4.72637">
        <ele>282.60000610352</ele>
        <time>2020-05-26T14:24:55.000Z</time>
      </trkpt>
      <trkpt lat="46.30633" lon="4.72642">
        <ele>282.60000610352</ele>
        <time>2020-05-26T14:24:56.000Z</time>
      </trkpt>
      <trkpt lat="46.30627" lon="4.72669">
        <ele>286</ele>
        <time>2020-05-26T14:25:01.000Z</time>
      </trkpt>
      <trkpt lat="46.30624" lon="4.72681">
        <ele>287</ele>
        <time>2020-05-26T14:25:03.000Z</time>
      </trkpt>
      <trkpt lat="46.30612" lon="4.72718">
        <ele>288.79998779297</ele>
        <time>2020-05-26T14:25:10.000Z</time>
      </trkpt>
      <trkpt lat="46.30603" lon="4.72731">
        <ele>289</ele>
        <time>2020-05-26T14:25:13.000Z</time>
      </trkpt>
      <trkpt lat="46.30588" lon="4.72743">
        <ele>289.79998779297</ele>
        <time>2020-05-26T14:25:17.000Z</time>
      </trkpt>
      <trkpt lat="46.30552" lon="4.7281">
        <ele>292.79998779297</ele>
        <time>2020-05-26T14:25:31.000Z</time>
      </trkpt>
      <trkpt lat="46.30503" lon="4.72873">
        <ele>294.39999389648</ele>
        <time>2020-05-26T14:25:46.000Z</time>
      </trkpt>
      <trkpt lat="46.30475" lon="4.72918">
        <ele>296.39999389648</ele>
        <time>2020-05-26T14:25:56.000Z</time>
      </trkpt>
      <trkpt lat="46.30469" lon="4.72933">
        <ele>296.79998779297</ele>
        <time>2020-05-26T14:25:59.000Z</time>
      </trkpt>
      <trkpt lat="46.30451" lon="4.72965">
        <ele>298.60000610352</ele>
        <time>2020-05-26T14:26:06.000Z</time>
      </trkpt>
      <trkpt lat="46.30422" lon="4.73014">
        <ele>302.20001220703</ele>
        <time>2020-05-26T14:26:18.000Z</time>
      </trkpt>
      <trkpt lat="46.30406" lon="4.73046">
        <ele>305</ele>
        <time>2020-05-26T14:26:25.000Z</time>
      </trkpt>
      <trkpt lat="46.30381" lon="4.73087">
        <ele>308.60000610352</ele>
        <time>2020-05-26T14:26:35.000Z</time>
      </trkpt>
      <trkpt lat="46.30351" lon="4.7312">
        <ele>311.79998779297</ele>
        <time>2020-05-26T14:26:45.000Z</time>
      </trkpt>
      <trkpt lat="46.30316" lon="4.73139">
        <ele>315.39999389648</ele>
        <time>2020-05-26T14:26:55.000Z</time>
      </trkpt>
      <trkpt lat="46.30292" lon="4.73145">
        <ele>318.60000610352</ele>
        <time>2020-05-26T14:27:02.000Z</time>
      </trkpt>
      <trkpt lat="46.30268" lon="4.73155">
        <ele>321.79998779297</ele>
        <time>2020-05-26T14:27:09.000Z</time>
      </trkpt>
      <trkpt lat="46.30248" lon="4.73168">
        <ele>324.79998779297</ele>
        <time>2020-05-26T14:27:15.000Z</time>
      </trkpt>
      <trkpt lat="46.30227" lon="4.73168">
        <ele>328</ele>
        <time>2020-05-26T14:27:21.000Z</time>
      </trkpt>
      <trkpt lat="46.30217" lon="4.73163">
        <ele>329.20001220703</ele>
        <time>2020-05-26T14:27:24.000Z</time>
      </trkpt>
      <trkpt lat="46.30199" lon="4.7315">
        <ele>332.60000610352</ele>
        <time>2020-05-26T14:27:30.000Z</time>
      </trkpt>
      <trkpt lat="46.30182" lon="4.73135">
        <ele>335.79998779297</ele>
        <time>2020-05-26T14:27:36.000Z</time>
      </trkpt>
      <trkpt lat="46.30164" lon="4.73115">
        <ele>339.20001220703</ele>
        <time>2020-05-26T14:27:43.000Z</time>
      </trkpt>
      <trkpt lat="46.30162" lon="4.73112">
        <ele>339.60000610352</ele>
        <time>2020-05-26T14:27:44.000Z</time>
      </trkpt>
      <trkpt lat="46.30158" lon="4.7311">
        <ele>340.39999389648</ele>
        <time>2020-05-26T14:27:46.000Z</time>
      </trkpt>
      <trkpt lat="46.30155" lon="4.73118">
        <ele>342.39999389648</ele>
        <time>2020-05-26T14:27:49.000Z</time>
      </trkpt>
      <trkpt lat="46.30152" lon="4.73137">
        <ele>343.39999389648</ele>
        <time>2020-05-26T14:27:53.000Z</time>
      </trkpt>
      <trkpt lat="46.3014" lon="4.73192">
        <ele>343</ele>
        <time>2020-05-26T14:28:03.000Z</time>
      </trkpt>
      <trkpt lat="46.3014" lon="4.73204">
        <ele>342</ele>
        <time>2020-05-26T14:28:05.000Z</time>
      </trkpt>
      <trkpt lat="46.30132" lon="4.73233">
        <ele>339.20001220703</ele>
        <time>2020-05-26T14:28:10.000Z</time>
      </trkpt>
      <trkpt lat="46.30125" lon="4.73243">
        <ele>337.60000610352</ele>
        <time>2020-05-26T14:28:12.000Z</time>
      </trkpt>
      <trkpt lat="46.301" lon="4.73315">
        <ele>333.60000610352</ele>
        <time>2020-05-26T14:28:22.000Z</time>
      </trkpt>
      <trkpt lat="46.30083" lon="4.73359">
        <ele>332.79998779297</ele>
        <time>2020-05-26T14:28:29.000Z</time>
      </trkpt>
      <trkpt lat="46.30051" lon="4.73369">
        <ele>329.20001220703</ele>
        <time>2020-05-26T14:28:39.000Z</time>
      </trkpt>
      <trkpt lat="46.30051" lon="4.73368">
        <ele>328.79998779297</ele>
        <time>2020-05-26T14:28:42.000Z</time>
      </trkpt>
      <trkpt lat="46.3005" lon="4.73374">
        <ele>328.60000610352</ele>
        <time>2020-05-26T14:28:55.000Z</time>
      </trkpt>
      <trkpt lat="46.30044" lon="4.7338">
        <ele>328.60000610352</ele>
        <time>2020-05-26T14:28:57.000Z</time>
      </trkpt>
      <trkpt lat="46.29994" lon="4.73419">
        <ele>325.39999389648</ele>
        <time>2020-05-26T14:29:10.000Z</time>
      </trkpt>
      <trkpt lat="46.29978" lon="4.73431">
        <ele>322.20001220703</ele>
        <time>2020-05-26T14:29:14.000Z</time>
      </trkpt>
      <trkpt lat="46.29962" lon="4.73441">
        <ele>318.39999389648</ele>
        <time>2020-05-26T14:29:18.000Z</time>
      </trkpt>
      <trkpt lat="46.2995" lon="4.73448">
        <ele>316.79998779297</ele>
        <time>2020-05-26T14:29:22.000Z</time>
      </trkpt>
      <trkpt lat="46.29943" lon="4.73433">
        <ele>312.79998779297</ele>
        <time>2020-05-26T14:29:28.000Z</time>
      </trkpt>
      <trkpt lat="46.29943" lon="4.73421">
        <ele>311.60000610352</ele>
        <time>2020-05-26T14:29:31.000Z</time>
      </trkpt>
      <trkpt lat="46.29939" lon="4.73422">
        <ele>311.39999389648</ele>
        <time>2020-05-26T14:29:34.000Z</time>
      </trkpt>
      <trkpt lat="46.29937" lon="4.73437">
        <ele>311.20001220703</ele>
        <time>2020-05-26T14:29:37.000Z</time>
      </trkpt>
      <trkpt lat="46.29909" lon="4.73523">
        <ele>307.39999389648</ele>
        <time>2020-05-26T14:29:49.000Z</time>
      </trkpt>
      <trkpt lat="46.29896" lon="4.73575">
        <ele>304.60000610352</ele>
        <time>2020-05-26T14:29:55.000Z</time>
      </trkpt>
      <trkpt lat="46.29908" lon="4.73635">
        <ele>300.60000610352</ele>
        <time>2020-05-26T14:30:02.000Z</time>
      </trkpt>
      <trkpt lat="46.29909" lon="4.73645">
        <ele>299.79998779297</ele>
        <time>2020-05-26T14:30:03.000Z</time>
      </trkpt>
      <trkpt lat="46.29914" lon="4.73693">
        <ele>295.20001220703</ele>
        <time>2020-05-26T14:30:08.000Z</time>
      </trkpt>
      <trkpt lat="46.29917" lon="4.7375">
        <ele>292</ele>
        <time>2020-05-26T14:30:15.000Z</time>
      </trkpt>
      <trkpt lat="46.29925" lon="4.73859">
        <ele>290.39999389648</ele>
        <time>2020-05-26T14:30:28.000Z</time>
      </trkpt>
      <trkpt lat="46.29926" lon="4.73888">
        <ele>290</ele>
        <time>2020-05-26T14:30:31.000Z</time>
      </trkpt>
      <trkpt lat="46.29929" lon="4.73933">
        <ele>286</ele>
        <time>2020-05-26T14:30:38.000Z</time>
      </trkpt>
      <trkpt lat="46.29928" lon="4.73985">
        <ele>284</ele>
        <time>2020-05-26T14:30:50.000Z</time>
      </trkpt>
      <trkpt lat="46.29931" lon="4.74003">
        <ele>283.20001220703</ele>
        <time>2020-05-26T14:30:53.000Z</time>
      </trkpt>
      <trkpt lat="46.29947" lon="4.74031">
        <ele>280.39999389648</ele>
        <time>2020-05-26T14:30:58.000Z</time>
      </trkpt>
      <trkpt lat="46.29951" lon="4.74037">
        <ele>279.39999389648</ele>
        <time>2020-05-26T14:30:59.000Z</time>
      </trkpt>
      <trkpt lat="46.29965" lon="4.74072">
        <ele>275.60000610352</ele>
        <time>2020-05-26T14:31:04.000Z</time>
      </trkpt>
      <trkpt lat="46.29976" lon="4.74112">
        <ele>272.39999389648</ele>
        <time>2020-05-26T14:31:09.000Z</time>
      </trkpt>
      <trkpt lat="46.29985" lon="4.74145">
        <ele>269</ele>
        <time>2020-05-26T14:31:13.000Z</time>
      </trkpt>
      <trkpt lat="46.29996" lon="4.74188">
        <ele>264.79998779297</ele>
        <time>2020-05-26T14:31:18.000Z</time>
      </trkpt>
      <trkpt lat="46.30004" lon="4.74221">
        <ele>261</ele>
        <time>2020-05-26T14:31:22.000Z</time>
      </trkpt>
      <trkpt lat="46.30009" lon="4.74242">
        <ele>256.60000610352</ele>
        <time>2020-05-26T14:31:25.000Z</time>
      </trkpt>
      <trkpt lat="46.3001" lon="4.74248">
        <ele>256.60000610352</ele>
        <time>2020-05-26T14:31:26.000Z</time>
      </trkpt>
      <trkpt lat="46.30011" lon="4.74261">
        <ele>252.80000305176</ele>
        <time>2020-05-26T14:31:29.000Z</time>
      </trkpt>
      <trkpt lat="46.30011" lon="4.74266">
        <ele>252.19999694824</ele>
        <time>2020-05-26T14:31:30.000Z</time>
      </trkpt>
      <trkpt lat="46.30002" lon="4.74296">
        <ele>250.39999389648</ele>
        <time>2020-05-26T14:31:34.000Z</time>
      </trkpt>
      <trkpt lat="46.29987" lon="4.74347">
        <ele>246.60000610352</ele>
        <time>2020-05-26T14:31:42.000Z</time>
      </trkpt>
      <trkpt lat="46.29987" lon="4.74346">
        <ele>243.60000610352</ele>
        <time>2020-05-26T14:31:46.000Z</time>
      </trkpt>
      <trkpt lat="46.29983" lon="4.74344">
        <ele>242.80000305176</ele>
        <time>2020-05-26T14:31:51.000Z</time>
      </trkpt>
      <trkpt lat="46.29973" lon="4.74321">
        <ele>242.80000305176</ele>
        <time>2020-05-26T14:31:57.000Z</time>
      </trkpt>
      <trkpt lat="46.29939" lon="4.74253">
        <ele>245.80000305176</ele>
        <time>2020-05-26T14:32:15.000Z</time>
      </trkpt>
      <trkpt lat="46.29938" lon="4.74251">
        <ele>246.80000305176</ele>
        <time>2020-05-26T14:32:20.000Z</time>
      </trkpt>
      <trkpt lat="46.29931" lon="4.74252">
        <ele>247.60000610352</ele>
        <time>2020-05-26T14:32:29.000Z</time>
      </trkpt>
      <trkpt lat="46.29926" lon="4.74253">
        <ele>247.60000610352</ele>
        <time>2020-05-26T14:32:31.000Z</time>
      </trkpt>
      <trkpt lat="46.29876" lon="4.74279">
        <ele>244</ele>
        <time>2020-05-26T14:32:44.000Z</time>
      </trkpt>
      <trkpt lat="46.2986" lon="4.74289">
        <ele>241</ele>
        <time>2020-05-26T14:32:48.000Z</time>
      </trkpt>
      <trkpt lat="46.29849" lon="4.74293">
        <ele>239.60000610352</ele>
        <time>2020-05-26T14:32:51.000Z</time>
      </trkpt>
      <trkpt lat="46.29819" lon="4.74292">
        <ele>238.80000305176</ele>
        <time>2020-05-26T14:33:01.000Z</time>
      </trkpt>
      <trkpt lat="46.2976" lon="4.74293">
        <ele>242.19999694824</ele>
        <time>2020-05-26T14:33:17.000Z</time>
      </trkpt>
      <trkpt lat="46.29743" lon="4.74294">
        <ele>245.80000305176</ele>
        <time>2020-05-26T14:33:23.000Z</time>
      </trkpt>
      <trkpt lat="46.29735" lon="4.74295">
        <ele>247.39999389648</ele>
        <time>2020-05-26T14:33:26.000Z</time>
      </trkpt>
      <trkpt lat="46.29722" lon="4.74295">
        <ele>250.60000610352</ele>
        <time>2020-05-26T14:33:31.000Z</time>
      </trkpt>
      <trkpt lat="46.29706" lon="4.74304">
        <ele>254</ele>
        <time>2020-05-26T14:33:37.000Z</time>
      </trkpt>
      <trkpt lat="46.29686" lon="4.74309">
        <ele>257.39999389648</ele>
        <time>2020-05-26T14:33:44.000Z</time>
      </trkpt>
      <trkpt lat="46.29677" lon="4.74311">
        <ele>258.60000610352</ele>
        <time>2020-05-26T14:33:47.000Z</time>
      </trkpt>
      <trkpt lat="46.29652" lon="4.74317">
        <ele>261.79998779297</ele>
        <time>2020-05-26T14:33:55.000Z</time>
      </trkpt>
      <trkpt lat="46.2963" lon="4.7432">
        <ele>265</ele>
        <time>2020-05-26T14:34:02.000Z</time>
      </trkpt>
      <trkpt lat="46.29601" lon="4.74317">
        <ele>268.39999389648</ele>
        <time>2020-05-26T14:34:11.000Z</time>
      </trkpt>
      <trkpt lat="46.29598" lon="4.74316">
        <ele>269.20001220703</ele>
        <time>2020-05-26T14:34:12.000Z</time>
      </trkpt>
      <trkpt lat="46.29572" lon="4.74314">
        <ele>271.60000610352</ele>
        <time>2020-05-26T14:34:20.000Z</time>
      </trkpt>
      <trkpt lat="46.29528" lon="4.74304">
        <ele>274.60000610352</ele>
        <time>2020-05-26T14:34:34.000Z</time>
      </trkpt>
      <trkpt lat="46.29503" lon="4.74294">
        <ele>275.39999389648</ele>
        <time>2020-05-26T14:34:43.000Z</time>
      </trkpt>
      <trkpt lat="46.2945" lon="4.74297">
        <ele>275.39999389648</ele>
        <time>2020-05-26T14:34:56.000Z</time>
      </trkpt>
      <trkpt lat="46.29422" lon="4.74297">
        <ele>274</ele>
        <time>2020-05-26T14:35:02.000Z</time>
      </trkpt>
      <trkpt lat="46.29388" lon="4.74287">
        <ele>270.39999389648</ele>
        <time>2020-05-26T14:35:08.000Z</time>
      </trkpt>
      <trkpt lat="46.29364" lon="4.74276">
        <ele>266.60000610352</ele>
        <time>2020-05-26T14:35:13.000Z</time>
      </trkpt>
      <trkpt lat="46.29349" lon="4.74291">
        <ele>262.60000610352</ele>
        <time>2020-05-26T14:35:19.000Z</time>
      </trkpt>
      <trkpt lat="46.29337" lon="4.74296">
        <ele>261.79998779297</ele>
        <time>2020-05-26T14:35:22.000Z</time>
      </trkpt>
      <trkpt lat="46.29306" lon="4.74307">
        <ele>259.60000610352</ele>
        <time>2020-05-26T14:35:29.000Z</time>
      </trkpt>
      <trkpt lat="46.29222" lon="4.74355">
        <ele>259.20001220703</ele>
        <time>2020-05-26T14:35:45.000Z</time>
      </trkpt>
      <trkpt lat="46.29137" lon="4.74361">
        <ele>261.39999389648</ele>
        <time>2020-05-26T14:36:01.000Z</time>
      </trkpt>
      <trkpt lat="46.29115" lon="4.74356">
        <ele>261.79998779297</ele>
        <time>2020-05-26T14:36:05.000Z</time>
      </trkpt>
      <trkpt lat="46.2907" lon="4.74345">
        <ele>261.60000610352</ele>
        <time>2020-05-26T14:36:15.000Z</time>
      </trkpt>
      <trkpt lat="46.29054" lon="4.74331">
        <ele>261.39999389648</ele>
        <time>2020-05-26T14:36:19.000Z</time>
      </trkpt>
      <trkpt lat="46.28997" lon="4.74275">
        <ele>261.39999389648</ele>
        <time>2020-05-26T14:36:33.000Z</time>
      </trkpt>
      <trkpt lat="46.28992" lon="4.74271">
        <ele>261.39999389648</ele>
        <time>2020-05-26T14:36:35.000Z</time>
      </trkpt>
      <trkpt lat="46.28984" lon="4.7428">
        <ele>261.60000610352</ele>
        <time>2020-05-26T14:36:40.000Z</time>
      </trkpt>
      <trkpt lat="46.28984" lon="4.74298">
        <ele>261.60000610352</ele>
        <time>2020-05-26T14:36:44.000Z</time>
      </trkpt>
      <trkpt lat="46.28986" lon="4.74318">
        <ele>261.60000610352</ele>
        <time>2020-05-26T14:36:47.000Z</time>
      </trkpt>
      <trkpt lat="46.28995" lon="4.74404">
        <ele>259.60000610352</ele>
        <time>2020-05-26T14:36:58.000Z</time>
      </trkpt>
      <trkpt lat="46.29001" lon="4.74428">
        <ele>258.79998779297</ele>
        <time>2020-05-26T14:37:01.000Z</time>
      </trkpt>
      <trkpt lat="46.29001" lon="4.74484">
        <ele>258.20001220703</ele>
        <time>2020-05-26T14:37:08.000Z</time>
      </trkpt>
      <trkpt lat="46.28998" lon="4.74527">
        <ele>258.39999389648</ele>
        <time>2020-05-26T14:37:14.000Z</time>
      </trkpt>
      <trkpt lat="46.28994" lon="4.74587">
        <ele>262</ele>
        <time>2020-05-26T14:37:24.000Z</time>
      </trkpt>
      <trkpt lat="46.28993" lon="4.74592">
        <ele>262.20001220703</ele>
        <time>2020-05-26T14:37:25.000Z</time>
      </trkpt>
      <trkpt lat="46.28993" lon="4.74604">
        <ele>263</ele>
        <time>2020-05-26T14:37:27.000Z</time>
      </trkpt>
      <trkpt lat="46.28993" lon="4.74616">
        <ele>263.60000610352</ele>
        <time>2020-05-26T14:37:29.000Z</time>
      </trkpt>
      <trkpt lat="46.28992" lon="4.74661">
        <ele>265.60000610352</ele>
        <time>2020-05-26T14:37:36.000Z</time>
      </trkpt>
      <trkpt lat="46.28994" lon="4.74693">
        <ele>265.79998779297</ele>
        <time>2020-05-26T14:37:41.000Z</time>
      </trkpt>
      <trkpt lat="46.29" lon="4.74719">
        <ele>265.79998779297</ele>
        <time>2020-05-26T14:37:45.000Z</time>
      </trkpt>
      <trkpt lat="46.29006" lon="4.74746">
        <ele>265.60000610352</ele>
        <time>2020-05-26T14:37:49.000Z</time>
      </trkpt>
      <trkpt lat="46.29007" lon="4.74804">
        <ele>265.60000610352</ele>
        <time>2020-05-26T14:37:58.000Z</time>
      </trkpt>
      <trkpt lat="46.29026" lon="4.74871">
        <ele>265.20001220703</ele>
        <time>2020-05-26T14:38:09.000Z</time>
      </trkpt>
      <trkpt lat="46.29015" lon="4.74883">
        <ele>264.79998779297</ele>
        <time>2020-05-26T14:38:14.000Z</time>
      </trkpt>
      <trkpt lat="46.28955" lon="4.74895">
        <ele>264.20001220703</ele>
        <time>2020-05-26T14:38:27.000Z</time>
      </trkpt>
      <trkpt lat="46.28952" lon="4.74915">
        <ele>263.20001220703</ele>
        <time>2020-05-26T14:38:32.000Z</time>
      </trkpt>
      <trkpt lat="46.2897" lon="4.74998">
        <ele>261.79998779297</ele>
        <time>2020-05-26T14:38:45.000Z</time>
      </trkpt>
      <trkpt lat="46.28971" lon="4.74997">
        <ele>261.39999389648</ele>
        <time>2020-05-26T14:38:53.000Z</time>
      </trkpt>
      <trkpt lat="46.28953" lon="4.74999">
        <ele>261.39999389648</ele>
        <time>2020-05-26T14:38:59.000Z</time>
      </trkpt>
      <trkpt lat="46.28867" lon="4.7508">
        <ele>258.60000610352</ele>
        <time>2020-05-26T14:39:16.000Z</time>
      </trkpt>
      <trkpt lat="46.28829" lon="4.75114">
        <ele>256.60000610352</ele>
        <time>2020-05-26T14:39:25.000Z</time>
      </trkpt>
      <trkpt lat="46.28794" lon="4.75093">
        <ele>253.60000610352</ele>
        <time>2020-05-26T14:39:33.000Z</time>
      </trkpt>
      <trkpt lat="46.28784" lon="4.75085">
        <ele>253.19999694824</ele>
        <time>2020-05-26T14:39:35.000Z</time>
      </trkpt>
      <trkpt lat="46.28734" lon="4.75048">
        <ele>251</ele>
        <time>2020-05-26T14:39:45.000Z</time>
      </trkpt>
      <trkpt lat="46.28713" lon="4.75031">
        <ele>250.19999694824</ele>
        <time>2020-05-26T14:39:50.000Z</time>
      </trkpt>
      <trkpt lat="46.28676" lon="4.75026">
        <ele>250.19999694824</ele>
        <time>2020-05-26T14:39:58.000Z</time>
      </trkpt>
      <trkpt lat="46.28644" lon="4.75016">
        <ele>250.39999389648</ele>
        <time>2020-05-26T14:40:05.000Z</time>
      </trkpt>
      <trkpt lat="46.28631" lon="4.75027">
        <ele>250.39999389648</ele>
        <time>2020-05-26T14:40:09.000Z</time>
      </trkpt>
      <trkpt lat="46.28621" lon="4.7505">
        <ele>250.39999389648</ele>
        <time>2020-05-26T14:40:16.000Z</time>
      </trkpt>
      <trkpt lat="46.2863" lon="4.75063">
        <ele>250</ele>
        <time>2020-05-26T14:40:20.000Z</time>
      </trkpt>
      <trkpt lat="46.28661" lon="4.75086">
        <ele>245.80000305176</ele>
        <time>2020-05-26T14:40:27.000Z</time>
      </trkpt>
      <trkpt lat="46.28674" lon="4.75096">
        <ele>244.60000610352</ele>
        <time>2020-05-26T14:40:30.000Z</time>
      </trkpt>
      <trkpt lat="46.28743" lon="4.7515">
        <ele>244</ele>
        <time>2020-05-26T14:40:45.000Z</time>
      </trkpt>
      <trkpt lat="46.28775" lon="4.75197">
        <ele>243.80000305176</ele>
        <time>2020-05-26T14:40:54.000Z</time>
      </trkpt>
      <trkpt lat="46.28777" lon="4.75202">
        <ele>243.80000305176</ele>
        <time>2020-05-26T14:40:55.000Z</time>
      </trkpt>
      <trkpt lat="46.28778" lon="4.75207">
        <ele>243.80000305176</ele>
        <time>2020-05-26T14:40:56.000Z</time>
      </trkpt>
      <trkpt lat="46.28775" lon="4.75244">
        <ele>244.19999694824</ele>
        <time>2020-05-26T14:41:05.000Z</time>
      </trkpt>
      <trkpt lat="46.28766" lon="4.7531">
        <ele>243</ele>
        <time>2020-05-26T14:41:12.000Z</time>
      </trkpt>
      <trkpt lat="46.28756" lon="4.75344">
        <ele>237.80000305176</ele>
        <time>2020-05-26T14:41:15.000Z</time>
      </trkpt>
      <trkpt lat="46.28753" lon="4.75355">
        <ele>236.39999389648</ele>
        <time>2020-05-26T14:41:16.000Z</time>
      </trkpt>
      <trkpt lat="46.2874" lon="4.75373">
        <ele>231.19999694824</ele>
        <time>2020-05-26T14:41:20.000Z</time>
      </trkpt>
      <trkpt lat="46.28728" lon="4.75371">
        <ele>230.60000610352</ele>
        <time>2020-05-26T14:41:24.000Z</time>
      </trkpt>
      <trkpt lat="46.28714" lon="4.75367">
        <ele>232.19999694824</ele>
        <time>2020-05-26T14:41:32.000Z</time>
      </trkpt>
      <trkpt lat="46.28722" lon="4.75368">
        <ele>233.80000305176</ele>
        <time>2020-05-26T14:41:57.000Z</time>
      </trkpt>
      <trkpt lat="46.28742" lon="4.75375">
        <ele>233.60000610352</ele>
        <time>2020-05-26T14:42:05.000Z</time>
      </trkpt>
      <trkpt lat="46.28746" lon="4.75377">
        <ele>231.80000305176</ele>
        <time>2020-05-26T14:42:11.000Z</time>
      </trkpt>
      <trkpt lat="46.28745" lon="4.75372">
        <ele>231.80000305176</ele>
        <time>2020-05-26T14:42:52.000Z</time>
      </trkpt>
      <trkpt lat="46.28736" lon="4.75371">
        <ele>231.80000305176</ele>
        <time>2020-05-26T14:42:55.000Z</time>
      </trkpt>
      <trkpt lat="46.28715" lon="4.75364">
        <ele>232</ele>
        <time>2020-05-26T14:43:02.000Z</time>
      </trkpt>
      <trkpt lat="46.28663" lon="4.75346">
        <ele>232.19999694824</ele>
        <time>2020-05-26T14:43:14.000Z</time>
      </trkpt>
      <trkpt lat="46.28624" lon="4.75352">
        <ele>232.19999694824</ele>
        <time>2020-05-26T14:43:22.000Z</time>
      </trkpt>
      <trkpt lat="46.28608" lon="4.75358">
        <ele>233</ele>
        <time>2020-05-26T14:43:26.000Z</time>
      </trkpt>
      <trkpt lat="46.28588" lon="4.75384">
        <ele>235.60000610352</ele>
        <time>2020-05-26T14:43:32.000Z</time>
      </trkpt>
      <trkpt lat="46.28541" lon="4.75416">
        <ele>238.80000305176</ele>
        <time>2020-05-26T14:43:44.000Z</time>
      </trkpt>
      <trkpt lat="46.28497" lon="4.75431">
        <ele>242</ele>
        <time>2020-05-26T14:43:55.000Z</time>
      </trkpt>
      <trkpt lat="46.28474" lon="4.7543">
        <ele>245.39999389648</ele>
        <time>2020-05-26T14:44:01.000Z</time>
      </trkpt>
      <trkpt lat="46.2847" lon="4.75429">
        <ele>245.39999389648</ele>
        <time>2020-05-26T14:44:02.000Z</time>
      </trkpt>
      <trkpt lat="46.28457" lon="4.75426">
        <ele>247.19999694824</ele>
        <time>2020-05-26T14:44:05.000Z</time>
      </trkpt>
      <trkpt lat="46.28402" lon="4.75409">
        <ele>247.39999389648</ele>
        <time>2020-05-26T14:44:17.000Z</time>
      </trkpt>
      <trkpt lat="46.28382" lon="4.75396">
        <ele>247.39999389648</ele>
        <time>2020-05-26T14:44:22.000Z</time>
      </trkpt>
      <trkpt lat="46.28362" lon="4.75378">
        <ele>247.60000610352</ele>
        <time>2020-05-26T14:44:27.000Z</time>
      </trkpt>
      <trkpt lat="46.28343" lon="4.75364">
        <ele>247.80000305176</ele>
        <time>2020-05-26T14:44:31.000Z</time>
      </trkpt>
      <trkpt lat="46.28329" lon="4.75355">
        <ele>247.80000305176</ele>
        <time>2020-05-26T14:44:34.000Z</time>
      </trkpt>
      <trkpt lat="46.28255" lon="4.75314">
        <ele>248</ele>
        <time>2020-05-26T14:44:50.000Z</time>
      </trkpt>
      <trkpt lat="46.28229" lon="4.75297">
        <ele>248.39999389648</ele>
        <time>2020-05-26T14:44:58.000Z</time>
      </trkpt>
      <trkpt lat="46.28217" lon="4.75288">
        <ele>248.39999389648</ele>
        <time>2020-05-26T14:45:01.000Z</time>
      </trkpt>
      <trkpt lat="46.28203" lon="4.75268">
        <ele>248</ele>
        <time>2020-05-26T14:45:05.000Z</time>
      </trkpt>
      <trkpt lat="46.28184" lon="4.75223">
        <ele>244.39999389648</ele>
        <time>2020-05-26T14:45:12.000Z</time>
      </trkpt>
      <trkpt lat="46.28182" lon="4.7522">
        <ele>244.19999694824</ele>
        <time>2020-05-26T14:45:13.000Z</time>
      </trkpt>
      <trkpt lat="46.28167" lon="4.75209">
        <ele>243.19999694824</ele>
        <time>2020-05-26T14:45:18.000Z</time>
      </trkpt>
      <trkpt lat="46.28123" lon="4.75145">
        <ele>244</ele>
        <time>2020-05-26T14:45:32.000Z</time>
      </trkpt>
      <trkpt lat="46.28089" lon="4.75056">
        <ele>246</ele>
        <time>2020-05-26T14:45:49.000Z</time>
      </trkpt>
      <trkpt lat="46.28093" lon="4.75028">
        <ele>245.80000305176</ele>
        <time>2020-05-26T14:45:55.000Z</time>
      </trkpt>
      <trkpt lat="46.28082" lon="4.74993">
        <ele>245.39999389648</ele>
        <time>2020-05-26T14:46:01.000Z</time>
      </trkpt>
      <trkpt lat="46.28074" lon="4.74976">
        <ele>245</ele>
        <time>2020-05-26T14:46:04.000Z</time>
      </trkpt>
      <trkpt lat="46.28046" lon="4.74937">
        <ele>244.60000610352</ele>
        <time>2020-05-26T14:46:12.000Z</time>
      </trkpt>
      <trkpt lat="46.28034" lon="4.74923">
        <ele>244.80000305176</ele>
        <time>2020-05-26T14:46:15.000Z</time>
      </trkpt>
      <trkpt lat="46.27994" lon="4.74874">
        <ele>246</ele>
        <time>2020-05-26T14:46:27.000Z</time>
      </trkpt>
      <trkpt lat="46.27985" lon="4.7487">
        <ele>246.19999694824</ele>
        <time>2020-05-26T14:46:29.000Z</time>
      </trkpt>
      <trkpt lat="46.27973" lon="4.74866">
        <ele>246.80000305176</ele>
        <time>2020-05-26T14:46:32.000Z</time>
      </trkpt>
      <trkpt lat="46.27962" lon="4.74892">
        <ele>247.80000305176</ele>
        <time>2020-05-26T14:46:38.000Z</time>
      </trkpt>
      <trkpt lat="46.27959" lon="4.74967">
        <ele>249.60000610352</ele>
        <time>2020-05-26T14:46:48.000Z</time>
      </trkpt>
      <trkpt lat="46.27948" lon="4.75021">
        <ele>252.80000305176</ele>
        <time>2020-05-26T14:46:57.000Z</time>
      </trkpt>
      <trkpt lat="46.27947" lon="4.75027">
        <ele>253</ele>
        <time>2020-05-26T14:46:58.000Z</time>
      </trkpt>
      <trkpt lat="46.27941" lon="4.75054">
        <ele>256</ele>
        <time>2020-05-26T14:47:03.000Z</time>
      </trkpt>
      <trkpt lat="46.27933" lon="4.75082">
        <ele>259.60000610352</ele>
        <time>2020-05-26T14:47:09.000Z</time>
      </trkpt>
      <trkpt lat="46.27921" lon="4.75101">
        <ele>262.79998779297</ele>
        <time>2020-05-26T14:47:15.000Z</time>
      </trkpt>
      <trkpt lat="46.27914" lon="4.75116">
        <ele>266.60000610352</ele>
        <time>2020-05-26T14:47:20.000Z</time>
      </trkpt>
      <trkpt lat="46.27912" lon="4.75135">
        <ele>270.39999389648</ele>
        <time>2020-05-26T14:47:26.000Z</time>
      </trkpt>
      <trkpt lat="46.27927" lon="4.75157">
        <ele>273.79998779297</ele>
        <time>2020-05-26T14:47:32.000Z</time>
      </trkpt>
      <trkpt lat="46.2793" lon="4.7516">
        <ele>274</ele>
        <time>2020-05-26T14:47:33.000Z</time>
      </trkpt>
      <trkpt lat="46.27982" lon="4.75219">
        <ele>276.39999389648</ele>
        <time>2020-05-26T14:47:51.000Z</time>
      </trkpt>
      <trkpt lat="46.28023" lon="4.75259">
        <ele>279.60000610352</ele>
        <time>2020-05-26T14:48:04.000Z</time>
      </trkpt>
      <trkpt lat="46.28052" lon="4.75307">
        <ele>282.79998779297</ele>
        <time>2020-05-26T14:48:16.000Z</time>
      </trkpt>
      <trkpt lat="46.28102" lon="4.75384">
        <ele>285.60000610352</ele>
        <time>2020-05-26T14:48:35.000Z</time>
      </trkpt>
      <trkpt lat="46.28125" lon="4.75418">
        <ele>288.60000610352</ele>
        <time>2020-05-26T14:48:43.000Z</time>
      </trkpt>
      <trkpt lat="46.2816" lon="4.75459">
        <ele>289.39999389648</ele>
        <time>2020-05-26T14:48:54.000Z</time>
      </trkpt>
      <trkpt lat="46.28152" lon="4.75473">
        <ele>289.60000610352</ele>
        <time>2020-05-26T14:48:59.000Z</time>
      </trkpt>
      <trkpt lat="46.28097" lon="4.75468">
        <ele>293</ele>
        <time>2020-05-26T14:49:13.000Z</time>
      </trkpt>
      <trkpt lat="46.28068" lon="4.75467">
        <ele>296.20001220703</ele>
        <time>2020-05-26T14:49:22.000Z</time>
      </trkpt>
      <trkpt lat="46.2805" lon="4.75466">
        <ele>299.39999389648</ele>
        <time>2020-05-26T14:49:28.000Z</time>
      </trkpt>
      <trkpt lat="46.28031" lon="4.75461">
        <ele>302.79998779297</ele>
        <time>2020-05-26T14:49:34.000Z</time>
      </trkpt>
      <trkpt lat="46.28011" lon="4.75455">
        <ele>306.20001220703</ele>
        <time>2020-05-26T14:49:40.000Z</time>
      </trkpt>
      <trkpt lat="46.27996" lon="4.7545">
        <ele>307.79998779297</ele>
        <time>2020-05-26T14:49:44.000Z</time>
      </trkpt>
      <trkpt lat="46.27945" lon="4.75435">
        <ele>308.79998779297</ele>
        <time>2020-05-26T14:49:56.000Z</time>
      </trkpt>
      <trkpt lat="46.27873" lon="4.75425">
        <ele>309</ele>
        <time>2020-05-26T14:50:11.000Z</time>
      </trkpt>
      <trkpt lat="46.2779" lon="4.75417">
        <ele>306.60000610352</ele>
        <time>2020-05-26T14:50:25.000Z</time>
      </trkpt>
      <trkpt lat="46.2774" lon="4.75399">
        <ele>309.79998779297</ele>
        <time>2020-05-26T14:50:37.000Z</time>
      </trkpt>
      <trkpt lat="46.27666" lon="4.75374">
        <ele>312.39999389648</ele>
        <time>2020-05-26T14:50:53.000Z</time>
      </trkpt>
      <trkpt lat="46.27651" lon="4.75373">
        <ele>312</ele>
        <time>2020-05-26T14:50:58.000Z</time>
      </trkpt>
      <trkpt lat="46.27647" lon="4.75392">
        <ele>311.79998779297</ele>
        <time>2020-05-26T14:51:02.000Z</time>
      </trkpt>
      <trkpt lat="46.27647" lon="4.75507">
        <ele>310.60000610352</ele>
        <time>2020-05-26T14:51:16.000Z</time>
      </trkpt>
      <trkpt lat="46.27649" lon="4.7557">
        <ele>307.20001220703</ele>
        <time>2020-05-26T14:51:21.000Z</time>
      </trkpt>
      <trkpt lat="46.27649" lon="4.75581">
        <ele>306.60000610352</ele>
        <time>2020-05-26T14:51:22.000Z</time>
      </trkpt>
      <trkpt lat="46.27639" lon="4.75615">
        <ele>301.39999389648</ele>
        <time>2020-05-26T14:51:26.000Z</time>
      </trkpt>
      <trkpt lat="46.27637" lon="4.75666">
        <ele>297.60000610352</ele>
        <time>2020-05-26T14:51:31.000Z</time>
      </trkpt>
      <trkpt lat="46.27657" lon="4.75759">
        <ele>294.60000610352</ele>
        <time>2020-05-26T14:51:38.000Z</time>
      </trkpt>
      <trkpt lat="46.27658" lon="4.75799">
        <ele>292.20001220703</ele>
        <time>2020-05-26T14:51:41.000Z</time>
      </trkpt>
      <trkpt lat="46.27655" lon="4.75826">
        <ele>288.60000610352</ele>
        <time>2020-05-26T14:51:43.000Z</time>
      </trkpt>
      <trkpt lat="46.27654" lon="4.75839">
        <ele>288.60000610352</ele>
        <time>2020-05-26T14:51:44.000Z</time>
      </trkpt>
      <trkpt lat="46.27651" lon="4.75866">
        <ele>285.20001220703</ele>
        <time>2020-05-26T14:51:46.000Z</time>
      </trkpt>
      <trkpt lat="46.2764" lon="4.75967">
        <ele>283</ele>
        <time>2020-05-26T14:51:54.000Z</time>
      </trkpt>
      <trkpt lat="46.27635" lon="4.75989">
        <ele>282</ele>
        <time>2020-05-26T14:51:56.000Z</time>
      </trkpt>
      <trkpt lat="46.27618" lon="4.76026">
        <ele>281</ele>
        <time>2020-05-26T14:52:00.000Z</time>
      </trkpt>
      <trkpt lat="46.27566" lon="4.7615">
        <ele>278</ele>
        <time>2020-05-26T14:52:10.000Z</time>
      </trkpt>
      <trkpt lat="46.27559" lon="4.76178">
        <ele>274.79998779297</ele>
        <time>2020-05-26T14:52:12.000Z</time>
      </trkpt>
      <trkpt lat="46.2755" lon="4.76228">
        <ele>271.20001220703</ele>
        <time>2020-05-26T14:52:16.000Z</time>
      </trkpt>
      <trkpt lat="46.27545" lon="4.76245">
        <ele>270.20001220703</ele>
        <time>2020-05-26T14:52:18.000Z</time>
      </trkpt>
      <trkpt lat="46.27501" lon="4.76265">
        <ele>268.20001220703</ele>
        <time>2020-05-26T14:52:25.000Z</time>
      </trkpt>
      <trkpt lat="46.2748" lon="4.76286">
        <ele>267.60000610352</ele>
        <time>2020-05-26T14:52:28.000Z</time>
      </trkpt>
      <trkpt lat="46.27443" lon="4.7634">
        <ele>265.20001220703</ele>
        <time>2020-05-26T14:52:34.000Z</time>
      </trkpt>
      <trkpt lat="46.27429" lon="4.76362">
        <ele>262.60000610352</ele>
        <time>2020-05-26T14:52:37.000Z</time>
      </trkpt>
      <trkpt lat="46.27395" lon="4.76346">
        <ele>259</ele>
        <time>2020-05-26T14:52:44.000Z</time>
      </trkpt>
      <trkpt lat="46.27389" lon="4.76341">
        <ele>258.79998779297</ele>
        <time>2020-05-26T14:52:45.000Z</time>
      </trkpt>
      <trkpt lat="46.27375" lon="4.76332">
        <ele>258.60000610352</ele>
        <time>2020-05-26T14:52:47.000Z</time>
      </trkpt>
      <trkpt lat="46.27318" lon="4.76307">
        <ele>255.39999389648</ele>
        <time>2020-05-26T14:52:53.000Z</time>
      </trkpt>
      <trkpt lat="46.27282" lon="4.76313">
        <ele>251.80000305176</ele>
        <time>2020-05-26T14:52:57.000Z</time>
      </trkpt>
      <trkpt lat="46.27267" lon="4.76323">
        <ele>246.60000610352</ele>
        <time>2020-05-26T14:52:59.000Z</time>
      </trkpt>
      <trkpt lat="46.27246" lon="4.76338">
        <ele>244.80000305176</ele>
        <time>2020-05-26T14:53:02.000Z</time>
      </trkpt>
      <trkpt lat="46.27222" lon="4.76354">
        <ele>244.60000610352</ele>
        <time>2020-05-26T14:53:06.000Z</time>
      </trkpt>
      <trkpt lat="46.27165" lon="4.76362">
        <ele>247.19999694824</ele>
        <time>2020-05-26T14:53:17.000Z</time>
      </trkpt>
      <trkpt lat="46.27138" lon="4.76361">
        <ele>249.60000610352</ele>
        <time>2020-05-26T14:53:23.000Z</time>
      </trkpt>
      <trkpt lat="46.27116" lon="4.76358">
        <ele>253</ele>
        <time>2020-05-26T14:53:28.000Z</time>
      </trkpt>
      <trkpt lat="46.27085" lon="4.76352">
        <ele>256.20001220703</ele>
        <time>2020-05-26T14:53:36.000Z</time>
      </trkpt>
      <trkpt lat="46.27049" lon="4.76355">
        <ele>259.60000610352</ele>
        <time>2020-05-26T14:53:45.000Z</time>
      </trkpt>
      <trkpt lat="46.27033" lon="4.76359">
        <ele>260.79998779297</ele>
        <time>2020-05-26T14:53:49.000Z</time>
      </trkpt>
      <trkpt lat="46.26979" lon="4.76385">
        <ele>264.20001220703</ele>
        <time>2020-05-26T14:54:04.000Z</time>
      </trkpt>
      <trkpt lat="46.26971" lon="4.76383">
        <ele>265</ele>
        <time>2020-05-26T14:54:06.000Z</time>
      </trkpt>
      <trkpt lat="46.26935" lon="4.76354">
        <ele>268.79998779297</ele>
        <time>2020-05-26T14:54:16.000Z</time>
      </trkpt>
      <trkpt lat="46.26914" lon="4.76326">
        <ele>272</ele>
        <time>2020-05-26T14:54:23.000Z</time>
      </trkpt>
      <trkpt lat="46.26905" lon="4.76305">
        <ele>274.20001220703</ele>
        <time>2020-05-26T14:54:27.000Z</time>
      </trkpt>
      <trkpt lat="46.26895" lon="4.76251">
        <ele>277.60000610352</ele>
        <time>2020-05-26T14:54:37.000Z</time>
      </trkpt>
      <trkpt lat="46.26894" lon="4.76247">
        <ele>277.79998779297</ele>
        <time>2020-05-26T14:54:38.000Z</time>
      </trkpt>
      <trkpt lat="46.26886" lon="4.76244">
        <ele>278.39999389648</ele>
        <time>2020-05-26T14:54:42.000Z</time>
      </trkpt>
      <trkpt lat="46.26852" lon="4.76255">
        <ele>280.79998779297</ele>
        <time>2020-05-26T14:54:51.000Z</time>
      </trkpt>
      <trkpt lat="46.26822" lon="4.76262">
        <ele>281</ele>
        <time>2020-05-26T14:54:58.000Z</time>
      </trkpt>
      <trkpt lat="46.26798" lon="4.76269">
        <ele>281</ele>
        <time>2020-05-26T14:55:03.000Z</time>
      </trkpt>
      <trkpt lat="46.26773" lon="4.76281">
        <ele>280.60000610352</ele>
        <time>2020-05-26T14:55:08.000Z</time>
      </trkpt>
      <trkpt lat="46.26735" lon="4.76296">
        <ele>280.39999389648</ele>
        <time>2020-05-26T14:55:16.000Z</time>
      </trkpt>
      <trkpt lat="46.2667" lon="4.76321">
        <ele>280.39999389648</ele>
        <time>2020-05-26T14:55:29.000Z</time>
      </trkpt>
      <trkpt lat="46.26645" lon="4.76331">
        <ele>280.60000610352</ele>
        <time>2020-05-26T14:55:35.000Z</time>
      </trkpt>
      <trkpt lat="46.26577" lon="4.76308">
        <ele>280.60000610352</ele>
        <time>2020-05-26T14:55:48.000Z</time>
      </trkpt>
      <trkpt lat="46.26562" lon="4.76299">
        <ele>280.39999389648</ele>
        <time>2020-05-26T14:55:51.000Z</time>
      </trkpt>
      <trkpt lat="46.26548" lon="4.76288">
        <ele>280.39999389648</ele>
        <time>2020-05-26T14:55:54.000Z</time>
      </trkpt>
      <trkpt lat="46.26513" lon="4.76244">
        <ele>280.20001220703</ele>
        <time>2020-05-26T14:56:03.000Z</time>
      </trkpt>
      <trkpt lat="46.26495" lon="4.76216">
        <ele>280.79998779297</ele>
        <time>2020-05-26T14:56:10.000Z</time>
      </trkpt>
      <trkpt lat="46.26485" lon="4.76234">
        <ele>281.79998779297</ele>
        <time>2020-05-26T14:56:16.000Z</time>
      </trkpt>
      <trkpt lat="46.26471" lon="4.7634">
        <ele>280</ele>
        <time>2020-05-26T14:56:32.000Z</time>
      </trkpt>
      <trkpt lat="46.2647" lon="4.76346">
        <ele>280</ele>
        <time>2020-05-26T14:56:33.000Z</time>
      </trkpt>
      <trkpt lat="46.26469" lon="4.76351">
        <ele>279.79998779297</ele>
        <time>2020-05-26T14:56:34.000Z</time>
      </trkpt>
      <trkpt lat="46.26445" lon="4.7635">
        <ele>277.20001220703</ele>
        <time>2020-05-26T14:56:40.000Z</time>
      </trkpt>
      <trkpt lat="46.26375" lon="4.76321">
        <ele>276</ele>
        <time>2020-05-26T14:56:55.000Z</time>
      </trkpt>
      <trkpt lat="46.26367" lon="4.76334">
        <ele>276</ele>
        <time>2020-05-26T14:56:59.000Z</time>
      </trkpt>
      <trkpt lat="46.26352" lon="4.76447">
        <ele>272.79998779297</ele>
        <time>2020-05-26T14:57:11.000Z</time>
      </trkpt>
      <trkpt lat="46.26347" lon="4.76492">
        <ele>269.20001220703</ele>
        <time>2020-05-26T14:57:15.000Z</time>
      </trkpt>
      <trkpt lat="46.26344" lon="4.76514">
        <ele>265.20001220703</ele>
        <time>2020-05-26T14:57:18.000Z</time>
      </trkpt>
      <trkpt lat="46.26343" lon="4.76524">
        <ele>263.60000610352</ele>
        <time>2020-05-26T14:57:20.000Z</time>
      </trkpt>
      <trkpt lat="46.26347" lon="4.7656">
        <ele>259.39999389648</ele>
        <time>2020-05-26T14:57:25.000Z</time>
      </trkpt>
      <trkpt lat="46.26349" lon="4.76568">
        <ele>259.39999389648</ele>
        <time>2020-05-26T14:57:26.000Z</time>
      </trkpt>
      <trkpt lat="46.26352" lon="4.76582">
        <ele>258.39999389648</ele>
        <time>2020-05-26T14:57:28.000Z</time>
      </trkpt>
      <trkpt lat="46.26371" lon="4.76627">
        <ele>254.80000305176</ele>
        <time>2020-05-26T14:57:34.000Z</time>
      </trkpt>
      <trkpt lat="46.26392" lon="4.76671">
        <ele>251.80000305176</ele>
        <time>2020-05-26T14:57:39.000Z</time>
      </trkpt>
      <trkpt lat="46.26399" lon="4.76722">
        <ele>247.60000610352</ele>
        <time>2020-05-26T14:57:44.000Z</time>
      </trkpt>
      <trkpt lat="46.26371" lon="4.76766">
        <ele>245</ele>
        <time>2020-05-26T14:57:49.000Z</time>
      </trkpt>
      <trkpt lat="46.26354" lon="4.76779">
        <ele>244</ele>
        <time>2020-05-26T14:57:51.000Z</time>
      </trkpt>
      <trkpt lat="46.26323" lon="4.76831">
        <ele>240.80000305176</ele>
        <time>2020-05-26T14:57:56.000Z</time>
      </trkpt>
      <trkpt lat="46.26318" lon="4.76861">
        <ele>239.19999694824</ele>
        <time>2020-05-26T14:57:58.000Z</time>
      </trkpt>
      <trkpt lat="46.26314" lon="4.76937">
        <ele>235</ele>
        <time>2020-05-26T14:58:03.000Z</time>
      </trkpt>
      <trkpt lat="46.26311" lon="4.76981">
        <ele>230</ele>
        <time>2020-05-26T14:58:06.000Z</time>
      </trkpt>
      <trkpt lat="46.26306" lon="4.7702">
        <ele>226.60000610352</ele>
        <time>2020-05-26T14:58:09.000Z</time>
      </trkpt>
      <trkpt lat="46.26298" lon="4.77073">
        <ele>223.60000610352</ele>
        <time>2020-05-26T14:58:16.000Z</time>
      </trkpt>
      <trkpt lat="46.26297" lon="4.77082">
        <ele>223.39999389648</ele>
        <time>2020-05-26T14:58:18.000Z</time>
      </trkpt>
      <trkpt lat="46.26286" lon="4.77143">
        <ele>222.80000305176</ele>
        <time>2020-05-26T14:58:26.000Z</time>
      </trkpt>
      <trkpt lat="46.26275" lon="4.77176">
        <ele>221.19999694824</ele>
        <time>2020-05-26T14:58:30.000Z</time>
      </trkpt>
      <trkpt lat="46.26258" lon="4.77207">
        <ele>220.39999389648</ele>
        <time>2020-05-26T14:58:34.000Z</time>
      </trkpt>
      <trkpt lat="46.26247" lon="4.77244">
        <ele>219.80000305176</ele>
        <time>2020-05-26T14:58:38.000Z</time>
      </trkpt>
      <trkpt lat="46.2624" lon="4.77299">
        <ele>218.39999389648</ele>
        <time>2020-05-26T14:58:44.000Z</time>
      </trkpt>
      <trkpt lat="46.26217" lon="4.77322">
        <ele>216.80000305176</ele>
        <time>2020-05-26T14:58:49.000Z</time>
      </trkpt>
      <trkpt lat="46.26176" lon="4.77316">
        <ele>216.60000610352</ele>
        <time>2020-05-26T14:58:57.000Z</time>
      </trkpt>
      <trkpt lat="46.26151" lon="4.77315">
        <ele>217.39999389648</ele>
        <time>2020-05-26T14:59:02.000Z</time>
      </trkpt>
      <trkpt lat="46.26079" lon="4.77317">
        <ele>218.80000305176</ele>
        <time>2020-05-26T14:59:16.000Z</time>
      </trkpt>
      <trkpt lat="46.26016" lon="4.77331">
        <ele>220.39999389648</ele>
        <time>2020-05-26T14:59:28.000Z</time>
      </trkpt>
      <trkpt lat="46.25978" lon="4.77306">
        <ele>220.80000305176</ele>
        <time>2020-05-26T14:59:37.000Z</time>
      </trkpt>
      <trkpt lat="46.25969" lon="4.77302">
        <ele>221</ele>
        <time>2020-05-26T14:59:39.000Z</time>
      </trkpt>
      <trkpt lat="46.25916" lon="4.77281">
        <ele>221.60000610352</ele>
        <time>2020-05-26T14:59:53.000Z</time>
      </trkpt>
      <trkpt lat="46.25916" lon="4.77281">
        <ele>221.80000305176</ele>
        <time>2020-05-26T14:59:56.000Z</time>
      </trkpt>
      <trkpt lat="46.2592" lon="4.77269">
        <ele>221.80000305176</ele>
        <time>2020-05-26T15:00:01.000Z</time>
      </trkpt>
      <trkpt lat="46.25936" lon="4.77241">
        <ele>221.80000305176</ele>
        <time>2020-05-26T15:00:07.000Z</time>
      </trkpt>
      <trkpt lat="46.25919" lon="4.77227">
        <ele>221.19999694824</ele>
        <time>2020-05-26T15:00:13.000Z</time>
      </trkpt>
      <trkpt lat="46.25881" lon="4.77226">
        <ele>221</ele>
        <time>2020-05-26T15:00:20.000Z</time>
      </trkpt>
      <trkpt lat="46.2583" lon="4.77222">
        <ele>220.80000305176</ele>
        <time>2020-05-26T15:00:28.000Z</time>
      </trkpt>
      <trkpt lat="46.2573" lon="4.77212">
        <ele>217.19999694824</ele>
        <time>2020-05-26T15:00:43.000Z</time>
      </trkpt>
      <trkpt lat="46.25722" lon="4.77215">
        <ele>216.19999694824</ele>
        <time>2020-05-26T15:00:46.000Z</time>
      </trkpt>
      <trkpt lat="46.25719" lon="4.77233">
        <ele>215.19999694824</ele>
        <time>2020-05-26T15:00:50.000Z</time>
      </trkpt>
      <trkpt lat="46.25711" lon="4.77319">
        <ele>213</ele>
        <time>2020-05-26T15:01:00.000Z</time>
      </trkpt>
      <trkpt lat="46.2571" lon="4.77337">
        <ele>211.80000305176</ele>
        <time>2020-05-26T15:01:02.000Z</time>
      </trkpt>
      <trkpt lat="46.257" lon="4.77437">
        <ele>210.39999389648</ele>
        <time>2020-05-26T15:01:15.000Z</time>
      </trkpt>
      <trkpt lat="46.25693" lon="4.77532">
        <ele>210.19999694824</ele>
        <time>2020-05-26T15:01:27.000Z</time>
      </trkpt>
      <trkpt lat="46.25689" lon="4.77546">
        <ele>210</ele>
        <time>2020-05-26T15:01:29.000Z</time>
      </trkpt>
      <trkpt lat="46.25686" lon="4.7755">
        <ele>210</ele>
        <time>2020-05-26T15:01:30.000Z</time>
      </trkpt>
      <trkpt lat="46.25681" lon="4.77552">
        <ele>209.80000305176</ele>
        <time>2020-05-26T15:01:31.000Z</time>
      </trkpt>
      <trkpt lat="46.25674" lon="4.77552">
        <ele>209.80000305176</ele>
        <time>2020-05-26T15:01:32.000Z</time>
      </trkpt>
      <trkpt lat="46.25668" lon="4.7755">
        <ele>209.60000610352</ele>
        <time>2020-05-26T15:01:33.000Z</time>
      </trkpt>
      <trkpt lat="46.2559" lon="4.77526">
        <ele>207</ele>
        <time>2020-05-26T15:01:43.000Z</time>
      </trkpt>
      <trkpt lat="46.25562" lon="4.77518">
        <ele>204</ele>
        <time>2020-05-26T15:01:47.000Z</time>
      </trkpt>
      <trkpt lat="46.25502" lon="4.77507">
        <ele>207.19999694824</ele>
        <time>2020-05-26T15:01:59.000Z</time>
      </trkpt>
      <trkpt lat="46.25464" lon="4.77502">
        <ele>210.39999389648</ele>
        <time>2020-05-26T15:02:07.000Z</time>
      </trkpt>
      <trkpt lat="46.25412" lon="4.77495">
        <ele>213.39999389648</ele>
        <time>2020-05-26T15:02:18.000Z</time>
      </trkpt>
      <trkpt lat="46.25382" lon="4.77495">
        <ele>215</ele>
        <time>2020-05-26T15:02:26.000Z</time>
      </trkpt>
      <trkpt lat="46.25297" lon="4.77502">
        <ele>217</ele>
        <time>2020-05-26T15:02:44.000Z</time>
      </trkpt>
      <trkpt lat="46.25225" lon="4.77517">
        <ele>218.39999389648</ele>
        <time>2020-05-26T15:03:00.000Z</time>
      </trkpt>
      <trkpt lat="46.25208" lon="4.77522">
        <ele>219</ele>
        <time>2020-05-26T15:03:04.000Z</time>
      </trkpt>
      <trkpt lat="46.25188" lon="4.775">
        <ele>220.19999694824</ele>
        <time>2020-05-26T15:03:11.000Z</time>
      </trkpt>
      <trkpt lat="46.25183" lon="4.77476">
        <ele>220.80000305176</ele>
        <time>2020-05-26T15:03:15.000Z</time>
      </trkpt>
      <trkpt lat="46.25165" lon="4.77447">
        <ele>221</ele>
        <time>2020-05-26T15:03:21.000Z</time>
      </trkpt>
      <trkpt lat="46.2513" lon="4.77426">
        <ele>221.39999389648</ele>
        <time>2020-05-26T15:03:30.000Z</time>
      </trkpt>
      <trkpt lat="46.25112" lon="4.77426">
        <ele>222</ele>
        <time>2020-05-26T15:03:34.000Z</time>
      </trkpt>
      <trkpt lat="46.25023" lon="4.77389">
        <ele>223.60000610352</ele>
        <time>2020-05-26T15:03:53.000Z</time>
      </trkpt>
      <trkpt lat="46.24995" lon="4.77377">
        <ele>223.60000610352</ele>
        <time>2020-05-26T15:03:59.000Z</time>
      </trkpt>
      <trkpt lat="46.24975" lon="4.77399">
        <ele>223.60000610352</ele>
        <time>2020-05-26T15:04:06.000Z</time>
      </trkpt>
      <trkpt lat="46.24973" lon="4.77409">
        <ele>223.60000610352</ele>
        <time>2020-05-26T15:04:08.000Z</time>
      </trkpt>
      <trkpt lat="46.2496" lon="4.77412">
        <ele>223.60000610352</ele>
        <time>2020-05-26T15:04:12.000Z</time>
      </trkpt>
      <trkpt lat="46.24878" lon="4.77364">
        <ele>224.60000610352</ele>
        <time>2020-05-26T15:04:30.000Z</time>
      </trkpt>
      <trkpt lat="46.24821" lon="4.7733">
        <ele>224.19999694824</ele>
        <time>2020-05-26T15:04:43.000Z</time>
      </trkpt>
      <trkpt lat="46.24813" lon="4.77325">
        <ele>224.39999389648</ele>
        <time>2020-05-26T15:04:45.000Z</time>
      </trkpt>
      <trkpt lat="46.24768" lon="4.77298">
        <ele>225</ele>
        <time>2020-05-26T15:04:58.000Z</time>
      </trkpt>
      <trkpt lat="46.24778" lon="4.7725">
        <ele>225</ele>
        <time>2020-05-26T15:05:08.000Z</time>
      </trkpt>
      <trkpt lat="46.24784" lon="4.77216">
        <ele>224.80000305176</ele>
        <time>2020-05-26T15:05:13.000Z</time>
      </trkpt>
      <trkpt lat="46.24797" lon="4.77139">
        <ele>224.80000305176</ele>
        <time>2020-05-26T15:05:24.000Z</time>
      </trkpt>
      <trkpt lat="46.248" lon="4.77119">
        <ele>225.19999694824</ele>
        <time>2020-05-26T15:05:27.000Z</time>
      </trkpt>
      <trkpt lat="46.24804" lon="4.77093">
        <ele>225.39999389648</ele>
        <time>2020-05-26T15:05:31.000Z</time>
      </trkpt>
      <trkpt lat="46.24803" lon="4.7708">
        <ele>225.39999389648</ele>
        <time>2020-05-26T15:05:33.000Z</time>
      </trkpt>
      <trkpt lat="46.248" lon="4.77076">
        <ele>225.39999389648</ele>
        <time>2020-05-26T15:05:34.000Z</time>
      </trkpt>
      <trkpt lat="46.24796" lon="4.77073">
        <ele>225.39999389648</ele>
        <time>2020-05-26T15:05:35.000Z</time>
      </trkpt>
      <trkpt lat="46.24791" lon="4.7707">
        <ele>225.39999389648</ele>
        <time>2020-05-26T15:05:36.000Z</time>
      </trkpt>
      <trkpt lat="46.24786" lon="4.77069">
        <ele>225.39999389648</ele>
        <time>2020-05-26T15:05:37.000Z</time>
      </trkpt>
      <trkpt lat="46.24699" lon="4.77044">
        <ele>225.19999694824</ele>
        <time>2020-05-26T15:05:54.000Z</time>
      </trkpt>
      <trkpt lat="46.24694" lon="4.77043">
        <ele>225.19999694824</ele>
        <time>2020-05-26T15:05:55.000Z</time>
      </trkpt>
      <trkpt lat="46.24678" lon="4.77006">
        <ele>225</ele>
        <time>2020-05-26T15:06:02.000Z</time>
      </trkpt>
      <trkpt lat="46.24666" lon="4.76997">
        <ele>224.80000305176</ele>
        <time>2020-05-26T15:06:05.000Z</time>
      </trkpt>
      <trkpt lat="46.2465" lon="4.76994">
        <ele>224.80000305176</ele>
        <time>2020-05-26T15:06:08.000Z</time>
      </trkpt>
      <trkpt lat="46.2462" lon="4.76987">
        <ele>224.60000610352</ele>
        <time>2020-05-26T15:06:14.000Z</time>
      </trkpt>
      <trkpt lat="46.24578" lon="4.76976">
        <ele>224.39999389648</ele>
        <time>2020-05-26T15:06:26.000Z</time>
      </trkpt>
      <trkpt lat="46.24577" lon="4.76976">
        <ele>224.19999694824</ele>
        <time>2020-05-26T15:06:28.000Z</time>
      </trkpt>
      <trkpt lat="46.24568" lon="4.76991">
        <ele>224.19999694824</ele>
        <time>2020-05-26T15:06:33.000Z</time>
      </trkpt>
      <trkpt lat="46.24542" lon="4.77119">
        <ele>222.80000305176</ele>
        <time>2020-05-26T15:06:49.000Z</time>
      </trkpt>
      <trkpt lat="46.24525" lon="4.77202">
        <ele>222.19999694824</ele>
        <time>2020-05-26T15:06:59.000Z</time>
      </trkpt>
      <trkpt lat="46.24509" lon="4.77212">
        <ele>222</ele>
        <time>2020-05-26T15:07:03.000Z</time>
      </trkpt>
      <trkpt lat="46.24421" lon="4.77175">
        <ele>220</ele>
        <time>2020-05-26T15:07:13.000Z</time>
      </trkpt>
      <trkpt lat="46.24378" lon="4.77157">
        <ele>216.19999694824</ele>
        <time>2020-05-26T15:07:17.000Z</time>
      </trkpt>
      <trkpt lat="46.24345" lon="4.77143">
        <ele>212.60000610352</ele>
        <time>2020-05-26T15:07:20.000Z</time>
      </trkpt>
      <trkpt lat="46.24324" lon="4.77134">
        <ele>209.39999389648</ele>
        <time>2020-05-26T15:07:22.000Z</time>
      </trkpt>
      <trkpt lat="46.24283" lon="4.77118">
        <ele>205.60000610352</ele>
        <time>2020-05-26T15:07:26.000Z</time>
      </trkpt>
      <trkpt lat="46.24236" lon="4.77099">
        <ele>202.39999389648</ele>
        <time>2020-05-26T15:07:31.000Z</time>
      </trkpt>
      <trkpt lat="46.24171" lon="4.77073">
        <ele>203.19999694824</ele>
        <time>2020-05-26T15:07:41.000Z</time>
      </trkpt>
      <trkpt lat="46.24134" lon="4.77056">
        <ele>207</ele>
        <time>2020-05-26T15:07:49.000Z</time>
      </trkpt>
      <trkpt lat="46.24112" lon="4.77047">
        <ele>210.19999694824</ele>
        <time>2020-05-26T15:07:54.000Z</time>
      </trkpt>
      <trkpt lat="46.24081" lon="4.77034">
        <ele>213.39999389648</ele>
        <time>2020-05-26T15:08:01.000Z</time>
      </trkpt>
      <trkpt lat="46.24049" lon="4.7702">
        <ele>216.60000610352</ele>
        <time>2020-05-26T15:08:08.000Z</time>
      </trkpt>
      <trkpt lat="46.23963" lon="4.76984">
        <ele>218.39999389648</ele>
        <time>2020-05-26T15:08:26.000Z</time>
      </trkpt>
      <trkpt lat="46.23952" lon="4.76982">
        <ele>218.80000305176</ele>
        <time>2020-05-26T15:08:28.000Z</time>
      </trkpt>
      <trkpt lat="46.23929" lon="4.76987">
        <ele>219</ele>
        <time>2020-05-26T15:08:32.000Z</time>
      </trkpt>
      <trkpt lat="46.23864" lon="4.77029">
        <ele>217.39999389648</ele>
        <time>2020-05-26T15:08:42.000Z</time>
      </trkpt>
      <trkpt lat="46.2385" lon="4.77047">
        <ele>216.19999694824</ele>
        <time>2020-05-26T15:08:45.000Z</time>
      </trkpt>
      <trkpt lat="46.23831" lon="4.77104">
        <ele>215.80000305176</ele>
        <time>2020-05-26T15:08:53.000Z</time>
      </trkpt>
      <trkpt lat="46.23821" lon="4.77111">
        <ele>216.19999694824</ele>
        <time>2020-05-26T15:08:55.000Z</time>
      </trkpt>
      <trkpt lat="46.23732" lon="4.77156">
        <ele>219.39999389648</ele>
        <time>2020-05-26T15:09:12.000Z</time>
      </trkpt>
      <trkpt lat="46.23666" lon="4.77188">
        <ele>220.39999389648</ele>
        <time>2020-05-26T15:09:24.000Z</time>
      </trkpt>
      <trkpt lat="46.23633" lon="4.772">
        <ele>220.80000305176</ele>
        <time>2020-05-26T15:09:30.000Z</time>
      </trkpt>
      <trkpt lat="46.23615" lon="4.77204">
        <ele>220.80000305176</ele>
        <time>2020-05-26T15:09:33.000Z</time>
      </trkpt>
      <trkpt lat="46.23583" lon="4.77222">
        <ele>220.80000305176</ele>
        <time>2020-05-26T15:09:39.000Z</time>
      </trkpt>
      <trkpt lat="46.23565" lon="4.77226">
        <ele>220.80000305176</ele>
        <time>2020-05-26T15:09:42.000Z</time>
      </trkpt>
      <trkpt lat="46.23505" lon="4.77221">
        <ele>221</ele>
        <time>2020-05-26T15:09:53.000Z</time>
      </trkpt>
      <trkpt lat="46.23411" lon="4.7721">
        <ele>223</ele>
        <time>2020-05-26T15:10:08.000Z</time>
      </trkpt>
      <trkpt lat="46.23392" lon="4.77211">
        <ele>223.19999694824</ele>
        <time>2020-05-26T15:10:11.000Z</time>
      </trkpt>
      <trkpt lat="46.23357" lon="4.77238">
        <ele>223.19999694824</ele>
        <time>2020-05-26T15:10:17.000Z</time>
      </trkpt>
      <trkpt lat="46.23348" lon="4.77253">
        <ele>223.19999694824</ele>
        <time>2020-05-26T15:10:19.000Z</time>
      </trkpt>
      <trkpt lat="46.23315" lon="4.77307">
        <ele>223</ele>
        <time>2020-05-26T15:10:26.000Z</time>
      </trkpt>
      <trkpt lat="46.23261" lon="4.77358">
        <ele>221.19999694824</ele>
        <time>2020-05-26T15:10:36.000Z</time>
      </trkpt>
      <trkpt lat="46.23252" lon="4.77384">
        <ele>221</ele>
        <time>2020-05-26T15:10:40.000Z</time>
      </trkpt>
      <trkpt lat="46.23244" lon="4.77412">
        <ele>220.60000610352</ele>
        <time>2020-05-26T15:10:48.000Z</time>
      </trkpt>
      <trkpt lat="46.23241" lon="4.77411">
        <ele>220.60000610352</ele>
        <time>2020-05-26T15:10:49.000Z</time>
      </trkpt>
      <trkpt lat="46.23233" lon="4.77408">
        <ele>220.19999694824</ele>
        <time>2020-05-26T15:10:51.000Z</time>
      </trkpt>
      <trkpt lat="46.23132" lon="4.77388">
        <ele>218.19999694824</ele>
        <time>2020-05-26T15:11:07.000Z</time>
      </trkpt>
      <trkpt lat="46.231" lon="4.77386">
        <ele>218</ele>
        <time>2020-05-26T15:11:12.000Z</time>
      </trkpt>
      <trkpt lat="46.23077" lon="4.7736">
        <ele>217.60000610352</ele>
        <time>2020-05-26T15:11:18.000Z</time>
      </trkpt>
      <trkpt lat="46.23079" lon="4.77222">
        <ele>218.19999694824</ele>
        <time>2020-05-26T15:11:34.000Z</time>
      </trkpt>
      <trkpt lat="46.23076" lon="4.77064">
        <ele>218.39999389648</ele>
        <time>2020-05-26T15:11:52.000Z</time>
      </trkpt>
      <trkpt lat="46.23053" lon="4.77007">
        <ele>218.39999389648</ele>
        <time>2020-05-26T15:12:00.000Z</time>
      </trkpt>
      <trkpt lat="46.23023" lon="4.76974">
        <ele>218.80000305176</ele>
        <time>2020-05-26T15:12:06.000Z</time>
      </trkpt>
      <trkpt lat="46.22936" lon="4.76913">
        <ele>219.60000610352</ele>
        <time>2020-05-26T15:12:23.000Z</time>
      </trkpt>
      <trkpt lat="46.22887" lon="4.76878">
        <ele>222.60000610352</ele>
        <time>2020-05-26T15:12:34.000Z</time>
      </trkpt>
      <trkpt lat="46.22864" lon="4.76862">
        <ele>223.60000610352</ele>
        <time>2020-05-26T15:12:39.000Z</time>
      </trkpt>
      <trkpt lat="46.22846" lon="4.76849">
        <ele>224.39999389648</ele>
        <time>2020-05-26T15:12:43.000Z</time>
      </trkpt>
      <trkpt lat="46.22818" lon="4.76823">
        <ele>224.60000610352</ele>
        <time>2020-05-26T15:12:49.000Z</time>
      </trkpt>
      <trkpt lat="46.228" lon="4.768">
        <ele>224.60000610352</ele>
        <time>2020-05-26T15:12:53.000Z</time>
      </trkpt>
      <trkpt lat="46.22758" lon="4.76714">
        <ele>221.39999389648</ele>
        <time>2020-05-26T15:13:05.000Z</time>
      </trkpt>
      <trkpt lat="46.22726" lon="4.76642">
        <ele>221.39999389648</ele>
        <time>2020-05-26T15:13:16.000Z</time>
      </trkpt>
      <trkpt lat="46.22721" lon="4.7663">
        <ele>222</ele>
        <time>2020-05-26T15:13:18.000Z</time>
      </trkpt>
      <trkpt lat="46.22715" lon="4.76605">
        <ele>224.39999389648</ele>
        <time>2020-05-26T15:13:22.000Z</time>
      </trkpt>
      <trkpt lat="46.22708" lon="4.76551">
        <ele>226.80000305176</ele>
        <time>2020-05-26T15:13:30.000Z</time>
      </trkpt>
      <trkpt lat="46.22704" lon="4.76527">
        <ele>228.60000610352</ele>
        <time>2020-05-26T15:13:34.000Z</time>
      </trkpt>
      <trkpt lat="46.227" lon="4.76509">
        <ele>229.19999694824</ele>
        <time>2020-05-26T15:13:37.000Z</time>
      </trkpt>
      <trkpt lat="46.227" lon="4.76502">
        <ele>229.60000610352</ele>
        <time>2020-05-26T15:13:38.000Z</time>
      </trkpt>
      <trkpt lat="46.22703" lon="4.76423">
        <ele>232.80000305176</ele>
        <time>2020-05-26T15:13:50.000Z</time>
      </trkpt>
      <trkpt lat="46.22707" lon="4.76353">
        <ele>235.80000305176</ele>
        <time>2020-05-26T15:14:02.000Z</time>
      </trkpt>
      <trkpt lat="46.22684" lon="4.76333">
        <ele>239</ele>
        <time>2020-05-26T15:14:09.000Z</time>
      </trkpt>
      <trkpt lat="46.22641" lon="4.76309">
        <ele>241.60000610352</ele>
        <time>2020-05-26T15:14:20.000Z</time>
      </trkpt>
      <trkpt lat="46.22565" lon="4.76264">
        <ele>245</ele>
        <time>2020-05-26T15:14:39.000Z</time>
      </trkpt>
      <trkpt lat="46.22551" lon="4.76235">
        <ele>245.39999389648</ele>
        <time>2020-05-26T15:14:45.000Z</time>
      </trkpt>
      <trkpt lat="46.2255" lon="4.76189">
        <ele>245.80000305176</ele>
        <time>2020-05-26T15:14:52.000Z</time>
      </trkpt>
      <trkpt lat="46.22538" lon="4.76164">
        <ele>246.19999694824</ele>
        <time>2020-05-26T15:14:57.000Z</time>
      </trkpt>
      <trkpt lat="46.22492" lon="4.76137">
        <ele>248.39999389648</ele>
        <time>2020-05-26T15:15:09.000Z</time>
      </trkpt>
      <trkpt lat="46.22484" lon="4.76146">
        <ele>249.39999389648</ele>
        <time>2020-05-26T15:15:13.000Z</time>
      </trkpt>
      <trkpt lat="46.22472" lon="4.76189">
        <ele>249.60000610352</ele>
        <time>2020-05-26T15:15:20.000Z</time>
      </trkpt>
      <trkpt lat="46.22449" lon="4.76198">
        <ele>248.60000610352</ele>
        <time>2020-05-26T15:15:26.000Z</time>
      </trkpt>
      <trkpt lat="46.22357" lon="4.76144">
        <ele>247.19999694824</ele>
        <time>2020-05-26T15:15:43.000Z</time>
      </trkpt>
      <trkpt lat="46.22259" lon="4.76087">
        <ele>245.19999694824</ele>
        <time>2020-05-26T15:15:57.000Z</time>
      </trkpt>
      <trkpt lat="46.22231" lon="4.76073">
        <ele>244</ele>
        <time>2020-05-26T15:16:01.000Z</time>
      </trkpt>
      <trkpt lat="46.22226" lon="4.76041">
        <ele>241.80000305176</ele>
        <time>2020-05-26T15:16:08.000Z</time>
      </trkpt>
      <trkpt lat="46.22232" lon="4.76021">
        <ele>241</ele>
        <time>2020-05-26T15:16:11.000Z</time>
      </trkpt>
      <trkpt lat="46.22264" lon="4.75902">
        <ele>242</ele>
        <time>2020-05-26T15:16:29.000Z</time>
      </trkpt>
      <trkpt lat="46.22302" lon="4.75777">
        <ele>244.60000610352</ele>
        <time>2020-05-26T15:16:48.000Z</time>
      </trkpt>
      <trkpt lat="46.22311" lon="4.75741">
        <ele>244.60000610352</ele>
        <time>2020-05-26T15:16:53.000Z</time>
      </trkpt>
      <trkpt lat="46.22346" lon="4.75614">
        <ele>243.80000305176</ele>
        <time>2020-05-26T15:17:12.000Z</time>
      </trkpt>
      <trkpt lat="46.22385" lon="4.75478">
        <ele>246</ele>
        <time>2020-05-26T15:17:33.000Z</time>
      </trkpt>
      <trkpt lat="46.22404" lon="4.75404">
        <ele>247.19999694824</ele>
        <time>2020-05-26T15:17:45.000Z</time>
      </trkpt>
      <trkpt lat="46.22413" lon="4.7537">
        <ele>248.60000610352</ele>
        <time>2020-05-26T15:17:51.000Z</time>
      </trkpt>
      <trkpt lat="46.22439" lon="4.75262">
        <ele>250.39999389648</ele>
        <time>2020-05-26T15:18:10.000Z</time>
      </trkpt>
      <trkpt lat="46.22441" lon="4.7525">
        <ele>250.39999389648</ele>
        <time>2020-05-26T15:18:12.000Z</time>
      </trkpt>
      <trkpt lat="46.22448" lon="4.75227">
        <ele>250.39999389648</ele>
        <time>2020-05-26T15:18:16.000Z</time>
      </trkpt>
      <trkpt lat="46.22457" lon="4.75192">
        <ele>250.60000610352</ele>
        <time>2020-05-26T15:18:22.000Z</time>
      </trkpt>
      <trkpt lat="46.22467" lon="4.75153">
        <ele>250.19999694824</ele>
        <time>2020-05-26T15:18:29.000Z</time>
      </trkpt>
      <trkpt lat="46.22475" lon="4.75151">
        <ele>250</ele>
        <time>2020-05-26T15:18:32.000Z</time>
      </trkpt>
      <trkpt lat="46.22478" lon="4.75142">
        <ele>249.80000305176</ele>
        <time>2020-05-26T15:18:37.000Z</time>
      </trkpt>
      <trkpt lat="46.2244" lon="4.75101">
        <ele>249.60000610352</ele>
        <time>2020-05-26T15:18:47.000Z</time>
      </trkpt>
      <trkpt lat="46.22426" lon="4.75083">
        <ele>249.39999389648</ele>
        <time>2020-05-26T15:18:50.000Z</time>
      </trkpt>
      <trkpt lat="46.22355" lon="4.74979">
        <ele>246.39999389648</ele>
        <time>2020-05-26T15:19:04.000Z</time>
      </trkpt>
      <trkpt lat="46.22337" lon="4.7494">
        <ele>245.19999694824</ele>
        <time>2020-05-26T15:19:08.000Z</time>
      </trkpt>
      <trkpt lat="46.22295" lon="4.74886">
        <ele>242.19999694824</ele>
        <time>2020-05-26T15:19:15.000Z</time>
      </trkpt>
      <trkpt lat="46.22286" lon="4.74875">
        <ele>240.60000610352</ele>
        <time>2020-05-26T15:19:18.000Z</time>
      </trkpt>
      <trkpt lat="46.22268" lon="4.74859">
        <ele>238.80000305176</ele>
        <time>2020-05-26T15:19:25.000Z</time>
      </trkpt>
      <trkpt lat="46.22208" lon="4.74787">
        <ele>235.80000305176</ele>
        <time>2020-05-26T15:19:37.000Z</time>
      </trkpt>
      <trkpt lat="46.22203" lon="4.74782">
        <ele>234</ele>
        <time>2020-05-26T15:19:39.000Z</time>
      </trkpt>
      <trkpt lat="46.22168" lon="4.7482">
        <ele>232.39999389648</ele>
        <time>2020-05-26T15:19:48.000Z</time>
      </trkpt>
      <trkpt lat="46.2215" lon="4.74845">
        <ele>231.39999389648</ele>
        <time>2020-05-26T15:19:52.000Z</time>
      </trkpt>
      <trkpt lat="46.22108" lon="4.74866">
        <ele>230.60000610352</ele>
        <time>2020-05-26T15:19:59.000Z</time>
      </trkpt>
      <trkpt lat="46.22104" lon="4.74873">
        <ele>230.19999694824</ele>
        <time>2020-05-26T15:20:00.000Z</time>
      </trkpt>
      <trkpt lat="46.22092" lon="4.74899">
        <ele>229.60000610352</ele>
        <time>2020-05-26T15:20:03.000Z</time>
      </trkpt>
      <trkpt lat="46.22067" lon="4.74934">
        <ele>229</ele>
        <time>2020-05-26T15:20:08.000Z</time>
      </trkpt>
      <trkpt lat="46.22047" lon="4.74948">
        <ele>228.80000305176</ele>
        <time>2020-05-26T15:20:11.000Z</time>
      </trkpt>
      <trkpt lat="46.22013" lon="4.74946">
        <ele>227</ele>
        <time>2020-05-26T15:20:17.000Z</time>
      </trkpt>
      <trkpt lat="46.22002" lon="4.74952">
        <ele>225.39999389648</ele>
        <time>2020-05-26T15:20:21.000Z</time>
      </trkpt>
      <trkpt lat="46.21958" lon="4.75044">
        <ele>223.39999389648</ele>
        <time>2020-05-26T15:20:36.000Z</time>
      </trkpt>
      <trkpt lat="46.21953" lon="4.75057">
        <ele>222.80000305176</ele>
        <time>2020-05-26T15:20:38.000Z</time>
      </trkpt>
      <trkpt lat="46.21945" lon="4.75074">
        <ele>221.39999389648</ele>
        <time>2020-05-26T15:20:41.000Z</time>
      </trkpt>
      <trkpt lat="46.21927" lon="4.75109">
        <ele>221.19999694824</ele>
        <time>2020-05-26T15:20:50.000Z</time>
      </trkpt>
      <trkpt lat="46.2191" lon="4.75143">
        <ele>221.19999694824</ele>
        <time>2020-05-26T15:21:02.000Z</time>
      </trkpt>
      <trkpt lat="46.21911" lon="4.7514">
        <ele>221.19999694824</ele>
        <time>2020-05-26T15:21:06.000Z</time>
      </trkpt>
      <trkpt lat="46.21919" lon="4.75126">
        <ele>220.80000305176</ele>
        <time>2020-05-26T15:21:11.000Z</time>
      </trkpt>
      <trkpt lat="46.21944" lon="4.75077">
        <ele>220.39999389648</ele>
        <time>2020-05-26T15:21:24.000Z</time>
      </trkpt>
      <trkpt lat="46.21948" lon="4.75072">
        <ele>220.39999389648</ele>
        <time>2020-05-26T15:21:26.000Z</time>
      </trkpt>
      <trkpt lat="46.21943" lon="4.75056">
        <ele>220.39999389648</ele>
        <time>2020-05-26T15:21:31.000Z</time>
      </trkpt>
      <trkpt lat="46.21891" lon="4.75002">
        <ele>218.39999389648</ele>
        <time>2020-05-26T15:21:44.000Z</time>
      </trkpt>
      <trkpt lat="46.21878" lon="4.74992">
        <ele>216.60000610352</ele>
        <time>2020-05-26T15:21:48.000Z</time>
      </trkpt>
      <trkpt lat="46.21875" lon="4.74994">
        <ele>216</ele>
        <time>2020-05-26T15:21:49.000Z</time>
      </trkpt>
      <trkpt lat="46.21852" lon="4.75016">
        <ele>214</ele>
        <time>2020-05-26T15:21:55.000Z</time>
      </trkpt>
      <trkpt lat="46.21849" lon="4.75021">
        <ele>213.80000305176</ele>
        <time>2020-05-26T15:21:56.000Z</time>
      </trkpt>
      <trkpt lat="46.21843" lon="4.75032">
        <ele>213.60000610352</ele>
        <time>2020-05-26T15:21:58.000Z</time>
      </trkpt>
      <trkpt lat="46.21835" lon="4.75044">
        <ele>213.19999694824</ele>
        <time>2020-05-26T15:22:01.000Z</time>
      </trkpt>
      <trkpt lat="46.21824" lon="4.7504">
        <ele>212.80000305176</ele>
        <time>2020-05-26T15:22:04.000Z</time>
      </trkpt>
      <trkpt lat="46.21774" lon="4.75004">
        <ele>211.80000305176</ele>
        <time>2020-05-26T15:22:14.000Z</time>
      </trkpt>
      <trkpt lat="46.21757" lon="4.74998">
        <ele>209.60000610352</ele>
        <time>2020-05-26T15:22:21.000Z</time>
      </trkpt>
      <trkpt lat="46.21718" lon="4.75086">
        <ele>208.19999694824</ele>
        <time>2020-05-26T15:22:35.000Z</time>
      </trkpt>
      <trkpt lat="46.21716" lon="4.75093">
        <ele>208</ele>
        <time>2020-05-26T15:22:36.000Z</time>
      </trkpt>
      <trkpt lat="46.21692" lon="4.75138">
        <ele>207.19999694824</ele>
        <time>2020-05-26T15:22:43.000Z</time>
      </trkpt>
      <trkpt lat="46.21657" lon="4.75243">
        <ele>207.19999694824</ele>
        <time>2020-05-26T15:22:57.000Z</time>
      </trkpt>
      <trkpt lat="46.21583" lon="4.7534">
        <ele>206.39999389648</ele>
        <time>2020-05-26T15:23:13.000Z</time>
      </trkpt>
      <trkpt lat="46.21571" lon="4.75362">
        <ele>206.19999694824</ele>
        <time>2020-05-26T15:23:16.000Z</time>
      </trkpt>
      <trkpt lat="46.21549" lon="4.75476">
        <ele>205.80000305176</ele>
        <time>2020-05-26T15:23:30.000Z</time>
      </trkpt>
      <trkpt lat="46.21547" lon="4.75484">
        <ele>205.80000305176</ele>
        <time>2020-05-26T15:23:31.000Z</time>
      </trkpt>
      <trkpt lat="46.2153" lon="4.75559">
        <ele>205.60000610352</ele>
        <time>2020-05-26T15:23:40.000Z</time>
      </trkpt>
      <trkpt lat="46.21501" lon="4.756">
        <ele>205.39999389648</ele>
        <time>2020-05-26T15:23:47.000Z</time>
      </trkpt>
      <trkpt lat="46.21485" lon="4.75619">
        <ele>205.39999389648</ele>
        <time>2020-05-26T15:23:53.000Z</time>
      </trkpt>
      <trkpt lat="46.21483" lon="4.75618">
        <ele>205.39999389648</ele>
        <time>2020-05-26T15:23:54.000Z</time>
      </trkpt>
      <trkpt lat="46.2148" lon="4.75615">
        <ele>205.39999389648</ele>
        <time>2020-05-26T15:23:55.000Z</time>
      </trkpt>
      <trkpt lat="46.21477" lon="4.75612">
        <ele>205.39999389648</ele>
        <time>2020-05-26T15:23:56.000Z</time>
      </trkpt>
      <trkpt lat="46.21473" lon="4.75607">
        <ele>205.39999389648</ele>
        <time>2020-05-26T15:23:57.000Z</time>
      </trkpt>
      <trkpt lat="46.21429" lon="4.75554">
        <ele>204.19999694824</ele>
        <time>2020-05-26T15:24:09.000Z</time>
      </trkpt>
      <trkpt lat="46.21408" lon="4.75531">
        <ele>203.60000610352</ele>
        <time>2020-05-26T15:24:15.000Z</time>
      </trkpt>
      <trkpt lat="46.21405" lon="4.75525">
        <ele>203.39999389648</ele>
        <time>2020-05-26T15:24:17.000Z</time>
      </trkpt>
      <trkpt lat="46.21405" lon="4.75522">
        <ele>203.39999389648</ele>
        <time>2020-05-26T15:24:18.000Z</time>
      </trkpt>
      <trkpt lat="46.21405" lon="4.75518">
        <ele>203.39999389648</ele>
        <time>2020-05-26T15:24:19.000Z</time>
      </trkpt>
      <trkpt lat="46.21407" lon="4.75515">
        <ele>203.39999389648</ele>
        <time>2020-05-26T15:24:20.000Z</time>
      </trkpt>
      <trkpt lat="46.2141" lon="4.75511">
        <ele>203.39999389648</ele>
        <time>2020-05-26T15:24:21.000Z</time>
      </trkpt>
      <trkpt lat="46.21422" lon="4.75494">
        <ele>203.19999694824</ele>
        <time>2020-05-26T15:24:26.000Z</time>
      </trkpt>
      <trkpt lat="46.21424" lon="4.75494">
        <ele>203.19999694824</ele>
        <time>2020-05-26T15:24:27.000Z</time>
      </trkpt>
      <trkpt lat="46.21424" lon="4.75495">
        <ele>203.39999389648</ele>
        <time>2020-05-26T15:24:32.000Z</time>
      </trkpt>
    </trkseg>
  </trk>
</gpx>